[[{"header":{"parameterUnit":"m.s-1","parameterCategory":1,"la1":30.6,"la2":28.766,"lo1":-90.7593,"lo2":-88.6598,"dy":0.0162,"dx":0.0183,"nx":116,"ny":114,"refTime":"2023-05-21T06:00:00:Z","depth":0,"parameterNumber":2,"parameterNumberName":"U-component_of_WINDS"},"data":[0.0,0.0,0.0,0.0,0.0,0.0,0.0,0.0,0.0,0.0,0.0,0.0,0.0,0.0,0.0,0.0,0.0,0.0,0.0,0.0,0.0,0.0,0.0,0.0,0.0,0.0,0.0,0.0,0.0,0.0,0.0,0.0,0.0,0.0,0.0,0.0,0.0,0.0,0.0,0.0,0.0,0.0,0.0,0.0,0.0,0.0,0.0,0.0,0.0,0.0,0.0,0.0,0.0,0.0,0.0,0.0,0.0,0.0,0.0,0.0,0.0,0.0,0.0,0.0,0.0,0.0,0.0,0.0,0.0,0.0,0.0,0.0,0.0,0.0,0.0,0.0,0.0,0.0,0.0,0.0,0.0,0.0,0.0,0.0,0.0,0.0,0.0,0.0,0.0,0.0,0.0,0.0,0.0,0.0,0.0,0.0,0.0,0.0,0.0,0.0,0.0,0.0,0.0,0.0,0.0,0.0,0.0,0.0,0.0,0.0,0.0,0.0,0.0,0.0,0.0,0.0,0.0,0.0,0.0,0.0,0.0,0.0,0.0,0.0,0.0,0.0,0.0,0.0,0.0,0.0,0.0,0.0,0.0,0.0,0.0,0.0,0.0,0.0,0.0,0.0,0.0,0.0,0.0,0.0,0.0,0.0,0.0,0.0,0.0,0.0,0.0,0.0,0.0,0.0,0.0,0.0,0.0,0.0,0.0,0.0,0.0,0.0,0.0,0.0,0.0,0.0,0.0,0.0,0.0,0.0,0.0,0.0,0.0,0.0,0.0,0.0,0.0,0.0,0.0,0.0,0.0,0.0,0.0,0.0,0.0,0.0,0.0,0.0,0.0,0.0,0.0,0.0,0.0,0.0,0.0,0.0,0.0,0.0,0.0,0.0,0.0,0.0,0.0,0.0,0.0,0.0,0.0,0.0,0.0,0.0,0.0,0.0,0.0,0.0,0.0,0.0,0.0,0.0,0.0,0.0,0.0,0.0,0.0,0.0,0.0,0.0,0.0,0.0,0.0,0.0,0.0,0.0,0.0,0.0,0.0,0.0,0.0,0.0,0.0,0.0,0.0,0.0,0.0,0.0,0.0,0.0,0.0,0.0,0.0,0.0,0.0,0.0,0.0,0.0,0.0,0.0,0.0,0.0,0.0,0.0,0.0,0.0,0.0,0.0,0.0,0.0,0.0,0.0,0.0,0.0,0.0,0.0,0.0,0.0,0.0,0.0,0.0,0.0,0.0,0.0,0.0,0.0,0.0,0.0,0.0,0.0,0.0,0.0,0.0,0.0,0.0,0.0,0.0,0.0,0.0,0.0,0.0,0.0,0.0,0.0,0.0,0.0,0.0,0.0,0.0,0.0,0.0,0.0,0.0,0.0,0.0,0.0,0.0,0.0,0.0,0.0,0.0,0.0,0.0,0.0,0.0,0.0,0.0,0.0,0.0,0.0,0.0,0.0,0.0,0.0,0.0,0.0,0.0,0.0,0.0,0.0,0.0,0.0,0.0,0.0,0.0,0.0,0.0,0.0,0.0,0.0,0.0,0.0,0.0,0.0,0.0,0.0,0.0,0.0,0.0,0.0,0.0,0.0,0.0,0.0,0.0,0.0,0.0,0.0,0.0,0.0,0.0,0.0,0.0,0.0,0.0,0.0,0.0,0.0,0.0,0.0,0.0,0.0,0.0,0.0,0.0,0.0,0.0,0.0,0.0,0.0,0.0,0.0,0.0,0.0,0.0,0.0,0.0,0.0,0.0,0.0,0.0,0.0,0.0,0.0,0.0,0.0,0.0,0.0,0.0,0.0,0.0,0.0,0.0,0.0,0.0,0.0,0.0,0.0,0.0,0.0,0.0,0.0,0.0,0.0,0.0,0.0,0.0,0.0,0.0,0.0,0.0,0.0,0.0,0.0,0.0,0.0,0.0,0.0,0.0,0.0,0.0,0.0,0.0,0.0,0.0,0.0,0.0,0.0,0.0,0.0,0.0,0.0,0.0,0.0,0.0,0.0,0.0,0.0,0.0,0.0,0.0,0.0,0.0,0.0,0.0,0.0,0.0,0.0,0.0,0.0,0.0,0.0,0.0,0.0,0.0,0.0,0.0,0.0,0.0,0.0,0.0,0.0,0.0,0.0,0.0,0.0,0.0,0.0,0.0,0.0,0.0,0.0,0.0,0.0,0.0,0.0,0.0,0.0,0.0,0.0,0.0,0.0,0.0,0.0,0.0,0.0,0.0,0.0,0.0,0.0,0.0,0.0,0.0,0.0,0.0,0.0,0.0,0.0,0.0,0.0,0.0,0.0,0.0,0.0,0.0,0.0,0.0,0.0,0.0,0.0,0.0,0.0,0.0,0.0,0.0,0.0,0.0,0.0,0.0,0.0,0.0,0.0,0.0,0.0,0.0,0.0,0.0,0.0,0.0,0.0,0.0,0.0,0.0,0.0,0.0,0.0,0.0,0.0,0.0,0.0,0.0,0.0,0.0,0.0,0.0,0.0,0.0,0.0,0.0,0.0,0.0,0.0,0.0,0.0,0.0,0.0,0.0,0.0,0.0,0.0,0.0,0.0,0.0,0.0,0.0,0.0,0.0,0.0,0.0,0.0,0.0,0.0,0.0,0.0,0.0,0.0,0.0,0.0,0.0,0.0,0.0,0.0,0.0,0.0,0.0,0.0,0.0,0.0,0.0,0.0,0.0,0.0,0.0,0.0,0.0,0.0,0.0,0.0,0.0,0.0,0.0,0.0,0.0,0.0,0.0,0.0,0.0,0.0,0.0,0.0,0.0,0.0,0.0,0.0,0.0,0.0,0.0,0.0,0.0,0.0,0.0,0.0,0.0,0.0,0.0,0.0,0.0,0.0,0.0,0.0,0.0,0.0,0.0,0.0,0.0,0.0,0.0,0.0,0.0,0.0,0.0,0.0,0.0,0.0,0.0,0.0,0.0,0.0,0.0,0.0,0.0,0.0,0.0,0.0,0.0,0.0,0.0,0.0,0.0,0.0,0.0,0.0,0.0,0.0,0.0,0.0,0.0,0.0,0.0,0.0,0.0,0.0,0.0,0.0,0.0,0.0,0.0,0.0,0.0,0.0,0.0,0.0,0.0,0.0,0.0,0.0,0.0,0.0,0.0,0.0,0.0,0.0,0.0,0.0,0.0,0.0,0.0,0.0,0.0,0.0,0.0,0.0,0.0,0.0,0.0,0.0,0.0,0.0,0.0,0.0,0.0,0.0,0.0,0.0,0.0,0.0,0.0,0.0,0.0,0.0,0.0,0.0,0.0,0.0,0.0,0.0,0.0,0.0,0.0,0.0,0.0,0.0,0.0,0.0,0.0,0.0,0.0,0.0,0.0,0.0,0.0,0.0,0.0,0.0,0.0,0.0,0.0,0.0,0.0,0.0,0.0,0.0,0.0,0.0,0.0,0.0,0.0,0.0,0.0,0.0,0.0,0.0,0.0,0.0,0.0,0.0,0.0,0.0,0.0,0.0,0.0,0.0,0.0,0.0,0.0,0.0,0.0,0.0,0.0,0.0,0.0,0.0,0.0,0.0,0.0,0.0,0.0,0.0,0.0,0.0,0.0,0.0,0.0,0.0,0.0,0.0,0.0,0.0,0.0,0.0,0.0,0.0,0.0,0.0,0.0,0.0,0.0,0.0,0.0,0.0,0.0,0.0,0.0,0.0,0.0,0.0,0.0,0.0,0.0,0.0,0.0,0.0,0.0,0.0,0.0,0.0,0.0,0.0,0.0,0.0,0.0,0.0,0.0,0.0,0.0,0.0,0.0,0.0,0.0,0.0,0.0,0.0,0.0,0.0,0.0,0.0,0.0,0.0,0.0,0.0,0.0,0.0,0.0,0.0,0.0,0.0,0.0,0.0,0.0,0.0,0.0,0.0,0.0,0.0,0.0,0.0,0.0,0.0,0.0,0.0,0.0,0.0,0.0,0.0,0.0,0.0,0.0,0.0,0.0,0.0,0.0,0.0,0.0,0.0,0.0,0.0,0.0,0.0,0.0,0.0,0.0,0.0,0.0,0.0,0.0,0.0,0.0,0.0,0.0,0.0,0.0,0.0,0.0,0.0,0.0,0.0,0.0,0.0,0.0,0.0,0.0,0.0,0.0,0.0,0.0,0.0,0.0,0.0,0.0,0.0,0.0,0.0,0.0,0.0,0.0,0.0,0.0,0.0,0.0,0.0,0.0,0.0,0.0,0.0,0.0,0.0,0.0,0.0,0.0,0.0,0.0,0.0,0.0,0.0,0.0,0.0,0.0,0.0,0.0,0.0,0.0,0.0,0.0,0.0,0.0,0.0,0.0,0.0,0.0,0.0,0.0,0.0,0.0,0.0,0.0,0.0,0.0,0.0,0.0,0.0,0.0,0.0,0.0,0.0,0.0,0.0,0.0,0.0,0.0,0.0,0.0,0.0,0.0,0.0,0.0,0.0,0.0,0.0,0.0,0.0,0.0,0.0,0.0,0.0,0.0,0.0,0.0,0.0,0.0,0.0,0.0,0.0,0.0,0.0,0.0,0.0,0.0,0.0,0.0,0.0,0.0,0.0,0.0,0.0,0.0,0.0,0.0,0.0,0.0,0.0,0.0,0.0,0.0,0.0,0.0,0.0,0.0,0.0,0.0,0.0,0.0,0.0,0.0,0.0,0.0,0.0,0.0,0.0,0.0,0.0,0.0,0.0,0.0,0.0,0.0,0.0,0.0,0.0,0.0,0.0,0.0,0.0,0.0,0.0,0.0,0.0,0.0,0.0,0.0,0.0,0.0,0.0,0.0,0.0,0.0,0.0,0.0,0.0,0.0,0.0,0.0,0.0,0.0,0.0,0.0,0.0,0.0,0.0,0.0,0.0,0.0,0.0,0.0,0.0,0.0,0.0,0.0,0.0,0.0,0.0,0.0,0.0,0.0,0.0,0.0,0.0,0.0,0.0,0.0,0.0,0.0,0.0,0.0,0.0,0.0,0.0,0.0,0.0,0.0,0.0,0.0,0.0,0.0,0.0,0.0,0.0,0.0,0.0,0.0,0.0,0.0,0.0,0.0,0.0,0.0,0.0,0.0,0.0,0.0,0.0,0.0,0.0,0.0,0.0,0.0,0.0,0.0,0.0,0.0,0.0,0.0,0.0,0.0,0.0,0.0,0.0,0.0,0.0,0.0,0.0,0.0,0.0,0.0,0.0,0.0,0.0,0.0,0.0,0.0,0.0,0.0,0.0,0.0,0.0,0.0,0.0,0.0,0.0,0.0,0.0,0.0,0.0,0.0,0.0,0.0,0.0,0.0,0.0,0.0,0.0,0.0,0.0,0.0,0.0,0.0,0.0,0.0,0.0,0.0,0.0,0.0,0.0,0.0,0.0,0.0,0.0,0.0,0.0,0.0,0.0,0.0,0.0,0.0,0.0,0.0,0.0,0.0,0.0,0.0,0.0,0.0,0.0,0.0,0.0,0.0,0.0,0.0,0.0,0.0,0.0,0.0,0.0,0.0,0.0,0.0,0.0,0.0,0.0,0.0,0.0,0.0,0.0,0.0,0.0,0.0,0.0,0.0,0.0,0.0,0.0,0.0,0.0,0.0,0.0,0.0,0.0,0.0,0.0,0.0,0.0,0.0,0.0,0.0,0.0,0.0,0.0,0.0,0.0,0.0,0.0,0.0,0.0,0.0,0.0,0.0,0.0,0.0,0.0,0.0,0.0,0.0,0.0,0.0,0.0,0.0,0.0,0.0,0.0,0.0,0.0,0.0,0.0,0.0,0.0,0.0,0.0,0.0,0.0,0.0,0.0,0.0,0.0,0.0,0.0,0.0,0.0,0.0,0.0,0.0,0.0,0.0,0.0,0.0,0.0,0.0,0.0,0.0,0.0,0.0,0.0,0.0,0.0,0.0,0.0,0.0,0.0,0.0,0.0,0.0,0.0,0.0,0.0,0.0,0.0,0.0,0.0,0.0,0.0,0.0,0.0,0.0,0.0,0.0,0.0,0.0,0.0,0.0,0.0,0.0,0.0,0.0,0.0,0.0,0.0,0.0,0.0,0.0,0.0,0.0,0.0,0.0,0.0,0.0,0.0,0.0,0.0,0.0,0.0,0.0,0.0,0.0,0.0,0.0,0.0,2.7866,0.0,0.0,0.0,0.0,0.0,0.0,0.0,0.0,0.0,0.0,0.0,0.0,0.0,0.0,0.0,0.0,0.0,0.0,0.0,0.0,0.0,0.0,0.0,0.0,0.0,0.0,0.0,0.0,0.0,0.0,0.0,0.0,0.0,0.0,0.0,0.0,0.0,0.0,0.0,2.5536,2.593,2.6503,2.6825,2.6586,2.5896,0.0,0.0,0.0,0.0,0.0,0.0,0.0,0.0,0.0,0.0,0.0,0.0,0.0,0.0,0.0,0.0,0.0,0.0,0.0,0.0,0.0,0.0,0.0,0.0,0.0,0.0,0.0,0.0,0.0,0.0,0.0,0.0,0.0,0.0,0.0,0.0,0.0,0.0,0.0,0.0,0.0,0.0,0.0,0.0,0.0,0.0,0.0,0.0,0.0,0.0,0.0,0.0,0.0,0.0,0.0,0.0,0.0,0.0,0.0,0.0,0.0,0.0,0.0,0.0,0.0,0.0,0.0,0.0,0.0,0.0,0.0,2.7717,0.0,0.0,0.0,0.0,0.0,0.0,0.0,0.0,0.0,0.0,0.0,0.0,0.0,0.0,0.0,0.0,0.0,0.0,0.0,0.0,0.0,0.0,0.0,2.6521,2.6366,2.6188,2.6072,2.5885,0.0,0.0,0.0,0.0,0.0,0.0,0.0,2.5298,2.5401,2.5612,2.6187,2.6963,2.7966,2.8444,2.7997,2.6794,2.6906,0.0,0.0,0.0,0.0,0.0,0.0,0.0,0.0,0.0,0.0,0.0,0.0,0.0,0.0,0.0,0.0,0.0,0.0,0.0,0.0,0.0,0.0,0.0,0.0,0.0,0.0,0.0,0.0,0.0,0.0,0.0,0.0,0.0,0.0,0.0,0.0,0.0,0.0,0.0,0.0,0.0,0.0,0.0,0.0,0.0,0.0,0.0,0.0,0.0,0.0,0.0,0.0,0.0,0.0,0.0,0.0,0.0,0.0,0.0,0.0,0.0,0.0,0.0,3.1278,3.112,3.1006,3.1374,3.0996,2.999,2.9109,2.8821,2.8891,2.7746,0.0,0.0,0.0,0.0,0.0,0.0,0.0,0.0,0.0,0.0,0.0,0.0,0.0,0.0,0.0,0.0,0.0,0.0,0.0,0.0,0.0,2.6534,2.6487,2.6055,2.6316,2.6394,2.61,0.0,0.0,0.0,0.0,0.0,2.5394,2.5833,2.6316,2.6857,2.78,2.8373,2.8574,2.8541,2.8756,2.9131,2.8885,2.8588,2.8297,0.0,0.0,0.0,0.0,0.0,0.0,0.0,0.0,0.0,0.0,0.0,0.0,0.0,0.0,0.0,0.0,0.0,0.0,0.0,0.0,0.0,0.0,0.0,0.0,0.0,0.0,0.0,0.0,0.0,0.0,0.0,0.0,0.0,0.0,0.0,0.0,0.0,0.0,0.0,0.0,0.0,3.0798,3.0963,0.0,0.0,0.0,0.0,0.0,0.0,0.0,0.0,0.0,0.0,0.0,0.0,0.0,3.1634,3.0837,3.1371,3.1556,3.1403,3.1842,3.1942,3.1747,3.1699,3.1428,3.1004,3.0867,0.0,2.8493,2.8418,0.0,0.0,0.0,0.0,0.0,0.0,0.0,0.0,0.0,0.0,0.0,0.0,0.0,0.0,0.0,0.0,0.0,0.0,0.0,0.0,0.0,2.6659,2.6764,2.6468,2.6752,2.6735,2.6234,2.6065,0.0,0.0,0.0,2.5402,2.5836,2.6014,2.6645,2.7766,2.897,2.9737,3.0112,3.051,3.0902,3.1287,3.1132,3.0663,2.996,2.9795,0.0,0.0,0.0,0.0,0.0,0.0,0.0,0.0,0.0,0.0,0.0,0.0,0.0,0.0,0.0,0.0,0.0,0.0,0.0,0.0,0.0,0.0,0.0,0.0,0.0,0.0,0.0,0.0,0.0,0.0,0.0,0.0,0.0,0.0,0.0,0.0,0.0,0.0,0.0,3.1104,3.1111,3.1148,3.0872,3.0732,0.0,0.0,0.0,0.0,0.0,0.0,0.0,0.0,0.0,3.2018,3.2464,3.2432,3.1862,3.2452,3.283,3.297,3.2868,3.2942,3.3165,3.2546,3.2176,3.2012,3.1364,3.0612,2.9839,2.9397,2.9083,2.8856,0.0,0.0,0.0,0.0,2.8182,2.8009,0.0,0.0,0.0,0.0,0.0,0.0,0.0,0.0,0.0,0.0,0.0,0.0,2.658,2.7043,2.7225,2.6883,2.7158,2.7013,2.6231,2.6106,2.5848,2.5345,2.5328,2.5682,2.6412,2.6745,2.7617,2.9098,3.0203,3.0971,3.1471,3.2071,3.2398,3.2504,3.247,3.1995,3.1224,3.0925,3.0493,2.9965,0.0,0.0,0.0,0.0,0.0,0.0,0.0,0.0,0.0,0.0,0.0,0.0,0.0,0.0,0.0,0.0,0.0,0.0,0.0,0.0,0.0,0.0,0.0,0.0,0.0,0.0,0.0,0.0,0.0,0.0,0.0,0.0,0.0,0.0,0.0,0.0,0.0,3.1741,3.1751,3.1605,3.1596,3.1626,0.0,0.0,0.0,0.0,0.0,0.0,3.3311,3.3005,3.2934,3.3156,3.3453,3.3474,3.3168,3.3612,3.3942,3.419,3.3698,3.3694,3.4094,3.3358,3.2974,3.2882,3.2028,3.1648,3.1486,3.0243,2.9805,2.9878,2.923,2.907,2.9234,2.9428,2.9281,2.9061,0.0,0.0,0.0,0.0,0.0,0.0,0.0,0.0,0.0,0.0,0.0,2.7558,2.7036,2.7779,2.7978,2.7079,2.7472,2.73,2.6183,2.6223,2.6263,2.6236,2.6043,2.6298,2.7041,2.8556,2.9947,3.1241,3.1687,3.2004,3.2152,3.2189,3.2212,3.2212,3.2087,3.1789,3.1382,3.1173,3.066,2.9942,2.9214,0.0,0.0,0.0,0.0,0.0,0.0,0.0,0.0,0.0,0.0,0.0,0.0,0.0,0.0,0.0,0.0,0.0,0.0,0.0,0.0,0.0,0.0,0.0,0.0,0.0,0.0,0.0,0.0,0.0,0.0,0.0,0.0,0.0,0.0,0.0,0.0,0.0,0.0,3.265,3.3178,0.0,0.0,0.0,0.0,3.2893,3.2319,3.248,3.3608,3.3359,3.3733,3.4927,3.4988,3.4901,3.4697,3.4538,3.4368,3.421,3.3983,3.3897,3.3901,3.3855,3.374,3.3557,3.3492,3.3362,3.3005,3.073,2.9797,2.9806,2.9762,2.9748,2.9757,2.9766,2.9766,2.9753,0.0,0.0,0.0,0.0,0.0,0.0,0.0,0.0,2.7011,2.6842,2.7285,2.7455,2.7043,2.7795,2.8169,2.7748,2.8194,2.8151,2.7307,2.7384,2.7269,2.683,2.6667,2.6991,2.7854,2.9652,3.0703,3.0959,3.1436,3.176,3.1933,3.1589,3.1545,3.1745,3.1603,3.1347,3.1015,3.1028,3.0704,3.0154,2.9674,2.9249,0.0,0.0,0.0,0.0,0.0,0.0,0.0,0.0,0.0,0.0,0.0,0.0,0.0,0.0,0.0,0.0,0.0,0.0,0.0,0.0,0.0,0.0,0.0,0.0,0.0,0.0,0.0,0.0,0.0,0.0,0.0,0.0,0.0,0.0,0.0,0.0,0.0,3.3269,3.3507,0.0,3.301,3.2919,3.3042,3.339,3.3394,3.3739,3.4567,3.4359,3.4441,3.4897,3.4357,3.3963,3.3775,3.3274,3.3264,3.3744,3.3278,3.3274,3.3635,3.311,3.2958,3.3041,3.2266,3.2246,3.2676,3.1186,3.117,3.2042,3.1915,3.1944,3.2042,3.1915,3.1675,3.1387,0.0,0.0,0.0,0.0,0.0,0.0,0.0,0.0,2.6982,2.6721,2.7338,2.7616,2.7145,2.8056,2.8606,2.8367,2.8651,2.8585,2.7944,2.7977,2.7838,2.7391,2.7624,2.8221,2.9159,3.0443,3.1087,3.1063,3.1307,3.1495,3.1611,3.1205,3.1235,3.1655,3.1531,3.1345,3.1128,3.1039,3.0733,3.0257,2.9762,2.9377,2.907,0.0,0.0,0.0,0.0,0.0,0.0,0.0,0.0,0.0,0.0,0.0,0.0,0.0,0.0,0.0,0.0,0.0,0.0,0.0,0.0,0.0,0.0,0.0,0.0,0.0,0.0,0.0,0.0,0.0,0.0,0.0,0.0,0.0,0.0,0.0,3.4039,3.3522,3.3861,3.3914,3.3353,3.3514,3.3764,3.405,3.4032,3.4256,3.4878,3.4491,3.4355,3.4555,3.3926,3.359,3.3636,3.3134,3.3266,3.4002,3.3519,3.3437,3.3723,3.3182,3.3005,3.3088,3.2288,3.2317,3.2896,3.2224,3.2552,3.3385,3.2619,3.2444,3.2599,3.2292,3.1988,3.1696,0.0,0.0,0.0,0.0,0.0,0.0,0.0,2.6995,2.6825,2.637,2.7521,2.8115,2.7394,2.8617,2.9294,2.8842,2.8794,2.8545,2.7965,2.794,2.7934,2.796,2.8964,2.9958,3.0863,3.0932,3.1219,3.1786,3.1453,3.1308,3.1337,3.1095,3.1337,3.1978,3.1847,3.1778,3.1725,3.1193,3.0724,3.0229,2.9426,2.9309,2.9552,0.0,0.0,0.0,0.0,0.0,0.0,0.0,0.0,0.0,0.0,0.0,0.0,0.0,0.0,0.0,0.0,0.0,0.0,0.0,0.0,0.0,0.0,0.0,0.0,0.0,0.0,0.0,0.0,0.0,0.0,0.0,0.0,0.0,3.3005,3.3522,3.3817,3.3502,3.4384,3.4864,3.4536,3.4847,3.5008,3.4817,3.4069,3.3885,3.4489,3.3725,3.3535,3.4125,3.3872,3.3969,3.4484,3.4281,3.4439,3.4948,3.4699,3.4438,3.4176,3.4176,3.4028,3.3764,3.3741,3.3741,3.3765,3.3741,3.3765,3.3591,3.1773,3.1184,3.13,3.0827,3.0639,3.0597,0.0,0.0,0.0,0.0,0.0,0.0,0.0,2.704,2.6884,2.6563,2.7485,2.799,2.751,2.8413,2.8984,2.8818,2.8794,2.8754,2.863,2.8626,2.8814,2.9267,2.9843,3.0304,3.0595,3.1506,3.1856,3.1577,3.1342,3.1528,3.208,3.1102,3.1019,3.1702,3.1721,3.1326,3.0644,3.0644,3.0481,3.0183,2.9666,2.9582,2.9722,0.0,0.0,0.0,0.0,0.0,0.0,0.0,0.0,0.0,0.0,0.0,0.0,0.0,0.0,0.0,0.0,0.0,0.0,0.0,0.0,0.0,0.0,0.0,0.0,0.0,0.0,0.0,0.0,0.0,0.0,0.0,0.0,3.4622,3.4192,3.445,3.4788,3.504,3.507,3.4982,3.4743,3.4547,3.4544,3.478,3.446,3.4463,3.4989,3.4779,3.4753,3.495,3.4425,3.4212,3.4351,3.3822,3.3667,3.3915,3.403,3.395,3.3685,3.3685,3.349,3.3132,3.2735,3.2688,3.284,3.2653,3.277,3.3035,3.268,3.2564,3.2535,3.2019,3.1624,3.1246,0.0,0.0,0.0,0.0,0.0,0.0,0.0,2.7039,2.6842,2.6444,2.7337,2.7825,2.7343,2.8257,2.8861,2.8806,2.9012,2.9075,2.8918,2.9144,2.9572,3.0235,3.0516,3.0879,3.1337,3.1923,3.2195,3.2127,3.1698,3.1735,3.2168,3.1322,3.1279,3.1948,3.1979,3.1581,3.0882,3.0999,3.0779,3.0334,3.0051,2.9949,2.9984,3.007,2.9775,2.9286,2.9187,2.8941,2.8627,2.822,0.0,0.0,0.0,0.0,0.0,0.0,0.0,0.0,0.0,0.0,0.0,0.0,0.0,0.0,0.0,0.0,0.0,0.0,0.0,0.0,0.0,0.0,0.0,0.0,3.4948,3.5023,3.4832,3.4935,3.5081,3.5184,3.5209,3.5243,3.5305,3.5321,3.5412,3.5615,3.5244,3.5044,3.5108,3.4742,3.4551,3.4598,3.402,3.3808,3.4052,3.355,3.3446,3.3743,3.3909,3.3838,3.3577,3.3577,3.3386,3.305,3.2616,3.2591,3.2809,3.2423,3.2495,0.0,0.0,0.0,0.0,0.0,3.1902,3.1583,0.0,0.0,0.0,0.0,0.0,0.0,0.0,2.7047,2.6792,2.6192,2.7167,2.7693,2.7084,2.8156,2.8895,2.8824,2.9246,2.9373,2.9014,2.9492,3.0152,3.0923,3.0966,3.1421,3.2393,3.2158,3.2326,3.2926,3.2257,3.1954,3.2017,3.1697,3.1839,3.2394,3.2394,3.2163,3.1745,3.1745,3.1338,3.0665,3.0564,3.043,3.029,3.0388,3.0155,2.9719,2.9232,2.9201,2.9339,2.8994,0.0,0.0,0.0,0.0,0.0,0.0,0.0,0.0,0.0,0.0,0.0,0.0,0.0,0.0,0.0,0.0,0.0,0.0,0.0,0.0,0.0,0.0,0.0,0.0,3.5157,3.5021,3.5206,3.5209,3.5085,3.4772,3.5231,3.5684,3.6007,3.6532,3.6781,3.6616,3.5987,3.5439,3.4991,0.0,0.0,0.0,0.0,3.3292,3.3814,3.3585,3.3699,3.4133,3.4158,3.401,3.3704,3.3667,3.3543,3.3331,3.2993,3.3006,3.3218,3.2706,3.2665,3.2881,3.2297,3.2158,3.2265,3.1849,3.1659,3.1623,0.0,0.0,0.0,0.0,0.0,0.0,0.0,2.7079,2.6817,2.6339,2.73,2.7831,2.7227,2.83,2.9017,2.8885,2.8981,2.9206,2.9599,2.974,3.0256,3.1266,3.0959,3.1107,3.1843,3.2057,3.2274,3.252,3.2202,3.2303,3.2769,3.2078,3.1975,3.2405,3.2405,3.2028,3.1401,3.1401,3.1307,3.1172,3.1303,3.1132,3.0699,3.0091,3.0287,3.0814,3.0243,3.0536,3.1133,3.0689,3.112,3.1801,3.1538,3.1454,0.0,0.0,0.0,0.0,0.0,0.0,0.0,0.0,0.0,0.0,0.0,0.0,0.0,0.0,0.0,0.0,0.0,0.0,0.0,3.547,3.5737,3.6016,3.6058,3.5877,3.5854,3.6161,3.6439,3.6521,3.6338,3.6433,3.6185,3.5415,3.5228,3.5012,3.4762,3.4379,3.4196,3.4245,3.4001,3.4103,3.4573,3.4547,3.4456,3.4336,0.0,0.0,3.3692,3.3481,3.3468,3.358,3.287,3.273,3.2954,3.2631,3.2753,3.3048,3.2124,3.1542,3.1204,3.1119,3.106,3.106,0.0,0.0,0.0,0.0,0.0,0.0,0.0,2.7133,2.6834,2.6418,2.7044,2.7494,2.7327,2.7804,2.8347,2.8863,2.9082,2.9543,3.0344,3.0454,3.0775,3.1422,3.1444,3.1723,3.2342,3.2476,3.272,3.3106,3.273,3.2709,3.2983,3.2377,3.2179,3.23,3.23,3.1974,3.1469,3.1654,3.169,3.1618,3.1824,3.1758,3.1481,3.0964,3.0874,3.1015,3.0818,3.1091,3.1502,3.1288,3.1598,3.2112,3.2179,3.2091,3.1998,0.0,0.0,0.0,0.0,0.0,0.0,0.0,0.0,0.0,0.0,0.0,0.0,0.0,0.0,3.5023,0.0,0.0,3.5883,3.5979,3.593,3.5921,3.5991,3.5767,3.5775,3.6247,3.63,3.6301,3.6296,3.6293,3.6119,3.5687,3.5563,3.5464,3.5367,3.509,3.5027,3.5194,3.4979,3.4906,3.4998,3.4692,3.4563,3.4601,3.4195,3.4003,3.3977,3.3484,3.3443,3.3771,3.3219,3.3153,3.3384,3.3114,3.292,3.2756,3.2321,3.2104,3.2047,3.2047,3.1903,3.1702,0.0,0.0,0.0,0.0,0.0,0.0,0.0,2.7209,2.6896,2.6466,2.6777,2.7089,2.7217,2.7205,2.7617,2.8617,2.9196,2.989,3.0863,3.1106,3.1284,3.1495,3.1775,3.2194,3.277,3.2641,3.2936,3.3707,3.319,3.2926,3.2881,3.2525,3.2264,3.2091,3.2144,3.1988,3.1683,3.2062,3.2131,3.1995,3.2304,3.2427,3.2409,3.2243,3.1761,3.1206,3.1292,3.1484,3.1719,3.1794,3.2004,3.2344,3.2908,3.2799,3.2547,3.2974,3.2604,0.0,0.0,0.0,0.0,0.0,0.0,0.0,0.0,0.0,3.3942,3.3976,3.4583,3.5261,3.5786,3.5607,3.5613,3.6297,3.5928,3.5602,3.5771,3.5492,3.5468,3.6011,3.5913,3.593,3.6262,3.6292,3.6301,3.6322,3.6168,3.6075,3.6073,3.5773,3.5701,3.5915,3.5606,3.5366,3.5183,3.4699,3.4555,3.475,3.3885,3.3746,3.4198,3.3544,3.3442,3.3746,3.3482,3.3511,3.3721,3.3442,3.3024,3.2583,3.2634,3.2882,3.3203,3.3014,3.2743,3.2461,0.0,0.0,0.0,0.0,0.0,0.0,0.0,0.0,2.7004,2.6548,2.6886,2.7035,2.6631,2.6965,2.7422,2.7957,2.892,2.9831,3.0581,3.0992,3.1291,3.1493,3.1154,3.129,3.2016,3.1618,3.2041,3.3355,3.294,3.2641,3.2462,3.23,3.2027,3.1678,3.1987,3.2015,3.1894,3.2232,3.2301,3.2232,3.2973,3.3261,3.3289,3.3427,3.2968,3.2188,3.1845,3.2198,3.288,3.3231,3.3726,3.4264,3.4699,3.4662,3.4393,3.3931,3.3226,3.2605,3.2605,3.3007,3.3537,3.4073,3.4072,3.4043,0.0,0.0,3.5358,3.501,3.5623,3.6073,3.5564,3.5998,3.6267,3.5791,3.5693,3.5784,3.6091,3.5542,3.5431,3.6256,3.6229,3.6269,3.6619,3.6647,3.6578,3.6409,3.637,3.6355,3.6352,3.5882,3.5611,3.5644,3.5151,3.4964,3.5119,3.5039,3.4878,3.4614,3.4504,3.4278,3.3933,3.361,3.3403,3.3259,3.2984,3.3005,3.3164,3.2846,3.2901,3.3178,3.2954,3.3029,3.3193,3.2347,3.2208,3.2308,0.0,0.0,0.0,0.0,0.0,0.0,0.0,0.0,0.0,2.6722,2.6722,2.6698,2.6568,2.7195,2.7538,2.7329,2.8627,2.9699,3.0273,3.0696,3.0997,3.1204,3.1203,3.1425,3.1895,3.19,3.236,3.3308,3.2557,3.2314,3.2556,3.1843,3.1604,3.1775,3.1923,3.1948,3.1913,3.2169,3.2442,3.2748,3.3099,3.3408,3.3703,3.3774,3.3596,3.3199,3.2685,3.2633,0.0,3.3558,3.3932,3.424,3.4805,3.4746,3.4398,3.4147,3.3585,3.3095,3.3324,3.3583,3.3892,0.0,3.4441,3.4386,3.4443,3.4832,3.5131,3.4955,3.5678,3.628,3.6136,3.6446,3.665,0.0,3.5918,3.5642,3.5837,3.518,3.4933,3.5619,3.5502,3.5612,3.6229,3.6289,3.6184,3.5951,3.5925,3.608,3.6376,3.6192,3.6047,3.601,3.5793,3.5546,3.5287,3.5123,3.5043,3.5071,3.4429,3.4272,3.4524,3.3937,3.3701,3.3723,3.3614,3.3342,3.3005,3.3337,3.3318,3.3082,3.3235,3.3506,3.3684,3.2968,3.2749,3.2767,0.0,0.0,0.0,0.0,0.0,0.0,0.0,0.0,0.0,0.0,2.6703,2.6465,2.6342,2.7121,2.7423,2.6887,2.8406,2.96,3.0097,3.0424,3.0715,3.0992,3.1064,3.1266,3.1587,3.1698,3.206,3.2728,3.2071,3.1944,3.2295,3.1581,3.141,3.1734,3.183,3.1947,3.2081,3.2377,3.2818,3.335,3.3645,3.3963,3.4271,3.4387,3.4287,3.4001,3.3389,3.3074,3.3012,3.3482,3.3804,3.4073,3.4584,3.4481,3.4212,3.427,3.3898,3.3526,3.3751,3.3932,0.0,3.4575,3.467,3.4644,3.4549,3.4889,3.517,3.5049,3.5836,3.6497,3.6305,3.6582,3.6764,3.6546,3.5897,3.5437,3.5487,3.4811,3.4559,3.5223,3.5141,3.5325,3.6113,3.6145,3.6081,3.6013,3.6012,3.6177,3.6566,3.6457,3.6353,3.6307,3.6141,3.581,3.5285,3.5102,3.5049,3.5135,3.4356,3.4254,3.4719,3.3925,3.3692,3.3949,3.382,3.3512,3.3132,3.3638,3.3504,3.3018,3.3357,3.3678,3.3917,3.3524,3.3341,3.3246,0.0,0.0,0.0,0.0,0.0,0.0,0.0,0.0,0.0,0.0,0.0,0.0,0.0,2.6472,2.6933,2.6725,2.8362,2.9634,3.0156,3.0273,3.0516,3.0977,3.0453,3.0362,3.0824,3.0337,3.0463,3.1252,3.1488,3.1521,3.1345,3.1708,3.167,3.1336,3.1657,3.2063,3.2526,3.305,3.3493,3.3973,3.5008,3.5318,3.5194,3.5582,3.526,3.4494,3.3813,3.3578,3.3523,3.3139,3.355,3.4203,3.4289,3.4262,3.4248,3.4421,3.4197,3.3839,3.3661,0.0,3.457,3.4983,3.5085,3.5127,3.5322,3.5829,3.6124,3.5669,3.6423,3.6817,3.5648,3.6245,3.6598,3.5691,3.5358,3.5211,3.5211,3.4579,3.4477,3.5477,3.5582,3.5865,0.0,3.6503,3.6567,3.7022,3.7044,3.7069,3.7081,3.6582,3.6295,3.6293,3.5728,3.5285,3.5019,3.5005,3.4841,3.4524,3.4488,3.4359,3.4104,3.3289,3.3178,3.359,3.3136,3.3175,3.3561,3.3324,3.3211,3.3186,3.3211,3.3381,3.3611,3.36,3.3669,3.3636,0.0,0.0,0.0,0.0,0.0,0.0,0.0,0.0,0.0,0.0,0.0,0.0,0.0,0.0,0.0,0.0,2.7577,2.8446,2.9474,2.9308,2.9483,3.0162,2.9841,3.0006,3.0773,3.0403,3.0531,3.121,3.1158,3.1261,3.1503,3.1646,3.1703,3.1706,3.1962,3.2308,3.2725,3.3032,3.3686,3.4547,3.5086,3.5494,3.5779,3.5602,3.5447,3.52,0.0,3.3544,3.3302,3.4028,3.4138,3.4082,3.4547,3.4375,3.4007,3.4075,3.3908,3.3831,3.4424,0.0,3.5057,3.5741,3.5906,3.5973,3.6256,3.638,3.6433,3.6409,3.6471,3.6454,3.6179,3.6192,3.602,3.5342,3.5061,3.4835,3.4518,3.4371,3.4562,3.5251,3.5441,0.0,0.0,0.0,0.0,3.6266,3.6236,3.6155,3.5988,3.581,3.5618,3.5439,3.5544,3.5459,3.5138,3.5492,3.5614,3.5488,3.5273,3.4999,3.4685,3.4196,3.4048,3.4159,3.3509,3.3193,3.3116,3.2945,3.2763,3.2631,3.3051,3.3264,3.3353,3.3526,3.3628,3.3622,0.0,0.0,0.0,0.0,0.0,0.0,0.0,0.0,0.0,0.0,0.0,0.0,0.0,0.0,0.0,0.0,0.0,2.7978,2.8758,2.8604,2.8892,2.9797,2.9493,2.9686,3.0526,3.0216,3.018,3.0457,3.0547,3.0824,3.1279,3.1127,3.1431,3.2073,3.1798,3.219,3.3111,3.3403,3.4143,3.5141,3.5392,3.5675,3.5912,3.5542,3.5348,0.0,3.4561,3.3852,3.3322,3.398,3.4079,3.395,3.4321,3.4293,3.4071,3.3859,3.396,3.4254,3.4751,3.5203,3.5629,3.6049,3.6328,3.6516,3.6662,3.6741,3.6799,3.6864,3.6601,3.6337,3.6204,3.5814,3.5307,3.4701,3.4487,3.4357,3.4236,3.4239,3.4487,3.5087,3.5283,3.5444,0.0,0.0,0.0,3.5687,3.5659,3.5656,3.5644,3.5569,3.5508,3.5489,3.5702,3.57,3.5488,3.5714,3.5692,3.5462,3.5125,3.485,3.4629,3.42,3.4066,3.416,3.356,3.3161,3.2968,3.283,3.2602,3.2386,3.285,3.2944,3.2887,3.3176,3.3346,3.3459,0.0,0.0,0.0,0.0,0.0,0.0,0.0,0.0,0.0,0.0,0.0,0.0,0.0,0.0,0.0,0.0,0.0,0.0,2.81,2.8165,2.8695,2.9788,2.9348,2.9374,3.0023,2.9758,2.9438,2.9099,2.9673,3.0221,3.0663,3.0294,3.0908,3.2267,3.1204,3.1784,3.362,3.4046,3.4788,3.5709,3.589,3.5861,3.5677,3.5455,3.5027,3.4588,3.4973,3.4478,3.3595,3.3209,3.3453,3.3881,3.3689,3.402,3.4378,3.3868,3.4364,3.5012,3.4722,3.5436,3.6222,3.6021,3.6404,3.6773,3.6585,3.6944,3.725,3.7004,3.6772,3.637,0.0,0.0,3.4478,3.3815,3.372,3.3876,3.4326,3.4202,3.4311,0.0,0.0,0.0,0.0,0.0,0.0,3.5387,0.0,3.5602,3.6069,3.5852,3.5917,3.6378,3.6161,3.6023,3.5969,3.5684,3.5185,3.4525,3.4218,3.4044,3.3994,3.3436,3.3341,3.3626,3.3251,3.3105,3.3105,3.2948,3.2697,3.2391,3.2605,3.2477,3.2227,3.2542,3.2867,3.3137,0.0,0.0,0.0,0.0,0.0,0.0,0.0,0.0,0.0,0.0,0.0,0.0,0.0,0.0,0.0,0.0,0.0,0.0,2.8036,2.7337,2.7522,2.8933,2.8735,2.8783,2.9194,2.9463,2.9438,2.9099,2.9402,2.9773,3.0188,3.033,3.069,3.1196,3.1062,3.1867,3.3296,3.3321,3.4125,3.5405,3.5507,3.5605,3.5668,3.525,3.5093,3.5107,3.5101,3.4839,3.4459,0.0,0.0,0.0,0.0,3.4157,3.4417,3.518,3.5035,3.4917,3.6173,3.6261,3.6143,3.6794,3.7056,3.7181,3.7234,3.7353,3.7261,3.661,3.5798,3.5105,0.0,0.0,0.0,3.3857,3.3926,0.0,3.429,3.4611,0.0,3.4724,0.0,3.5275,3.5119,3.5427,0.0,0.0,3.5475,3.5749,3.6006,3.5967,3.5979,3.611,3.6359,3.6279,3.5778,3.579,3.5458,3.4805,3.4958,3.4774,3.4297,3.4143,3.4122,3.4164,3.3509,3.3257,3.3217,3.2829,3.2445,3.2132,3.2369,3.2244,3.1917,3.2004,3.208,3.219,0.0,0.0,0.0,0.0,0.0,0.0,0.0,0.0,0.0,0.0,0.0,0.0,0.0,0.0,0.0,0.0,0.0,0.0,0.0,2.7627,2.7917,2.875,2.8624,2.8814,2.9412,2.9255,2.9142,2.9091,2.9073,2.9286,2.9747,2.9843,3.0392,3.1268,3.0975,3.1644,3.3014,3.3399,3.417,0.0,0.0,3.5644,3.5693,3.516,3.4996,3.504,3.5178,3.5296,0.0,0.0,0.0,3.4702,3.4615,3.472,3.4992,3.5664,0.0,3.5526,3.6607,3.6702,3.6589,3.6904,3.7192,3.7334,3.715,3.6945,3.6638,3.6071,3.4858,0.0,0.0,0.0,0.0,0.0,0.0,0.0,3.4594,3.4908,3.5021,0.0,3.5037,0.0,3.5099,3.5339,3.5583,0.0,3.5843,3.5902,3.6073,3.6223,3.6336,3.6395,3.6517,3.618,3.5355,3.5417,3.5123,3.447,3.4657,3.4548,3.4188,3.4032,3.4032,3.4147,0.0,3.3347,3.3318,3.3028,3.2681,3.2363,3.2455,3.2151,3.1695,3.1841,3.1857,3.1845,0.0,0.0,0.0,0.0,0.0,0.0,0.0,0.0,0.0,0.0,0.0,0.0,0.0,0.0,0.0,0.0,0.0,0.0,0.0,0.0,2.892,2.8959,2.8844,2.9142,2.9912,2.9124,2.8827,2.9072,2.8653,2.8731,2.9257,2.9117,2.9954,3.154,3.0843,3.1302,3.2654,3.3673,3.4368,3.4855,3.5465,3.5741,3.5733,0.0,3.4908,3.4861,3.5252,3.5771,0.0,0.0,3.5365,3.5499,3.5294,3.5526,3.5879,3.5917,3.6179,3.6477,3.6711,3.7036,3.7224,3.6851,3.7141,3.7327,3.6664,3.617,3.5732,3.5299,0.0,3.2975,3.342,3.2735,3.2447,3.3477,0.0,3.4261,3.494,3.5054,3.5052,3.495,3.4924,3.4989,3.5182,3.5266,3.5678,3.6561,3.6358,3.6219,3.629,3.6576,3.6741,3.6774,3.6361,3.5721,3.4844,3.4782,3.4454,3.3827,3.3875,3.3875,3.3812,3.3528,3.356,3.3812,3.3528,3.3402,3.3398,3.3339,3.3105,3.2785,3.2604,3.2165,3.1607,3.1786,3.1809,3.181,0.0,0.0,0.0,0.0,0.0,0.0,0.0,0.0,0.0,0.0,2.7689,2.7875,0.0,0.0,0.0,0.0,0.0,0.0,0.0,0.0,0.0,2.9277,2.9293,2.9201,2.9035,2.9186,2.9147,2.8929,2.81,2.7989,2.8583,2.8713,2.9145,2.9857,3.047,3.1204,3.1999,3.2752,3.3543,3.4378,3.5037,3.5477,3.5685,3.5479,0.0,0.0,3.5337,0.0,0.0,3.6188,3.6015,3.619,3.5991,3.6275,3.6767,3.7087,3.7118,3.7217,3.8014,3.7815,3.7433,3.7637,3.759,3.7246,3.6241,3.5828,0.0,0.0,3.3056,3.2663,3.297,3.2521,0.0,3.3725,0.0,0.0,0.0,0.0,3.4908,0.0,0.0,0.0,0.0,0.0,0.0,0.0,0.0,3.7057,3.6792,3.6833,3.6612,3.609,3.5216,3.4657,3.4485,3.422,3.3875,3.3481,3.3765,3.3749,3.3481,3.3434,3.3434,3.3481,3.3434,0.0,3.3402,3.3387,3.3152,3.2769,3.241,3.2195,3.2003,3.1333,3.129,3.1569,0.0,0.0,0.0,0.0,0.0,0.0,0.0,2.6468,2.7032,2.8018,2.8238,2.8125,2.7663,2.7505,0.0,0.0,0.0,0.0,0.0,0.0,0.0,0.0,0.0,0.0,2.9797,2.9295,2.9181,2.9471,0.0,2.8177,2.8425,2.9218,2.9725,3.0014,3.0951,3.1565,3.1952,3.2699,3.3532,3.4402,3.4973,3.5568,3.6077,0.0,0.0,0.0,0.0,0.0,0.0,0.0,3.6296,3.6772,3.6252,3.6469,3.6951,3.7256,3.7502,3.7767,3.8259,3.8107,3.7793,3.7705,3.7599,3.7146,3.578,0.0,0.0,0.0,3.2305,3.2004,3.2418,0.0,0.0,0.0,0.0,0.0,0.0,0.0,0.0,0.0,0.0,0.0,0.0,0.0,0.0,0.0,0.0,3.6839,3.6152,3.5952,3.5721,3.5397,3.475,3.4235,3.3875,3.3717,3.356,3.3402,3.356,3.356,3.3402,3.3402,3.3402,3.3402,3.3402,3.3402,3.3402,3.3402,3.3285,3.306,3.2672,3.2506,3.2437,3.1802,3.1741,3.1979,0.0,0.0,0.0,0.0,0.0,0.0,0.0,2.6756,2.7259,2.8703,2.8752,2.843,2.7911,2.7682,2.7513,0.0,0.0,0.0,0.0,0.0,0.0,0.0,0.0,0.0,0.0,0.0,0.0,3.0254,2.9407,0.0,0.0,0.0,0.0,0.0,3.142,3.1935,3.214,3.2909,3.3693,0.0,0.0,3.5852,0.0,0.0,0.0,0.0,0.0,0.0,0.0,0.0,3.6366,3.7008,3.6419,3.6584,3.7017,3.7203,3.7693,3.8185,3.8312,3.8313,3.8179,3.7757,3.7575,3.707,3.5404,3.4712,0.0,0.0,3.1739,3.1461,3.1995,0.0,0.0,0.0,0.0,0.0,0.0,0.0,0.0,0.0,0.0,0.0,0.0,0.0,0.0,0.0,0.0,3.6075,3.5433,3.5015,3.4766,3.4688,3.436,3.3937,3.3412,3.3402,3.3402,3.3402,3.3402,3.3402,3.3402,3.3402,3.3402,3.3402,3.3402,3.3402,3.3402,3.3402,3.3353,3.3226,3.2822,3.2777,3.2858,3.2338,3.2321,3.2532,0.0,0.0,0.0,0.0,0.0,0.0,0.0,2.6782,2.7292,2.8712,2.8833,2.8675,2.837,2.8007,2.7664,0.0,0.0,0.0,0.0,0.0,0.0,0.0,0.0,0.0,0.0,0.0,0.0,3.1083,3.0521,0.0,0.0,0.0,0.0,0.0,0.0,3.1896,3.2409,3.3093,0.0,0.0,0.0,0.0,0.0,0.0,0.0,0.0,0.0,0.0,0.0,0.0,0.0,3.65,3.6604,3.6926,3.729,3.7425,0.0,0.0,3.8747,3.8711,3.8487,3.8213,3.7826,3.7035,3.5236,0.0,0.0,3.2121,3.1517,3.1461,3.1995,3.1713,3.1739,3.2796,0.0,3.3175,0.0,0.0,0.0,0.0,0.0,0.0,0.0,0.0,0.0,0.0,0.0,3.4859,3.5371,3.4797,3.4314,3.4,3.367,3.3465,3.3402,3.3402,3.3402,3.3402,3.3402,3.3402,3.3402,3.3402,3.3402,3.3402,3.3402,3.3402,0.0,3.3402,3.3178,3.2812,3.2408,3.266,3.3157,3.2326,3.2445,3.2984,0.0,0.0,0.0,0.0,0.0,0.0,2.6751,2.7336,2.8,2.9012,2.9051,2.8887,2.8663,2.8434,2.8146,0.0,0.0,0.0,0.0,0.0,0.0,0.0,0.0,0.0,0.0,0.0,3.1094,3.1375,3.0889,0.0,0.0,0.0,0.0,0.0,0.0,3.3275,3.3361,3.3354,0.0,0.0,0.0,0.0,0.0,0.0,0.0,0.0,0.0,0.0,0.0,0.0,0.0,0.0,3.6258,3.6277,0.0,0.0,3.802,3.8469,3.8802,3.8756,3.8546,3.827,3.7964,3.7301,3.5608,0.0,3.4164,3.2477,3.1816,3.1611,3.1815,3.1831,3.2006,3.2569,3.3036,0.0,0.0,0.0,0.0,0.0,0.0,0.0,0.0,0.0,0.0,0.0,0.0,3.503,3.5092,3.4267,3.3827,3.3906,3.356,3.3402,3.3402,3.3402,3.3402,3.3402,3.3402,3.3402,3.3402,3.3402,3.3402,3.3402,3.3402,3.3402,0.0,3.3402,3.3415,3.3422,3.3013,3.3313,3.389,3.3295,3.3216,3.3345,0.0,0.0,0.0,0.0,0.0,2.6188,2.7233,2.7876,2.8483,2.9216,2.9203,2.9061,2.8875,2.8767,2.8558,2.8208,0.0,0.0,0.0,0.0,0.0,0.0,0.0,0.0,0.0,0.0,3.1756,3.1998,3.1613,3.1756,0.0,0.0,3.325,3.3845,0.0,0.0,0.0,0.0,0.0,0.0,0.0,0.0,0.0,0.0,0.0,0.0,0.0,0.0,0.0,0.0,0.0,0.0,0.0,0.0,0.0,0.0,3.7918,3.8369,3.8964,3.887,3.8544,3.8374,3.7971,3.7264,0.0,0.0,3.4131,3.2682,3.2025,3.1694,3.1694,3.1925,3.2212,3.2559,3.3236,3.3894,3.4479,0.0,0.0,0.0,0.0,0.0,0.0,0.0,0.0,0.0,0.0,3.5108,3.4766,3.3985,3.3654,3.389,3.356,3.3402,3.3402,3.3402,3.3402,3.3402,3.3402,3.3402,3.3402,3.3402,3.3402,3.3402,3.3402,3.3402,0.0,3.3522,3.3617,3.3704,3.353,3.3831,3.4331,3.4059,3.3862,3.3704,0.0,0.0,0.0,0.0,0.0,0.0,0.0,2.8292,2.8532,2.9202,2.9243,2.9158,2.9017,2.8934,2.8822,2.8609,0.0,0.0,0.0,0.0,0.0,0.0,0.0,0.0,0.0,0.0,3.2643,3.3184,3.2984,3.3217,3.3883,3.375,3.4009,3.4587,0.0,0.0,0.0,0.0,0.0,0.0,0.0,0.0,0.0,0.0,0.0,0.0,0.0,0.0,0.0,0.0,0.0,0.0,0.0,0.0,3.54,0.0,3.7542,3.8077,3.9347,3.9165,3.8602,3.8602,3.7804,3.6731,0.0,0.0,3.3621,3.2608,3.2025,3.1694,3.1694,3.1925,3.2269,3.2804,3.3345,3.3766,3.3985,0.0,0.0,0.0,0.0,0.0,0.0,0.0,0.0,0.0,0.0,0.0,3.4423,3.4079,3.3906,3.3906,3.356,3.3402,3.3402,3.3402,3.3402,3.3402,3.3402,3.3402,3.3402,3.3402,3.3402,3.3402,3.3402,3.3402,0.0,3.3765,3.3658,3.3334,3.3672,3.4009,3.4299,3.4299,3.4209,3.4057,0.0,0.0,0.0,0.0,0.0,0.0,0.0,2.8837,2.9241,2.9418,2.9339,2.9246,2.9202,2.9092,2.903,2.9018,0.0,0.0,0.0,0.0,0.0,0.0,0.0,0.0,0.0,0.0,3.26,3.2717,3.3115,3.3726,3.4527,3.4897,3.5486,3.6229,3.5831,0.0,0.0,0.0,0.0,0.0,0.0,0.0,0.0,0.0,0.0,0.0,0.0,0.0,0.0,0.0,0.0,0.0,0.0,0.0,0.0,3.6133,3.681,0.0,3.8183,3.803,3.7632,3.7632,3.7257,3.6636,3.5765,0.0,3.3858,3.2983,3.2221,3.1814,3.2177,3.2625,3.3075,3.3562,3.4097,3.4467,0.0,0.0,0.0,0.0,0.0,0.0,0.0,0.0,0.0,0.0,3.5092,3.4844,3.475,3.4204,3.3796,3.356,3.3459,3.3402,3.3402,3.3402,3.3402,3.3402,3.3402,3.3402,3.3402,3.3402,3.3402,3.3402,3.3402,3.3528,3.3749,3.3859,3.4093,3.4408,3.4516,3.4764,3.5057,3.5057,3.4648,3.4057,0.0,0.0,0.0,0.0,0.0,0.0,0.0,2.9317,2.961,2.9507,2.9372,2.9291,2.9304,2.9205,2.9145,2.9192,0.0,0.0,0.0,0.0,0.0,0.0,0.0,0.0,0.0,3.2607,3.2652,3.2616,3.2931,3.371,3.492,3.5198,3.5955,3.7105,3.6736,3.6426,0.0,0.0,0.0,0.0,0.0,0.0,3.623,0.0,0.0,0.0,0.0,0.0,0.0,0.0,0.0,0.0,0.0,0.0,0.0,0.0,3.6103,3.6698,0.0,3.7641,3.7262,3.7091,3.6703,0.0,0.0,0.0,3.3606,3.3106,3.2307,3.1863,3.2394,3.2866,3.3314,3.3811,3.4496,0.0,0.0,0.0,0.0,0.0,0.0,0.0,0.0,0.0,0.0,0.0,3.5201,3.4984,3.4719,3.4314,3.3875,3.3402,3.3402,3.3402,3.3402,3.3402,3.3402,3.3402,3.3402,3.3402,3.3402,3.3402,3.3402,3.3412,3.3528,3.3702,0.0,3.4032,3.4407,3.4906,3.4906,3.5005,3.5169,3.5169,3.4605,3.3834,0.0,0.0,0.0,0.0,0.0,0.0,0.0,0.0,2.9652,2.9512,2.9389,2.9301,2.9318,2.9304,2.9292,2.93,0.0,0.0,0.0,0.0,0.0,0.0,0.0,0.0,0.0,3.2743,3.2813,3.2819,3.2599,3.3401,3.5114,3.4891,3.5678,3.7282,3.7095,3.6751,0.0,0.0,0.0,0.0,0.0,0.0,0.0,0.0,0.0,0.0,0.0,0.0,0.0,0.0,0.0,0.0,0.0,0.0,0.0,0.0,0.0,0.0,0.0,3.7742,0.0,0.0,0.0,0.0,0.0,0.0,0.0,3.2968,3.2322,3.1912,3.2454,3.2787,3.3149,3.3696,3.4563,0.0,0.0,0.0,0.0,0.0,0.0,0.0,0.0,0.0,0.0,3.5402,3.5371,3.5092,3.447,3.4407,3.411,3.3481,3.3449,3.3418,3.3402,3.3402,3.3402,3.3402,3.3402,3.3402,3.3402,3.3402,3.3402,0.0,3.3765,3.3906,3.3969,3.4298,3.4606,3.4855,3.4881,3.4821,3.4759,3.4759,3.4195,3.3511,0.0,0.0,0.0,0.0,0.0,0.0,0.0,0.0,0.0,0.0,2.9435,2.9372,2.9383,2.986,3.0215,0.0,0.0,0.0,0.0,0.0,0.0,0.0,0.0,0.0,0.0,3.2936,3.2983,3.2872,3.3277,3.4113,3.5335,3.5466,3.6162,3.7282,3.7095,3.6854,0.0,0.0,0.0,0.0,0.0,0.0,0.0,0.0,0.0,0.0,3.6114,3.5759,0.0,0.0,0.0,0.0,0.0,0.0,0.0,0.0,3.5125,3.5308,3.6496,0.0,3.6232,3.5399,3.5041,3.4719,0.0,0.0,0.0,0.0,0.0,0.0,0.0,0.0,0.0,0.0,0.0,0.0,0.0,0.0,0.0,0.0,0.0,0.0,0.0,0.0,0.0,3.5402,3.5154,3.4953,3.4782,3.4532,3.4329,3.4173,3.3922,3.3654,3.3402,3.3402,3.3402,3.3402,3.3402,3.3402,3.3402,3.3402,3.3528,3.378,3.3875,3.4047,3.4314,3.4641,3.465,3.4467,3.4712,3.4586,3.4257,3.4257,3.4123,3.3905,0.0,0.0,0.0,0.0,0.0,0.0,0.0,0.0,0.0,0.0,0.0,0.0,0.0,0.0,0.0,0.0,0.0,0.0,0.0,0.0,0.0,0.0,0.0,3.3188,3.294,3.3035,3.3032,3.29,3.35,3.4329,3.5312,3.5656,3.6292,3.7198,3.6896,3.6708,0.0,0.0,0.0,0.0,3.5554,0.0,0.0,0.0,0.0,0.0,3.5482,3.5396,0.0,3.5019,3.4677,3.4338,0.0,0.0,0.0,0.0,3.4761,3.4969,3.573,3.6026,3.5932,3.5192,3.4789,3.4418,3.3842,0.0,0.0,0.0,0.0,0.0,0.0,0.0,0.0,0.0,0.0,0.0,0.0,0.0,0.0,0.0,0.0,0.0,0.0,0.0,3.5402,3.5402,3.5232,3.5061,3.4906,3.4735,3.4563,3.4407,3.4063,3.3812,3.3623,3.3481,3.3402,3.3402,3.3402,3.3402,3.3412,3.356,3.3733,3.3922,3.4235,3.4359,3.4379,3.4549,3.4467,3.4219,3.4249,3.405,3.3781,3.3781,3.3642,3.3441,0.0,0.0,0.0,0.0,0.0,0.0,0.0,0.0,0.0,0.0,0.0,0.0,0.0,0.0,0.0,0.0,0.0,0.0,0.0,0.0,0.0,0.0,0.0,3.3357,3.3105,3.3239,3.3215,3.3054,3.3661,3.445,3.5383,3.5654,3.6237,3.7016,3.666,3.6492,0.0,0.0,0.0,0.0,3.5464,0.0,0.0,0.0,0.0,0.0,0.0,0.0,0.0,3.5003,3.4677,3.4338,3.4003,0.0,0.0,0.0,0.0,0.0,3.5277,3.578,3.6031,3.5392,3.4843,3.4345,3.3971,0.0,0.0,0.0,0.0,0.0,0.0,0.0,0.0,0.0,0.0,0.0,0.0,0.0,0.0,0.0,0.0,0.0,0.0,3.489,3.5402,3.5402,3.5402,3.5278,3.4984,3.4984,3.4844,3.4563,3.4235,3.4032,3.3985,3.3591,3.3402,3.3402,3.3402,3.3434,3.3481,3.3765,3.3923,3.3995,0.0,0.0,3.4197,3.4258,3.4142,3.3884,3.3661,3.3458,3.329,3.329,3.3089,3.2867,0.0,0.0,0.0,0.0,0.0,0.0,0.0,0.0,0.0,0.0,0.0,0.0,0.0,0.0,0.0,0.0,0.0,0.0,0.0,0.0,0.0,0.0,3.3737,3.3593,3.3113,3.3814,3.4042,3.3759,3.4359,3.5173,3.6212,3.5875,3.6092,3.675,3.6575,3.6433,3.6332,0.0,0.0,0.0,0.0,0.0,0.0,0.0,0.0,0.0,0.0,0.0,0.0,3.4976,3.4677,3.4338,3.4003,0.0,0.0,0.0,0.0,0.0,3.5238,3.5949,3.6214,3.4879,3.4592,3.4353,3.3185,0.0,0.0,0.0,0.0,0.0,0.0,0.0,0.0,0.0,0.0,0.0,0.0,0.0,0.0,0.0,0.0,0.0,0.0,3.489,3.5402,3.5402,3.5402,3.5371,3.5325,3.5309,3.5294,3.5247,3.4922,3.461,3.4329,3.3717,3.3402,3.3402,3.3402,3.3544,3.3812,3.3875,3.402,3.4248,0.0,3.412,3.3727,3.4011,3.3718,3.3116,3.3336,3.317,3.2816,3.2816,3.3002,3.33,0.0,0.0,0.0,0.0,0.0,0.0,0.0,0.0,0.0,0.0,0.0,0.0,0.0,0.0,0.0,0.0,0.0,0.0,0.0,0.0,0.0,3.3792,3.3822,3.3632,3.316,3.3975,3.4223,3.3857,3.496,3.5784,3.6346,3.6427,3.6558,3.6755,3.6575,3.6477,3.6412,3.6534,3.624,3.5684,0.0,0.0,0.0,0.0,0.0,0.0,0.0,0.0,0.0,0.0,3.4677,3.4338,3.4003,0.0,0.0,0.0,0.0,0.0,3.4838,3.534,3.5672,3.5173,3.5058,3.485,0.0,0.0,0.0,0.0,0.0,0.0,0.0,0.0,0.0,0.0,0.0,0.0,0.0,0.0,0.0,0.0,0.0,0.0,3.4102,3.489,3.5402,3.5402,3.5402,3.5402,3.5402,3.5402,3.5402,3.5402,3.5061,3.4828,3.4673,3.4188,3.3765,3.3402,3.3576,3.3749,3.3896,3.4057,3.4186,3.4304,0.0,3.393,3.3498,3.366,3.3343,3.281,3.2955,3.2888,3.2698,3.2698,3.2847,3.3012,0.0,0.0,0.0,0.0,0.0,0.0,0.0,0.0,0.0,0.0,0.0,0.0,0.0,0.0,0.0,0.0,0.0,0.0,0.0,0.0,3.3927,3.3837,3.3817,3.3719,3.3543,3.426,3.4543,3.4389,3.5689,3.6357,3.6467,3.693,3.7019,3.6763,3.6585,3.6487,3.6444,3.6444,3.626,3.592,0.0,0.0,0.0,0.0,0.0,0.0,0.0,0.0,0.0,0.0,0.0,0.0,0.0,0.0,0.0,3.3474,3.3902,3.4507,3.4507,3.4929,3.5419,3.5584,0.0,0.0,0.0,0.0,0.0,0.0,0.0,0.0,0.0,0.0,0.0,0.0,0.0,0.0,0.0,0.0,0.0,0.0,0.0,3.3978,3.4081,3.4797,3.5288,3.5387,3.5402,3.5402,3.5402,3.5402,3.5402,3.5402,3.5154,3.4984,3.4906,3.4556,3.4135,3.3639,3.3807,3.3914,3.3997,3.4095,3.413,3.4083,3.3987,3.3677,3.3248,3.3248,3.3012,3.2698,3.2698,3.2698,3.2698,3.2698,3.2698,3.2698,0.0,0.0,0.0,0.0,0.0,0.0,0.0,0.0,0.0,0.0,0.0,0.0,0.0,0.0,0.0,0.0,0.0,0.0,0.0,0.0,3.3898,3.3888,3.3825,3.4042,3.4577,3.5016,3.5533,3.6118,3.6669,3.6944,3.6953,3.7171,3.7071,3.6707,3.6554,3.6428,3.6311,3.6311,3.6126,3.5805,3.5666,0.0,0.0,0.0,0.0,0.0,0.0,0.0,0.0,0.0,0.0,0.0,0.0,0.0,3.3862,3.364,3.4011,3.4507,3.4507,3.5337,3.6134,3.5783,3.5253,0.0,3.4711,3.4453,0.0,3.3651,0.0,0.0,0.0,0.0,0.0,0.0,0.0,0.0,0.0,0.0,0.0,0.0,3.3155,3.3625,3.405,3.4547,3.5003,3.5371,3.5402,3.5402,3.5402,3.5402,3.5402,3.5402,3.5371,3.5216,3.4906,3.4508,3.4314,3.4319,3.3964,3.3973,3.4253,3.384,3.3579,3.3457,3.3455,3.3182,3.275,3.275,3.2729,3.2698,3.2698,3.2698,3.2698,3.2698,3.2698,3.2698,0.0,0.0,0.0,0.0,0.0,0.0,0.0,0.0,0.0,0.0,0.0,0.0,0.0,0.0,0.0,0.0,0.0,0.0,0.0,0.0,3.3921,3.3832,3.3777,3.4225,3.5233,3.537,3.5674,3.6179,3.6855,3.7187,3.7187,3.7179,3.7253,3.7342,3.669,3.6608,3.6941,3.6485,3.6115,3.5772,3.556,3.53,0.0,0.0,0.0,0.0,0.0,0.0,0.0,0.0,3.4833,3.4439,3.4097,3.3934,3.3845,3.3509,3.392,3.445,3.4194,3.4868,3.5594,3.5519,3.5139,0.0,0.0,3.5052,3.4707,3.4201,3.3718,0.0,0.0,0.0,0.0,0.0,0.0,0.0,0.0,0.0,0.0,3.3036,3.325,3.348,3.3656,3.435,3.4858,3.5024,3.5262,3.5402,3.5402,3.5402,3.5402,3.5402,3.5159,3.4866,3.4529,3.4291,3.4241,3.4319,3.3887,3.3734,3.386,3.3593,3.3456,3.3372,3.3089,3.2867,3.2698,3.2698,3.2698,3.2698,3.2698,3.2698,3.2698,3.2698,3.2698,3.2698,0.0,0.0,0.0,0.0,0.0,0.0,0.0,0.0,0.0,0.0,0.0,0.0,0.0,0.0,0.0,0.0,0.0,0.0,3.3969,3.3966,3.3924,3.3847,3.3729,3.4309,3.567,3.5522,3.5777,3.6474,3.698,3.7193,3.7143,3.7097,3.7284,3.7621,3.664,3.6614,3.7252,3.643,3.5948,3.5711,3.5402,3.5301,0.0,0.0,0.0,0.0,0.0,0.0,0.0,0.0,3.4866,3.4498,3.4097,3.3925,3.3836,3.3492,3.395,3.4516,3.4337,3.4688,3.5206,3.5662,0.0,0.0,3.546,3.5332,3.4969,3.4594,3.427,0.0,0.0,0.0,0.0,0.0,0.0,0.0,0.0,0.0,3.3438,3.3349,3.3326,3.3393,3.3514,3.4032,3.4428,3.4558,3.4832,3.4993,3.4993,3.4993,3.4947,3.484,3.4557,3.4311,3.4084,3.3988,3.4048,3.4226,3.3759,3.3605,3.3754,3.3512,3.331,3.3161,3.2847,3.2698,3.2698,3.2698,3.2698,3.2698,3.2698,3.2698,3.2698,3.2698,3.2791,3.2919,0.0,0.0,0.0,0.0,0.0,0.0,0.0,0.0,0.0,0.0,0.0,0.0,0.0,0.0,0.0,0.0,0.0,0.0,3.4102,3.3972,3.3895,3.3895,3.3705,3.4328,3.5867,3.5514,3.5967,3.7292,3.7174,3.6996,3.6796,3.6943,3.7149,3.7362,3.6438,3.6425,3.7035,3.6045,3.56,3.5566,3.516,3.5054,3.5127,0.0,0.0,0.0,0.0,0.0,0.0,0.0,3.4902,3.481,3.4272,3.4005,3.3862,3.3657,3.4122,3.4759,3.501,3.4991,0.0,0.0,0.0,0.0,3.547,3.5187,3.4799,3.4787,0.0,3.4539,3.3736,0.0,0.0,0.0,0.0,0.0,0.0,3.41,3.3974,3.3639,3.3353,3.3357,3.3754,3.3539,3.3594,3.405,3.4102,3.4102,3.4102,3.4102,3.3943,3.3615,3.36,3.36,3.3589,3.3589,3.3754,3.4081,3.3625,3.3646,3.4071,3.3615,3.3141,3.2698,3.2708,3.2708,3.2698,3.2698,3.2698,3.2698,3.2698,3.2698,3.2708,3.2708,3.2992,3.3418,0.0,0.0,0.0,0.0,0.0,0.0,0.0,0.0,0.0,0.0,0.0,0.0,0.0,0.0,0.0,0.0,0.0,0.0,3.4027,3.3947,3.3875,3.3825,3.4271,3.4815,3.547,3.619,3.681,3.7292,3.7174,3.6996,3.6803,3.7314,3.7709,3.7946,3.7461,3.7448,3.7665,3.675,3.5866,3.5071,3.5468,3.5485,3.5295,0.0,0.0,0.0,0.0,0.0,0.0,0.0,0.0,0.0,3.4131,3.3925,3.3836,3.3492,3.4037,3.4655,3.4122,3.4937,0.0,0.0,0.0,0.0,0.0,3.5596,0.0,0.0,0.0,3.3825,3.34,0.0,0.0,3.4203,3.4362,3.4468,3.4384,3.4227,3.3974,3.3639,3.3353,3.3146,3.3042,3.3246,3.346,3.3605,3.3915,3.4102,3.4102,3.4102,3.4057,3.3943,3.3633,3.3341,3.3105,3.2828,3.2872,3.3252,3.3104,3.3236,3.3605,3.3455,3.3141,3.2719,3.3058,3.3016,3.2698,3.2698,3.2698,3.2698,3.2698,3.2899,3.3182,3.3182,3.3486,3.3895,0.0,0.0,0.0,0.0,0.0,0.0,0.0,0.0,0.0,0.0,0.0,0.0,0.0,0.0,0.0,0.0,0.0,0.0,0.0,3.3934,3.387,3.3766,3.441,3.5046,3.5611,3.6643,3.7135,3.7064,3.6987,3.6846,3.6687,3.696,3.7423,3.8022,3.7474,3.7477,3.7815,3.6776,3.5839,3.5095,3.5334,3.5468,3.5568,0.0,0.0,0.0,0.0,0.0,0.0,0.0,0.0,0.0,3.4142,3.3934,3.3879,3.3806,3.4339,3.4903,3.4609,0.0,0.0,0.0,0.0,0.0,0.0,0.0,0.0,0.0,0.0,3.3797,3.3524,3.3927,0.0,3.431,3.4424,3.4496,3.4496,3.4269,3.403,3.3819,3.3438,3.3122,3.2922,3.3022,3.312,3.312,3.3379,3.3534,3.3534,3.3534,3.3505,3.3392,3.3109,3.2864,3.266,3.2583,3.2733,3.3101,3.3101,3.3204,3.3408,3.3408,3.3141,3.2719,3.2992,3.2961,3.2698,3.2698,3.2801,3.2971,3.2971,3.3141,3.3414,3.3615,3.3864,3.4123,0.0,0.0,0.0,0.0,0.0,0.0,0.0,0.0,0.0,0.0,2.9948,0.0,0.0,0.0,0.0,0.0,0.0,0.0,0.0,0.0,3.3825,3.3705,3.4334,3.5164,3.6204,3.6911,3.708,3.6686,3.6686,3.6608,3.6466,3.6229,3.6712,3.7744,3.6894,3.6975,3.7698,3.6437,3.5758,3.553,3.5069,3.5296,3.5849,3.5605,0.0,0.0,0.0,0.0,0.0,0.0,0.0,0.0,3.4264,3.3997,3.3936,3.4312,3.4802,3.5314,3.581,0.0,0.0,0.0,0.0,0.0,0.0,0.0,0.0,0.0,0.0,0.0,0.0,0.0,3.4841,3.4551,3.4496,3.4496,3.4496,3.4269,3.4097,3.4069,3.3547,3.3193,3.315,3.288,3.2698,3.2698,3.2698,3.2698,3.2698,3.2698,3.2584,3.2344,3.2344,3.2344,3.2344,3.2675,3.3011,3.3331,3.3317,3.3317,3.3331,3.3387,3.3161,3.276,3.276,3.276,3.277,3.2801,3.3089,3.3455,3.3455,3.3491,3.3584,3.4009,3.4164,3.4226,0.0,0.0,0.0,0.0,0.0,0.0,0.0,0.0,0.0,0.0,0.0,0.0,0.0,0.0,0.0,0.0,0.0,0.0,0.0,0.0,3.3793,3.3702,3.4725,3.5884,3.7091,3.714,3.6955,3.6534,3.6534,3.6445,3.6268,3.6673,3.7166,3.771,3.739,3.7687,3.8334,3.7103,3.6381,3.6073,3.6279,3.6116,3.5785,3.6137,3.6159,0.0,0.0,0.0,0.0,0.0,0.0,0.0,3.4187,3.3902,3.3677,3.3761,3.4539,3.5268,3.4868,3.5746,0.0,0.0,0.0,0.0,0.0,0.0,0.0,0.0,0.0,0.0,0.0,3.4005,3.4579,3.451,3.4496,3.4496,3.4496,3.4269,3.4002,3.3749,3.3409,3.3108,3.2826,3.2741,3.2698,3.2698,3.2698,3.2698,3.2698,3.2698,3.2669,3.2627,3.2612,3.2612,3.2612,3.2494,3.2574,3.2843,3.2646,3.2646,3.2867,3.3238,3.3341,3.3248,3.3248,3.3248,3.3279,3.3642,3.3864,3.3946,3.3946,3.4174,3.4506,3.4614,3.4656,3.4703,0.0,0.0,0.0,0.0,0.0,0.0,0.0,0.0,0.0,0.0,0.0,0.0,0.0,0.0,0.0,0.0,0.0,0.0,0.0,0.0,3.4072,3.4585,3.5467,3.6332,3.7183,3.7014,3.6738,3.6351,3.6235,3.6112,3.601,3.6457,3.6973,3.7528,3.7669,3.7946,3.8194,3.7248,3.6649,3.6346,3.6291,3.6141,3.5953,3.6174,3.6092,3.5831,3.5661,0.0,0.0,0.0,0.0,0.0,0.0,0.0,3.3792,3.4082,3.4599,3.5072,0.0,0.0,0.0,0.0,0.0,0.0,0.0,0.0,0.0,0.0,0.0,0.0,0.0,3.418,3.4688,3.4524,3.4496,3.4496,3.4496,3.4128,3.3805,3.3611,3.3225,3.2884,3.2723,3.2698,3.2698,3.2698,3.2698,3.2698,3.2698,3.2698,3.2698,3.2698,3.2698,3.2698,3.2698,3.2569,3.2569,3.2698,3.2569,3.2569,3.2708,3.295,3.3068,3.3068,3.3068,3.3182,3.3428,3.3667,3.4029,3.4448,3.4448,3.4578,3.4817,3.5019,3.4972,3.4832,0.0,0.0,0.0,0.0,0.0,0.0,0.0,0.0,0.0,0.0,0.0,0.0,0.0,0.0,0.0,0.0,0.0,0.0,0.0,0.0,0.0,3.5764,3.6146,3.6565,3.7001,3.6753,3.6473,3.6122,3.5861,3.5717,3.5689,3.6062,3.6597,3.7267,3.7619,3.7873,3.7995,3.7189,3.6791,3.6663,3.614,3.6037,3.6195,3.6045,3.5879,3.5672,3.5554,3.5367,3.5164,3.4968,0.0,0.0,0.0,0.0,3.3953,3.4484,3.4673,3.4844,0.0,0.0,0.0,0.0,0.0,0.0,0.0,0.0,0.0,0.0,0.0,0.0,0.0,3.4358,3.4728,3.4527,3.4496,3.4496,3.4496,3.3977,3.3597,3.3597,3.3069,3.2698,3.2698,3.2698,3.2698,3.2698,3.2698,3.2698,3.2698,3.2698,3.2698,3.2698,3.2698,3.2698,3.2698,3.2698,3.2698,3.2698,3.2698,3.2698,3.2698,3.2698,3.2698,3.2708,3.2795,3.3047,3.3404,3.3574,3.4102,3.4811,3.4879,3.4899,3.4941,3.5278,3.5086,3.4697,0.0,0.0,0.0,0.0,0.0,0.0,0.0,0.0,0.0,0.0,0.0,0.0,0.0,0.0,0.0,0.0,0.0,0.0,0.0,0.0,0.0,3.6586,3.6319,3.644,3.7071,3.6607,3.6196,3.585,3.5588,0.0,0.0,0.0,0.0,3.7033,3.6861,3.7488,3.8588,3.7224,3.6994,3.7499,3.7017,3.6569,3.6195,3.6045,3.5879,3.5672,3.5554,3.5367,3.5164,3.4968,3.4693,0.0,0.0,0.0,3.368,3.3953,3.4339,3.4729,0.0,0.0,0.0,0.0,0.0,0.0,0.0,0.0,0.0,0.0,0.0,0.0,3.3522,3.3773,3.4087,3.4444,3.4496,3.4496,3.4496,3.3977,3.3597,3.3597,3.3069,3.2698,3.2698,3.2698,3.2698,3.2698,3.2698,3.2698,3.2698,3.2698,3.2698,3.2698,3.2698,3.2698,3.2698,3.2698,3.2698,3.2698,3.2698,3.2698,3.2698,3.2698,3.2698,3.2719,3.313,3.3341,3.3455,3.4278,3.4697,3.4827,3.518,3.5319,3.533,3.5381,3.489,3.4247,0.0,0.0,0.0,0.0,0.0,0.0,0.0,0.0,0.0,0.0,0.0,0.0,0.0,0.0,0.0,0.0,0.0,0.0,0.0,0.0,0.0,3.6551,3.6637,3.6754,3.6928,3.6406,3.6024,3.5795,3.5498,0.0,0.0,3.6336,3.6775,0.0,0.0,3.8042,3.8362,3.7553,3.7246,3.7264,3.677,3.6637,3.6683,3.6071,3.5961,3.6084,3.5527,3.5154,3.4914,3.4817,3.454,3.4221,3.4221,0.0,0.0,0.0,3.3747,0.0,3.4096,0.0,0.0,0.0,0.0,0.0,0.0,0.0,0.0,0.0,0.0,3.3397,3.3864,3.3988,3.4123,3.4447,3.4496,3.4496,3.4496,3.3977,3.3667,3.3861,3.3182,3.278,3.2965,3.2812,3.2769,3.2965,3.2808,3.2769,3.2965,3.2808,3.2698,3.2698,3.2698,3.2698,3.2698,3.2698,3.2698,3.2698,3.2698,3.2698,3.2698,3.2698,3.2698,3.2719,3.2919,3.3165,3.3439,3.3843,3.4334,3.4821,3.4988,3.52,3.5371,3.5148,3.4827,3.4459,0.0,0.0,0.0,0.0,0.0,0.0,0.0,0.0,0.0,0.0,0.0,0.0,0.0,0.0,0.0,0.0,0.0,0.0,0.0,0.0,0.0,3.6725,3.6894,3.6918,3.6801,3.6249,3.5861,3.5689,0.0,0.0,3.5976,3.6708,3.7045,0.0,3.8119,3.842,0.0,0.0,3.7338,3.7014,3.6715,3.6777,3.7027,3.649,3.6467,3.6613,3.5755,3.5292,3.5035,3.4731,3.4422,3.4162,3.4082,3.3833,0.0,0.0,0.0,0.0,0.0,0.0,0.0,0.0,0.0,0.0,0.0,0.0,0.0,0.0,3.3755,3.3558,3.412,3.402,3.3954,3.4267,3.4324,3.4354,3.4474,3.4047,3.3819,3.4058,3.3409,3.2998,3.3179,3.2965,3.2908,3.3065,3.2922,3.2908,3.3065,3.2983,3.2898,3.2826,3.2884,3.2898,3.2826,3.2741,3.2698,3.2698,3.2698,3.2698,3.2698,3.2698,3.2698,3.2698,3.2698,3.2956,3.3354,3.3395,3.3929,3.4725,3.4774,3.505,3.535,3.4951,3.4713,3.4495,0.0,0.0,0.0,0.0,0.0,0.0,0.0,0.0,0.0,0.0,0.0,0.0,0.0,3.4209,3.4485,3.5203,3.5135,3.5574,3.6805,3.666,3.6862,3.76,3.6995,0.0,3.6791,3.6142,3.5678,3.5424,0.0,0.0,3.5834,3.6944,3.7462,3.7481,3.7808,3.811,3.8321,0.0,0.0,3.7203,3.7515,3.7254,0.0,0.0,0.0,0.0,0.0,0.0,3.5944,3.4803,3.4397,3.4329,3.4011,0.0,0.0,0.0,0.0,0.0,0.0,0.0,0.0,0.0,0.0,0.0,0.0,0.0,0.0,0.0,3.3954,3.367,3.396,3.3392,3.3073,3.3737,3.3835,3.3988,3.4444,3.4255,3.4072,3.41,3.3777,3.3466,3.3221,3.3179,3.3051,3.2741,3.3008,3.3051,3.2741,3.3243,3.3438,3.3179,3.3423,3.3438,3.3179,3.2855,3.2698,3.2698,3.2698,3.2698,3.2698,3.2698,3.2698,3.2698,3.2698,3.289,3.3213,3.3358,3.3849,3.4525,3.473,3.505,3.535,3.4951,3.4516,3.4071,0.0,0.0,0.0,0.0,0.0,0.0,0.0,0.0,0.0,0.0,0.0,0.0,0.0,3.453,3.4928,3.5278,3.5965,3.6491,3.6721,3.704,3.7227,3.7252,3.6826,3.6553,3.6489,3.5866,3.5509,0.0,0.0,3.6046,3.6324,3.7129,3.7662,3.7956,3.822,3.8125,3.7742,3.7396,0.0,0.0,0.0,0.0,0.0,0.0,0.0,0.0,0.0,0.0,0.0,3.5001,3.4422,0.0,0.0,0.0,0.0,0.0,0.0,0.0,0.0,0.0,0.0,0.0,0.0,0.0,0.0,0.0,0.0,0.0,3.3915,3.3589,3.3334,3.316,3.3183,3.3543,3.3611,3.3711,3.4002,3.3778,3.3786,3.4295,3.3907,3.365,3.3773,3.3579,3.3494,3.3593,3.3508,3.3494,3.3593,3.3607,3.348,3.3207,3.3292,3.3182,3.288,3.2755,3.2698,3.2698,3.2698,3.2698,3.2698,3.2698,3.2698,3.2698,3.2698,3.278,3.2904,3.3161,3.3484,3.3849,3.4391,3.476,3.4957,3.4516,3.4236,3.4029,0.0,0.0,0.0,0.0,0.0,0.0,0.0,0.0,0.0,0.0,0.0,0.0,0.0,0.0,3.5564,3.5785,3.6761,3.7236,3.6893,3.721,3.7336,3.7114,3.6708,3.6442,3.6306,3.5705,3.5479,3.5603,3.5957,0.0,0.0,3.7466,3.7924,3.8273,3.8212,3.7909,0.0,0.0,0.0,3.6162,0.0,0.0,3.7309,0.0,0.0,0.0,0.0,0.0,0.0,0.0,0.0,0.0,0.0,0.0,0.0,0.0,0.0,0.0,0.0,0.0,0.0,0.0,0.0,0.0,0.0,0.0,0.0,3.4151,3.3964,3.3667,3.313,3.3141,3.327,3.3383,3.3316,3.34,3.3781,3.3486,3.3521,3.4315,3.3978,3.3777,3.4076,3.3904,3.3819,3.3918,3.3833,0.0,3.3932,3.3907,3.3822,3.3636,3.3438,3.3225,3.2998,3.2798,3.2698,3.2698,3.2698,3.2698,3.2698,3.2698,3.2698,3.2708,3.2823,3.2912,3.3012,3.315,3.3398,3.373,3.4121,3.4475,3.4713,3.4091,3.406,3.4247,0.0,0.0,0.0,0.0,0.0,0.0,0.0,0.0,0.0,3.3827,0.0,0.0,0.0,0.0,0.0,3.6797,3.7462,3.7739,3.7402,3.7214,3.7142,3.7263,3.6642,3.6296,3.6314,3.5717,3.5619,3.6025,3.6557,3.7046,3.7517,3.799,3.8273,3.8365,3.7682,3.7387,3.7343,0.0,3.6368,3.5994,0.0,3.7162,3.6121,0.0,0.0,0.0,3.6954,3.7044,0.0,3.638,0.0,0.0,0.0,0.0,0.0,0.0,0.0,0.0,0.0,0.0,0.0,0.0,0.0,0.0,3.3777,0.0,0.0,3.4069,3.4076,3.3915,3.3393,3.3293,3.3278,3.3208,3.2988,3.3051,3.3788,3.3422,3.3371,3.4085,3.3961,3.3859,3.4042,3.4107,3.3966,3.3632,3.3935,3.3974,3.3639,3.4174,3.4482,3.4482,3.3907,3.3597,3.3597,3.3026,3.2727,3.2727,3.2723,3.2712,3.2712,3.2698,3.2698,3.2723,3.3051,3.3338,3.3583,3.3324,3.3641,3.423,3.3937,3.4214,3.4676,3.376,3.4009,3.4676,0.0,0.0,0.0,0.0,0.0,0.0,0.0,3.3643,3.3841,0.0,0.0,0.0,3.5399,3.6029,3.6688,3.7318,3.7474,3.7443,3.7204,3.7137,3.6935,3.6591,3.6305,3.629,3.6582,3.6097,3.6134,3.6723,3.7108,3.737,3.7517,3.799,3.8135,0.0,3.7492,3.7066,3.6723,3.6305,0.0,0.0,3.6877,3.7184,0.0,0.0,0.0,0.0,0.0,3.7404,3.6937,0.0,3.582,3.4546,0.0,0.0,0.0,0.0,0.0,0.0,3.1973,0.0,0.0,0.0,0.0,0.0,0.0,0.0,0.0,3.3548,3.3522,3.3481,3.3331,3.3293,3.3289,3.3276,3.3046,3.2987,3.3341,3.3265,3.3299,3.365,3.3799,3.3736,3.341,3.4026,3.4263,0.0,3.4379,3.4604,3.4272,3.4227,3.4213,3.4213,3.3819,3.3597,3.3597,3.3427,3.3353,3.3353,3.3154,3.3065,3.3051,3.2812,3.2698,3.2723,3.3051,3.3338,3.3611,3.3777,3.371,3.3542,3.3994,3.4232,3.4257,3.3998,3.4293,3.4703,0.0,0.0,0.0,0.0,0.0,0.0,3.4026,3.4302,3.4669,0.0,0.0,0.0,3.6454,3.6784,3.7073,3.738,3.7318,3.7137,3.6786,3.6761,3.6713,3.661,3.6386,3.6491,3.6972,3.6598,3.6653,3.7219,3.7356,3.756,3.779,3.7928,3.7874,3.7661,0.0,0.0,0.0,0.0,0.0,0.0,3.6536,0.0,0.0,3.7831,3.8244,0.0,0.0,0.0,3.7723,3.7562,3.6331,0.0,0.0,0.0,0.0,0.0,0.0,0.0,0.0,0.0,0.0,0.0,0.0,0.0,3.2924,3.3191,3.347,0.0,3.3544,3.3431,3.3318,3.3293,3.3293,3.3293,3.318,3.3108,3.3227,3.3057,3.307,3.3496,3.3578,3.3564,3.346,3.3953,3.4173,3.3875,3.4165,3.4323,3.4207,3.4383,3.4409,3.4269,3.3974,3.3819,3.3819,3.3667,3.3597,3.3597,3.3324,3.3193,3.3193,3.2851,3.2769,3.2937,3.3225,3.3537,3.3833,3.4142,3.3988,3.3597,3.3891,3.4115,3.4234,3.3918,3.434,3.4988,0.0,0.0,0.0,3.3814,3.4352,3.4783,3.4722,3.5318,3.5752,0.0,3.6388,3.7055,3.7573,3.7563,3.7423,3.7202,3.7173,3.6996,3.6553,3.6549,3.6701,3.7053,3.6765,3.6882,3.7452,3.7144,3.7177,3.7621,3.7471,3.7679,3.8194,3.7817,3.7567,3.7402,0.0,0.0,0.0,0.0,0.0,3.5083,3.6366,3.6383,0.0,0.0,3.7582,3.7422,3.7404,3.8102,3.8924,3.8283,3.7172,0.0,0.0,0.0,0.0,0.0,3.2028,0.0,0.0,0.0,0.0,0.0,0.0,0.0,3.3206,3.3266,3.3265,0.0,0.0,3.348,3.3221,3.3171,3.3158,3.3145,3.3179,3.3225,3.3293,3.2894,3.2814,3.3457,3.3347,3.3348,3.3705,3.3847,3.3881,3.3828,3.3619,3.3609,3.3879,3.4535,3.4814,3.4607,3.4367,3.4227,3.4199,3.3893,3.3738,3.3696,3.3381,3.3264,3.3292,3.2912,3.2937,3.3264,3.3537,3.3819,3.4114,3.4384,3.4339,3.4058,3.3777,3.4016,3.4473,3.3772,3.4334,3.5386,0.0,0.0,0.0,3.5527,3.5504,3.5484,3.5423,3.5499,3.5774,3.6405,3.6952,3.7247,3.7147,3.7024,3.7154,3.7613,3.765,3.7754,3.7978,3.804,3.7883,3.7501,3.7324,3.7467,3.7952,3.758,3.7715,3.84,3.8132,3.8085,3.8194,3.7589,3.741,3.7589,3.6391,0.0,0.0,0.0,0.0,3.553,3.6336,0.0,3.7254,3.8038,3.8303,3.8247,3.8075,3.7986,3.7839,3.7394,3.7463,3.7453,0.0,0.0,0.0,0.0,0.0,0.0,0.0,0.0,0.0,0.0,0.0,0.0,3.2304,3.2434,3.2534,0.0,3.2618,3.2651,3.2377,3.2329,3.2281,3.2124,3.241,3.2812,3.3236,3.3206,3.3115,3.3054,3.3179,3.3151,3.2811,3.3504,3.3794,3.3365,3.3444,3.3783,3.44,3.4398,3.4617,3.5207,3.5174,3.5035,3.4838,3.4769,3.459,3.4314,3.3791,3.3664,3.3914,3.3338,3.3264,3.3537,3.3861,3.403,3.4114,3.4384,3.4339,3.4086,3.403,3.4372,3.484,3.4435,3.4935,3.5705,0.0,0.0,0.0,3.5818,3.5963,3.6078,3.6003,3.6301,3.6665,3.6952,3.7434,3.7693,3.7524,3.7701,3.7971,3.8269,3.8185,3.8092,3.8103,3.7945,3.7846,3.7803,3.7644,3.7794,3.8339,3.8092,3.8098,3.8391,3.8108,3.7905,3.7786,3.7493,3.7398,3.7413,3.6396,3.5981,0.0,0.0,3.5682,3.5865,3.6646,0.0,3.7507,3.8003,3.8203,3.8204,3.8313,3.8427,3.8556,3.8556,3.8393,0.0,0.0,3.6181,3.5872,0.0,3.3357,3.3341,0.0,0.0,0.0,3.3064,0.0,0.0,0.0,3.2499,3.2425,3.2493,3.2511,3.2453,3.2323,3.2194,3.2064,3.1969,3.2264,3.2593,3.2857,3.3133,3.3243,3.313,3.3218,3.3193,3.2931,3.3349,3.3484,3.3077,3.3477,3.3795,3.3897,3.4379,3.4759,3.4992,3.5261,3.534,3.5202,3.5202,3.5119,3.4941,3.4342,3.4132,3.4283,3.3664,3.3565,3.3861,3.403,3.4185,3.4311,3.444,3.452,3.452,3.4367,3.4436,3.467,3.4732,3.5007,3.5326,3.5238,0.0,0.0,3.6083,3.6422,3.6688,3.664,3.7148,3.7528,3.7458,3.79,3.8222,3.8284,0.0,0.0,0.0,3.9037,3.8744,0.0,0.0,3.7989,3.8387,3.8039,3.8144,3.8804,3.8487,3.825,3.8135,3.781,3.7567,3.7402,3.7337,3.7218,3.7046,3.6482,3.6136,0.0,0.0,0.0,3.6322,0.0,3.7421,3.7387,3.7723,3.7906,3.805,3.8338,3.8868,3.945,3.9575,3.9057,3.8146,3.7081,3.6665,0.0,0.0,0.0,0.0,0.0,0.0,0.0,0.0,0.0,3.2224,0.0,0.0,0.0,3.2623,3.2498,3.2335,0.0,3.2055,0.0,0.0,0.0,0.0,0.0,3.2604,0.0,3.327,3.3293,3.3293,3.3293,3.3293,3.3206,3.2992,3.3484,3.367,3.3363,3.4274,3.4794,3.4773,3.5189,3.5446,3.5478,3.5478,3.545,3.5384,3.4844,3.4593,3.4579,3.4019,3.3918,3.4185,3.4185,3.4297,3.4496,3.4496,3.4702,3.4977,3.4702,3.4621,3.4683,3.5032,3.5128,3.5106,3.6715,3.729,0.0,0.0,3.7591,3.7474,3.7461,3.7398,3.7501,3.7943,3.8373,0.0,0.0,0.0,0.0,0.0,0.0,0.0,4.0221,0.0,0.0,3.9866,3.887,3.8715,3.9549,3.8506,3.7955,3.7941,3.7595,3.7417,3.7387,3.6861,3.6592,3.6575,3.6432,0.0,0.0,0.0,3.7295,0.0,3.7835,3.7875,0.0,3.7625,3.7967,3.8414,3.8274,3.8655,3.9096,0.0,3.8296,3.8599,0.0,3.8058,3.8729,3.5567,0.0,0.0,0.0,0.0,0.0,0.0,3.3208,0.0,0.0,0.0,3.2002,3.1874,0.0,3.1719,3.1473,0.0,0.0,0.0,0.0,0.0,3.0526,3.133,3.2295,3.319,3.3293,3.3293,3.3293,3.3293,3.3281,3.3256,3.3113,3.3279,3.3879,3.3824,3.4264,3.5365,3.5457,3.5562,3.5756,3.5756,3.5632,3.5409,3.5091,3.4938,3.4924,3.4551,3.4412,3.4454,3.4454,3.4468,3.4496,3.4496,3.4702,3.5005,3.4963,3.5337,3.5888,3.5815,3.5856,3.5973,3.6738,3.731,0.0,0.0,3.7462,3.7308,3.7308,3.7541,3.7897,3.8441,3.9029,0.0,0.0,0.0,0.0,0.0,0.0,4.0899,0.0,0.0,0.0,0.0,0.0,0.0,3.8653,3.7966,3.7566,3.7492,3.727,3.7112,3.699,3.6654,3.6535,3.6598,3.6339,0.0,3.7002,0.0,3.7769,0.0,0.0,0.0,0.0,3.8027,3.8594,3.9233,3.9166,3.9314,3.9477,0.0,3.8774,0.0,0.0,0.0,0.0,0.0,0.0,0.0,0.0,0.0,0.0,0.0,0.0,0.0,3.2515,0.0,3.1882,0.0,0.0,0.0,0.0,0.0,0.0,0.0,3.1005,0.0,0.0,0.0,3.2094,0.0,0.0,0.0,3.2812,3.311,3.3293,3.3293,3.3205,3.3398,3.3968,3.4187,3.4667,3.547,3.5807,3.6005,3.61,3.6086,3.6032,3.5909,3.5604,3.5381,3.5216,3.4924,3.4688,3.4496,3.4496,3.4607,3.4785,3.4785,3.5063,3.5453,3.5453,3.5452,3.5521,3.6016,3.5874,3.555,3.7019,0.0,0.0,0.0,0.0,3.7472,3.7624,0.0,0.0,0.0,0.0,0.0,4.0101,4.0748,0.0,0.0,4.1443,4.138,0.0,0.0,4.019,0.0,0.0,0.0,0.0,3.7711,3.7284,3.715,3.6991,3.6839,3.67,3.6461,3.6359,3.6343,0.0,3.6709,3.7297,0.0,3.8057,3.7734,3.8393,3.8595,3.8537,3.8768,3.9243,3.9809,3.9809,3.9809,3.9757,3.9525,3.9078,0.0,3.7921,0.0,0.0,0.0,0.0,0.0,3.4211,0.0,0.0,0.0,0.0,0.0,0.0,0.0,0.0,0.0,0.0,0.0,0.0,0.0,3.1215,0.0,0.0,3.1409,0.0,3.1495,0.0,0.0,0.0,0.0,0.0,3.2814,3.3133,3.3294,3.342,3.3707,3.4188,3.459,3.5026,3.5495,3.5889,3.6155,3.6293,3.6293,3.6293,3.6293,3.6045,3.5756,3.5384,3.5202,3.4883,3.451,3.4593,3.4785,3.5005,3.5005,3.5326,3.5783,3.5714,3.5505,3.5313,3.6193,3.5972,3.5386,3.8088,3.7797,0.0,0.0,0.0,0.0,0.0,0.0,0.0,0.0,0.0,0.0,0.0,0.0,0.0,0.0,0.0,4.2621,4.1673,0.0,4.1246,0.0,0.0,3.9209,0.0,3.8074,3.7142,3.7015,3.6816,3.6716,3.6693,3.6234,3.5807,3.5489,3.6582,3.6801,3.6449,3.7873,3.8269,3.7939,3.8548,3.9287,4.0014,0.0,3.9778,3.9809,3.9809,0.0,0.0,3.8831,3.8693,0.0,0.0,0.0,0.0,0.0,0.0,0.0,0.0,0.0,0.0,3.4098,0.0,0.0,0.0,0.0,3.2955,0.0,0.0,0.0,3.2378,3.1794,0.0,0.0,0.0,0.0,0.0,0.0,0.0,0.0,0.0,0.0,0.0,3.2358,3.2742,0.0,3.3717,3.4211,3.475,3.4796,3.5026,3.5495,3.5518,3.5772,3.6293,3.6293,3.6293,3.6293,3.6279,3.5977,3.5409,3.5395,3.5063,3.4524,3.4841,3.4991,3.5005,3.5005,3.5326,3.5769,3.5508,3.5549,3.5866,3.6538,3.6407,3.6016,0.0,0.0,0.0,0.0,0.0,0.0,0.0,3.9398,0.0,0.0,0.0,0.0,0.0,4.1858,4.2019,0.0,0.0,4.2102,4.2252,4.1661,0.0,0.0,0.0,3.9359,0.0,3.809,3.7382,3.6677,3.66,3.6577,3.6569,3.6179,3.5945,3.5895,3.6447,3.694,0.0,0.0,0.0,0.0,0.0,3.9282,3.9091,0.0,4.0052,4.0403,4.0403,4.0136,0.0,3.9459,3.8946,3.8397,3.8172,3.7875,3.7549,3.7096,3.6085,3.5097,0.0,0.0,3.3879,3.3394,0.0,0.0,0.0,0.0,0.0,0.0,0.0,0.0,0.0,0.0,0.0,0.0,0.0,0.0,0.0,0.0,0.0,0.0,0.0,0.0,0.0,0.0,0.0,0.0,3.3248,3.3914,3.475,3.4796,3.5175,3.6004,3.6027,3.6121,3.6293,3.6293,3.6293,3.6293,3.6293,3.6073,3.5659,3.5478,3.5188,3.4841,3.4949,3.5005,3.5019,3.5188,3.5478,3.5783,3.5701,3.5714,3.5866,3.6353,3.6262,3.6001,3.9388,0.0,0.0,0.0,0.0,0.0,0.0,0.0,0.0,0.0,4.1236,0.0,4.1656,0.0,4.1621,0.0,4.1783,4.1913,4.2396,4.1844,0.0,4.1517,4.0711,0.0,0.0,0.0,3.7545,3.6633,3.6552,3.6499,3.6484,3.6177,3.6062,3.6105,3.6423,3.7028,3.7839,0.0,3.9004,0.0,0.0,3.9589,0.0,0.0,4.0118,4.03,0.0,4.0345,4.0009,4.0009,3.9486,3.884,3.8818,3.8201,3.7496,3.7599,3.6428,3.5136,3.5305,3.5086,0.0,3.3942,3.4466,0.0,3.4639,0.0,3.4382,0.0,0.0,0.0,0.0,0.0,0.0,0.0,0.0,0.0,0.0,3.2416,0.0,0.0,0.0,0.0,0.0,0.0,3.219,3.2742,3.3098,3.381,0.0,3.5047,3.5428,3.627,3.6293,3.6293,3.6293,3.6293,3.6293,3.6293,3.6293,3.6127,3.5783,3.5519,3.5312,3.5132,3.5132,3.5202,3.5298,3.5478,3.5714,3.595,3.5742,3.5659,3.5728,3.631,3.6497,3.6474,0.0,0.0,0.0,0.0,3.9313,0.0,0.0,0.0,4.0932,0.0,4.1225,4.1366,4.1192,4.1553,4.1682,4.1367,4.1797,4.2077,4.2061,4.1947,0.0,0.0,4.1198,4.0408,3.9532,0.0,0.0,3.6927,3.668,3.6538,3.6499,3.6259,3.6149,3.6153,3.6563,0.0,3.7672,3.8238,3.878,3.928,3.9675,4.0157,4.0606,4.0436,3.9995,3.9542,4.0151,4.0388,4.0388,4.0388,4.0198,3.991,3.9547,3.8513,3.7448,3.7404,3.6173,3.5035,3.601,3.5732,3.5255,3.5639,3.5923,0.0,0.0,0.0,3.6717,0.0,0.0,0.0,0.0,0.0,0.0,0.0,0.0,0.0,0.0,0.0,0.0,0.0,0.0,0.0,0.0,0.0,3.1663,3.3135,3.3295,3.3949,0.0,3.5472,3.5726,3.6282,3.6293,3.6293,3.6293,3.6293,3.6293,3.6293,3.6293,3.6127,3.5824,3.5536,3.5423,3.5423,3.5423,3.5561,3.5756,3.5783,3.5963,3.617,3.5618,3.5418,3.556,3.6446,3.7027,3.7329,4.0395,4.0285,4.0077,0.0,4.0379,4.0824,0.0,0.0,0.0,0.0,4.1754,4.1874,4.2172,4.2096,4.1949,4.1749,4.1868,0.0,0.0,0.0,0.0,4.1327,4.1216,4.0722,3.9742,3.9623,0.0,3.7348,3.7434,3.7133,3.6507,3.6794,3.6782,3.6574,3.7062,3.7574,3.8056,3.8216,3.8881,3.9886,4.0142,3.9956,3.9546,0.0,3.9637,3.9085,3.9832,4.0097,4.0097,4.0097,3.9958,3.9758,3.9661,3.9011,3.8364,3.8698,3.7667,3.6541,3.7156,3.6622,3.5984,3.6234,3.6354,3.6341,0.0,0.0,0.0,0.0,0.0,0.0,0.0,0.0,0.0,0.0,0.0,0.0,0.0,0.0,0.0,3.2592,0.0,0.0,0.0,3.1414,3.1981,3.2375,3.3152,3.409,3.5223,0.0,3.5395,3.627,3.6293,3.6293,3.6293,3.6293,3.6293,3.6293,3.6293,3.625,3.6168,3.5852,3.5701,3.5701,3.5701,3.5519,3.5243,3.5632,3.5629,3.534,3.5381,3.5692,3.6147,3.6185,3.6551,3.7047,4.0257,0.0,0.0,3.9799,0.0,0.0,4.0631,4.0865,0.0,4.1837,4.2037,0.0,4.2365,4.2158,4.1956,4.1784,4.1768,0.0,4.1448,0.0,0.0,4.1195,4.1197,4.088,4.0171,4.0158,0.0,3.8291,0.0,3.7407,3.682,3.6877,3.6786,3.6632,3.7079,3.7524,3.7964,3.8415,3.9004,3.9694,4.0066,3.9935,0.0,3.9765,3.9598,3.9242,3.9568,3.9769,3.987,3.987,3.9716,3.9554,3.9667,3.9199,3.8647,3.8915,3.821,3.7417,3.7676,3.7329,3.6881,3.6791,3.6912,3.6979,3.6621,3.6879,3.7025,0.0,3.5899,3.547,0.0,0.0,0.0,0.0,0.0,0.0,0.0,0.0,0.0,0.0,3.3039,0.0,0.0,3.1923,3.2264,3.2269,3.2945,3.3735,3.4627,0.0,3.5152,3.5935,3.619,3.6293,3.6293,3.6293,3.6293,3.6293,3.6293,3.6293,3.6279,3.5961,3.5879,3.6004,3.5865,3.5714,3.5577,3.5742,3.5618,3.534,3.5257,3.5623,3.6201,3.6052,3.6473,3.7154,3.9671,0.0,0.0,0.0,0.0,0.0,0.0,4.0525,0.0,4.179,0.0,4.2294,4.2085,4.1923,4.1752,4.1572,0.0,4.1514,4.1498,4.1332,4.1223,4.1198,4.118,4.1027,4.0734,4.0609,4.0176,0.0,0.0,3.7733,3.7277,3.6953,3.6722,3.6612,0.0,0.0,0.0,3.8709,3.9153,3.9264,3.9756,3.9966,3.9944,3.973,3.9656,3.962,3.9372,3.9452,3.9656,3.9656,3.9485,3.9338,3.9532,3.9107,3.8544,3.8591,3.8179,3.7728,3.782,3.7843,3.7764,3.7398,3.7651,3.7879,3.741,3.7975,3.8453,3.7913,3.7235,3.6813,3.7009,0.0,0.0,0.0,0.0,0.0,0.0,0.0,0.0,0.0,0.0,0.0,0.0,3.2623,3.2618,3.2796,3.2963,3.3451,3.4361,0.0,3.5075,3.5587,3.6061,3.6293,3.6293,3.6293,3.6293,3.6293,3.6293,3.6293,3.6279,3.5991,3.6018,3.6279,3.5991,3.5991,3.6168,3.5961,3.5824,3.5701,3.5202,3.5408,3.5994,3.5994,3.6595,3.7389,0.0,0.0,0.0,0.0,0.0,3.9968,4.037,4.1603,4.2434,4.2314,4.2213,4.2101,4.1955,4.1612,4.139,4.1357,4.1254,0.0,0.0,0.0,0.0,4.0653,4.1198,4.148,4.142,4.2024,4.1621,0.0,0.0,3.9227,3.7795,3.8153,3.7875,3.7104,0.0,0.0,3.8138,3.8805,0.0,3.9847,3.9788,3.9741,3.9719,3.9474,3.9361,3.9361,3.9316,3.9327,3.9361,3.9361,3.9338,3.9269,3.91,3.8686,3.8315,3.8546,3.7952,3.7364,3.796,3.8132,3.8154,3.8294,3.8688,3.8913,3.8442,3.8478,3.8453,3.7913,3.7387,3.6991,3.6798,0.0,0.0,0.0,0.0,0.0,0.0,0.0,0.0,0.0,0.0,3.497,0.0,0.0,3.3225,3.4383,3.4053,3.4639,3.6537,0.0,3.5447,0.0,3.6247,3.6293,0.0,0.0,3.6293,3.6293,3.6293,3.6293,3.6293,3.625,3.6239,3.6293,3.625,3.5963,3.5591,3.6032,3.5909,3.5437,3.5119,3.5408,3.5994,3.5994,3.6595,3.7389,0.0,0.0,0.0,0.0,0.0,0.0,0.0,4.19,4.2579,4.2421,4.2158,4.2059,4.2243,4.2032,4.1979,4.2205,4.2166,4.2051,4.1852,4.1844,4.1756,4.1592,4.1601,4.1568,4.1504,4.1492,4.1067,4.0197,0.0,0.0,3.8314,3.7934,3.7517,3.7049,0.0,3.7439,0.0,0.0,0.0,3.9199,3.9406,3.9485,3.9474,3.9349,3.9214,3.9089,3.9089,3.9024,3.8948,3.9069,3.9089,3.9044,3.8823,3.8587,3.843,3.8557,3.8327,3.8097,3.8338,3.86,3.8711,3.8464,3.8449,3.8404,3.7928,3.7813,3.7744,3.749,3.7258,3.7019,3.6748,3.6564,0.0,0.0,0.0,0.0,0.0,0.0,0.0,0.0,0.0,0.0,0.0,0.0,0.0,0.0,0.0,0.0,0.0,0.0,3.5406,0.0,0.0,0.0,3.6293,0.0,3.6293,3.6293,3.6293,3.6293,3.6293,3.6293,3.6293,3.6293,3.6293,3.6141,3.5879,3.5852,3.5723,3.5494,3.4943,3.5266,3.5994,3.5994,3.6595,3.7389,0.0,3.9023,0.0,0.0,4.0239,0.0,4.1447,4.2045,4.2438,4.2438,4.2219,4.2218,4.2663,4.2569,4.2639,4.3005,4.3007,4.2934,4.2772,4.2754,4.2707,4.2602,4.2232,4.1976,4.1872,4.1359,4.0926,0.0,0.0,0.0,3.8826,3.7735,3.7154,3.7011,0.0,0.0,0.0,0.0,3.8469,3.8629,3.9115,3.9272,3.9214,3.9283,3.9114,3.8843,3.8886,3.8765,3.8625,3.872,3.8785,3.8798,3.8589,3.851,3.851,3.851,3.8564,3.8596,3.8532,3.8666,3.872,3.8245,3.7993,3.7799,3.7491,3.7502,3.7572,3.7572,3.7572,3.7466,3.7165,3.7412,0.0,0.0,0.0,0.0,0.0,0.0,0.0,0.0,0.0,0.0,3.5112,0.0,0.0,0.0,0.0,0.0,3.496,0.0,0.0,0.0,0.0,3.6293,3.6293,0.0,3.6293,3.6293,3.6293,3.6293,3.6293,3.6293,3.6293,3.6293,3.6293,3.6293,3.6264,3.5827,3.5709,3.5728,3.5099,3.538,3.6136,3.6038,3.6595,3.7389,0.0,0.0,0.0,0.0,0.0,4.1472,4.218,4.245,4.258,4.258,4.2562,4.2678,4.3021,4.2878,4.2784,4.2829,4.2716,4.2638,4.262,4.262,4.2611,4.2593,4.3128,4.3417,4.3389,4.3564,4.314,0.0,0.0,4.0526,3.9324,3.8654,3.8035,3.7422,0.0,0.0,3.8271,3.8358,3.8724,3.9224,3.9278,3.9145,3.8964,3.9203,3.9016,3.8645,3.8832,3.8765,3.8568,3.8338,3.8429,3.8577,3.8315,3.8247,3.8247,3.8247,3.7952,3.7723,3.8133,3.7776,3.7381,3.7751,3.7993,3.82,3.8408,3.8791,3.908,3.908,3.908,3.8971,3.8512,3.8459,3.8466,0.0,0.0,0.0,0.0,0.0,0.0,0.0,0.0,0.0,0.0,3.6836,0.0,0.0,3.4913,0.0,0.0,0.0,0.0,3.6226,3.627,3.6293,3.6293,3.6293,3.6293,3.6293,3.6293,3.6293,3.6293,3.6293,3.6293,3.6293,3.6293,3.6293,3.6312,3.6436,3.6319,3.6061,3.6053,3.6273,3.6577,3.6158,3.6595,3.7389,0.0,0.0,0.0,0.0,0.0,0.0,0.0,4.3232,4.3275,4.3307,4.3065,4.3055,4.3473,4.3442,4.353,4.3855,4.3833,4.3796,4.3796,4.3796,4.3796,4.3796,4.3676,4.3295,4.2654,4.2352,4.1737,0.0,0.0,0.0,0.0,3.8669,3.8231,3.7741,3.7697,3.7951,3.8415,3.8792,3.9077,3.9305,3.9305,3.9147,3.8919,3.9022,3.8981,3.8864,3.8582,3.8563,3.8584,3.8164,3.8169,3.8328,3.8091,3.8011,3.8011,3.8011,3.8091,3.8171,3.819,3.8313,3.8425,3.8445,3.8449,3.8464,3.858,3.8496,3.8402,3.8402,3.8654,3.8724,3.8211,3.8372,3.8397,3.7803,0.0,0.0,0.0,0.0,0.0,0.0,0.0,0.0,0.0,0.0,0.0,0.0,0.0,0.0,0.0,0.0,0.0,3.5832,0.0,3.6293,3.6293,3.6293,3.6293,3.6293,3.6293,3.6293,3.6293,3.6293,3.6293,3.6293,3.6293,3.6463,3.6697,3.6289,3.6288,3.6526,3.6079,3.6239,3.669,3.6493,3.6832,3.7389,4.1382,0.0,4.1919,0.0,4.2814,4.3032,4.3789,4.382,4.3818,4.408,4.3782,4.3674,4.4007,4.4035,4.4189,4.4579,4.4591,4.4591,4.4591,4.4591,4.4562,4.4505,4.406,0.0,4.2391,4.1803,4.1131,4.0353,3.9824,0.0,0.0,3.8712,3.8341,3.8068,3.8298,3.8507,3.8697,3.9305,3.9563,3.9565,3.9674,3.9548,3.9294,3.9107,3.9013,3.8902,3.839,3.8305,3.841,3.8031,3.7988,3.8089,3.7933,3.79,3.7911,3.7967,3.8217,3.8476,3.8415,3.863,3.8843,3.8821,3.8654,3.8498,3.858,3.8417,3.8243,3.8243,3.8542,3.869,3.83,3.8553,3.8566,3.7871,0.0,0.0,0.0,3.6815,0.0,0.0,3.6334,3.6054,3.5759,3.5745,0.0,0.0,0.0,0.0,0.0,0.0,0.0,0.0,0.0,0.0,3.6538,3.6538,3.6497,3.6415,3.6415,3.6375,3.6293,3.6293,3.6293,3.6293,3.6293,3.6498,3.6752,3.6326,3.6361,3.6604,3.6062,3.621,3.6675,3.6548,3.6876,3.7389,4.3395,4.3942,4.4332,4.3952,4.3778,4.3849,4.4315,4.4055,4.4065,4.4784,4.4708,4.4585,4.4591,4.4591,4.4591,4.4591,4.4591,4.4591,4.4591,4.4591,4.4521,0.0,0.0,4.3981,4.3299,4.289,4.2344,4.1684,0.0,0.0,4.0063,3.9008,3.8452,3.8399,3.8401,3.8724,3.9332,3.9927,4.0185,4.0228,4.0559,4.0519,4.0218,3.9618,3.9104,3.8655,3.8319,3.8068,3.7913,3.79,3.79,3.79,3.79,3.79,3.7946,3.8133,3.8188,3.8315,3.8774,3.8366,3.7947,3.8476,3.8408,3.827,3.8546,3.8948,3.9283,3.9283,3.9294,3.9294,3.9269,3.9294,3.9294,3.9283,0.0,0.0,0.0,3.7774,0.0,3.7155,3.7316,3.7164,3.6379,3.6777,0.0,0.0,0.0,0.0,0.0,0.0,0.0,3.7068,3.7091,0.0,3.7091,3.7091,3.6957,3.67,3.67,3.6551,3.6293,3.6293,3.6293,3.6293,3.6293,3.6305,3.6339,3.6803,3.6633,3.6114,3.6179,3.6397,3.6631,3.618,3.6595,3.7389,4.3952,4.4019,4.4177,4.4395,4.4297,4.4302,4.4681,4.4632,4.4579,4.4674,4.4629,4.4591,4.4591,4.4591,4.4591,0.0,4.4591,4.4591,0.0,4.4473,4.4368,4.4301,4.4181,4.3772,4.3111,4.2663,4.2112,4.1497,0.0,0.0,3.9809,3.906,3.8904,3.9278,3.91,3.9129,3.9305,3.9495,3.9719,3.9941,4.0035,3.9841,3.9455,3.9268,3.9242,3.9246,3.8727,3.9004,3.9548,3.9182,3.8789,3.8449,3.8449,3.8189,3.7911,3.7979,3.8089,3.8223,3.8381,3.8481,3.8594,3.8765,3.889,3.8969,3.906,3.9194,3.9305,3.9305,3.9305,3.9305,3.9305,3.9038,3.8827,3.8827,3.8395,0.0,3.782,0.0,3.727,3.712,3.657,3.6097,3.5847,3.5978,0.0,0.0,0.0,0.0,0.0,0.0,0.0,0.0,3.6928,0.0,3.7105,3.7105,3.7064,3.697,3.6795,3.6551,3.6293,3.6293,3.6293,3.6293,3.6293,3.6293,3.6291,3.6203,3.6158,3.6075,3.5917,3.621,3.6675,3.6537,3.6865,3.7389,4.4424,4.4517,4.4606,4.4565,4.4371,4.4226,4.4295,4.4232,4.4174,4.4122,4.4112,4.4112,4.4112,4.4266,0.0,4.4482,4.4492,4.4463,4.4387,4.4253,4.4064,4.3831,4.3694,4.325,4.242,4.2102,4.1692,4.1128,4.0597,4.0157,3.9797,3.9429,3.9357,3.9543,3.9372,3.9305,3.9308,3.9424,3.9611,3.9803,3.9858,3.9696,3.9402,3.9073,3.9221,3.9522,3.8921,3.9299,4.0044,3.9718,3.9352,3.9038,3.9038,3.8646,3.8161,3.7965,3.799,3.8101,3.8179,3.8415,3.8673,3.8863,3.9033,3.9235,3.9554,3.9631,3.9631,3.9631,3.9631,3.9563,3.9346,3.906,3.8859,3.8859,3.8429,3.8109,3.8109,0.0,3.7328,0.0,0.0,3.5823,0.0,3.566,3.5734,0.0,0.0,0.0,0.0,0.0,3.6757,3.6992,3.7287,3.744,3.744,3.744,3.7386,3.7291,3.7086,3.6852,3.6553,3.6553,3.6463,3.6293,3.6293,3.6293,3.6266,3.5947,3.5812,3.5818,3.5549,3.5848,3.6439,3.6439,3.6843,3.7389,4.4771,4.5225,4.5398,4.4463,4.4058,4.3722,4.3359,4.3135,4.3086,4.328,4.329,4.328,4.33,4.367,4.3982,4.4176,4.4262,4.4214,4.4017,4.3988,4.3709,4.3086,4.3036,4.2542,4.1511,4.1459,4.1191,4.0702,4.0691,4.0454,3.9996,3.9999,3.9747,3.9305,3.9305,3.9305,3.9321,3.9606,3.975,3.9784,3.9931,3.998,3.9891,3.9106,3.9169,3.9574,3.9025,3.9208,3.9704,3.9665,3.9652,3.9652,3.9613,3.9208,3.8659,3.8111,3.7938,3.7956,3.8145,3.82,3.8336,3.8796,3.8919,3.9134,3.9938,4.0171,4.0198,4.0198,4.0225,4.009,3.9536,3.9427,3.9427,3.9427,3.902,3.8703,3.8669,3.8158,3.7718,3.7517,0.0,0.0,3.6077,3.5819,3.5677,0.0,0.0,0.0,0.0,0.0,3.6928,3.7963,3.7999,3.7999,3.7999,3.7999,3.7864,3.7615,3.7541,3.7333,3.7039,3.7019,3.6757,3.635,3.6316,3.6293,3.6266,3.5947,3.5632,3.5381,3.5149,3.5441,3.6005,3.6038,3.6628,3.7389,4.4719,4.4634,4.4578,4.4339,4.3821,4.3418,4.3309,4.326,4.325,4.329,4.3165,4.3125,4.328,4.3086,4.2971,4.307,4.3831,4.4214,4.4017,4.3851,4.3695,4.3547,4.3329,4.297,4.2404,4.204,4.1479,4.0702,4.0558,4.0306,3.9996,3.9837,3.9595,3.9305,3.9305,3.9305,3.9283,3.917,3.9254,3.9516,3.981,3.9824,3.9722,3.9925,4.0096,4.0201,4.0057,4.0384,4.0828,4.0371,4.0214,4.0149,3.9731,3.9495,3.926,3.8685,3.8328,3.8133,3.819,3.8351,3.8566,3.883,3.9056,3.9254,3.947,3.9873,4.0198,4.0198,4.0567,4.084,4.0705,4.0666,4.0666,4.0666,4.0191,3.97,3.9337,3.8431,3.7736,0.0,3.6828,3.6444,3.659,3.6373,3.6374,0.0,0.0,3.6807,3.7758,3.7288,3.7313,3.7988,3.7999,3.7999,3.7999,3.7999,3.7936,3.7826,3.7609,3.7532,3.7598,3.7193,3.6938,3.6801,3.6452,3.6293,3.6266,3.5947,3.5632,3.5415,3.5504,3.573,3.6038,3.6395,3.6898,3.7389,4.4232,4.4054,4.3899,4.3615,4.319,4.2864,4.2768,4.2648,4.2572,4.2572,4.247,4.2409,4.2434,4.2374,4.2405,4.2648,4.3099,4.3304,4.3105,4.2975,4.284,4.2652,4.252,4.223,4.1806,4.1542,4.1121,4.0554,4.045,4.0225,3.9859,3.9741,3.9554,3.9305,3.9305,3.9387,3.951,3.9246,3.9316,3.9632,3.9728,3.9694,3.9626,3.9913,4.0188,4.0371,4.0123,4.0397,4.0841,4.0514,4.0397,4.0397,4.0384,4.0188,3.99,3.9574,3.8976,3.8407,3.8245,3.8304,3.8485,3.8819,3.91,3.9373,3.9644,3.9968,4.0198,4.0198,4.0689,4.103,4.0732,4.0908,4.11,4.11,4.0838,4.0435,3.9937,3.9331,3.8641,3.7829,3.7379,3.6998,3.664,3.6716,3.6892,3.7181,3.7156,0.0,3.7963,3.7722,3.7698,3.7987,3.7999,3.7999,3.7999,3.7878,3.7885,3.8038,3.7894,3.7937,3.8163,3.7859,3.7455,3.6996,3.6723,3.6498,3.6266,3.5947,3.5767,3.5728,3.5704,3.5947,3.634,3.6613,3.6996,3.7389,4.3551,4.3433,4.3255,4.2739,4.2428,4.2197,4.2057,4.1821,4.1671,4.1702,4.1636,4.1545,4.1417,4.1722,4.2082,4.2474,4.241,4.2326,4.2281,4.2281,4.2129,4.1783,4.1787,4.1518,4.095,4.0744,4.0554,4.0345,4.0312,4.0095,3.97,3.9667,3.9521,3.9305,3.9258,3.9397,3.9642,3.9354,3.9444,3.9775,3.9643,3.9639,3.9731,3.9822,4.0136,4.0462,3.9913,4.007,4.0514,4.0345,4.0397,4.0606,4.1037,4.088,4.0528,4.0436,3.9718,3.8888,3.8601,3.8514,3.8582,3.8941,3.9168,3.9427,3.9954,4.013,4.0198,4.0198,4.0689,4.0937,4.0431,4.0838,4.1247,4.1247,4.1247,4.1023,4.0421,0.0,3.9647,3.8165,3.8004,3.7642,3.6729,3.7048,3.7325,3.7325,3.7746,3.7999,3.7999,3.7999,3.7999,3.7999,3.7999,3.7986,3.7933,3.7664,3.774,3.8191,3.8163,3.8345,3.8703,3.8634,3.8103,3.7237,3.7076,3.6769,3.6378,3.605,3.5995,3.6097,3.5957,3.623,3.6708,3.6788,3.7061,3.7389,4.2945,4.2703,4.2565,4.2463,4.196,4.1606,4.1733,4.1581,4.1507,4.1681,4.1339,4.1184,4.1385,4.1564,4.1775,4.2072,4.2375,4.2847,4.3556,4.3609,4.3581,4.3516,4.3516,4.3056,4.2077,4.1007,4.0331,4.0064,3.9895,3.9766,3.97,3.9474,3.9338,3.9294,3.9067,3.8995,3.9009,3.8571,3.8711,3.9247,3.9499,3.9874,4.0332,4.0841,4.1089,4.1089,4.0488,4.0658,4.1011,4.0044,4.0358,4.1089,4.0671,4.0828,4.1063,4.0554,4.0279,4.0115,4.0002,3.9926,3.9845,3.9699,3.9481,3.9319,3.9414,3.9832,4.0198,4.0198,4.0689,4.1073,4.0976,4.1451,4.1858,4.1858,4.1858,4.1524,4.0598,0.0,3.9283,3.8138,3.7996,3.7925,3.7776,3.7819,3.788,3.788,3.7951,3.7999,3.7999,3.7999,3.7999,3.7999,3.7999,3.7892,3.7662,3.7331,3.7524,3.8191,3.7965,3.8332,3.9182,3.8783,3.8507,3.8298,3.7386,3.6961,3.6865,3.6587,3.6328,3.6151,3.6682,3.6806,3.6741,3.7149,3.735,3.7389,4.2271,4.2086,4.1997,4.1887,4.1606,4.1438,4.1528,4.1469,4.1381,4.1332,4.1128,4.1015,4.1022,4.1369,4.1799,4.2284,4.2789,4.3384,4.4114,4.3561,4.3201,4.3201,4.3054,4.2683,4.2035,4.1458,4.0885,4.0318,4.0221,3.9934,3.9485,3.9349,3.9305,3.9294,3.9022,3.9004,3.9167,3.9131,3.9291,3.9631,4.0107,4.0362,4.0496,4.0918,4.1085,4.1019,4.057,4.058,4.0737,4.0214,4.0384,4.0828,4.0867,4.1076,4.1246,4.0972,4.0534,4.0115,4.0092,4.0169,4.026,4.0283,4.0172,4.0097,4.0236,4.0228,4.0198,4.0198,4.0418,4.0621,4.0621,4.111,4.1518,4.1518,4.179,4.1743,4.0984,4.0548,3.9948,3.8977,3.8473,3.8154,3.8015,3.7999,3.7999,3.7999,3.7999,3.7999,3.7999,3.7999,3.7999,3.7999,3.7865,3.7637,3.7331,3.7024,3.7239,3.7979,3.7864,3.8335,3.9297,3.9078,3.884,3.8576,3.808,3.7698,3.742,3.7096,3.6945,3.6925,3.7045,3.7092,3.7105,3.7313,3.7389,3.7389,4.1702,4.1573,4.1493,4.1339,4.1265,4.1244,4.1297,4.1394,4.1373,4.1174,4.1099,4.0995,4.0769,4.1351,4.1959,4.2461,4.3193,4.3812,4.4277,4.3388,4.2856,4.2926,4.2537,4.2191,4.1939,4.1789,4.1372,4.0716,4.0716,4.0368,3.9726,3.9645,3.9555,3.9408,3.9092,3.9015,3.9142,3.948,3.969,3.9875,4.0443,4.0654,4.0618,4.082,4.0933,4.0944,4.0545,4.0488,4.0593,4.0449,4.0488,4.0697,4.1142,4.1298,4.1298,4.1298,4.0794,4.0241,4.0385,4.0496,4.0677,4.0948,4.0899,4.0852,4.104,4.0732,4.0375,4.0225,4.0198,4.0158,4.0022,4.0474,4.0895,4.0895,4.1254,4.1348,4.082,4.0444,3.9968,3.9216,3.8594,3.8157,3.8013,3.7999,3.7999,3.7999,3.7999,3.7999,3.7999,3.7999,3.7972,3.7906,3.7704,3.741,3.701,3.6936,3.7187,3.7807,3.7922,3.845,3.9308,3.9308,3.9101,3.876,3.8657,3.837,3.7962,3.7619,3.7532,3.7589,3.7359,3.7338,3.7389,3.7389,3.7389,3.7389,4.1438,4.123,4.1054,4.1032,4.0891,4.0816,4.099,4.1349,4.1577,4.1566,4.1383,4.1177,4.0916,4.1647,4.2183,4.2236,4.3292,4.3979,4.4035,4.3709,4.3644,4.3884,4.3096,4.2572,4.2362,4.1751,4.1312,4.1067,4.1067,4.1028,4.0964,4.0717,4.0304,3.9732,3.9299,3.8789,3.8305,3.8655,3.8973,3.9304,3.9849,4.0392,4.087,4.0883,4.106,4.1195,4.0607,4.0763,4.1155,4.0593,4.0776,4.1246,4.1285,4.1298,4.1298,4.1298,4.1259,4.1305,4.1798,4.1728,4.1564,4.1842,4.147,4.1088,4.11,4.1071,4.0881,4.032,4.0198,4.0035,3.9468,3.9859,4.0266,4.0266,4.0199,3.9957,3.9431,3.8754,3.8179,3.7786,3.7693,3.7757,3.7977,3.7999,3.7999,3.7999,3.7999,3.7999,3.7999,3.7999,3.7892,3.7636,3.7609,3.7316,3.6741,3.72,3.7558,3.7807,3.8301,3.8817,3.9308,3.9308,3.9285,3.9228,3.8795,3.8576,3.8527,3.8171,3.7877,3.7623,3.778,3.7654,3.7389,3.7389,3.7389,3.7389,4.122,4.1078,4.0958,4.0848,4.0752,4.0734,4.0791,4.1251,4.1563,4.1434,4.1349,4.1191,4.0929,4.119,4.1385,4.1385,4.2546,4.3253,4.3253,4.3363,4.3463,4.356,4.3256,4.2954,4.2716,4.246,4.2102,4.1654,4.1654,4.1478,4.1086,4.0828,4.0577,4.0339,3.9812,3.9469,3.9286,3.9616,3.9645,3.9499,4.0091,4.0248,4.0185,4.0542,4.0719,4.082,4.0926,4.1102,4.1259,4.1037,4.1115,4.1298,4.1298,4.1298,4.1298,4.1298,4.1298,4.1373,4.1758,4.1649,4.1477,4.1747,4.1636,4.156,4.1899,4.1686,4.1347,4.1118,4.091,4.0631,4.0239,4.0479,4.0595,4.0104,4.0289,4.0251,3.9558,3.9057,3.8738,3.8614,3.8145,3.7888,3.7988,3.7999,3.7999,3.7999,3.7999,3.7999,3.7999,3.7838,3.7611,3.7291,3.713,3.6928,3.67,3.6746,3.7102,3.7807,3.8002,3.8516,3.9308,3.9308,3.9308,3.9297,3.9113,3.9033,3.9003,3.8488,3.8208,3.8056,3.7726,3.7521,3.7389,3.7389,3.7389,3.7389,4.0972,4.0908,4.0866,4.0709,4.0702,4.0736,4.0871,4.1396,4.175,4.1631,4.1639,4.1466,4.1011,4.104,4.1002,4.0823,4.1782,4.2398,4.2398,4.2704,4.2985,4.3163,4.3177,4.3092,4.2899,4.2899,4.2709,4.2276,4.2276,4.2025,4.1526,4.1274,4.0987,4.072,4.0266,3.9956,3.9826,4.0223,4.009,3.9646,4.0261,4.0236,3.9878,4.0326,4.0555,4.0681,4.1135,4.1298,4.1298,4.1298,4.1298,4.1298,4.1298,4.1298,4.1298,4.1298,4.1298,4.1336,4.1523,4.1436,4.1373,4.1746,4.1833,4.1919,4.229,4.2052,4.169,4.1516,4.1286,4.1022,4.0644,4.0793,4.0711,3.9918,3.9994,3.9878,3.9053,3.8577,3.8374,3.8546,3.8076,3.7807,3.7975,3.7999,3.7999,3.7999,3.7999,3.7999,3.7999,3.7757,3.745,3.7105,3.6835,3.6659,3.6578,3.6536,3.6957,3.7807,3.7968,3.8496,3.9308,3.9308,3.9308,3.9308,3.9308,3.9308,3.9264,3.873,3.8474,3.835,3.7788,3.748,3.7389,3.7389,3.7389,3.7389,4.0702,4.0702,4.0702,4.0702,4.0702,4.0826,4.124,4.1809,4.2214,4.2281,4.2356,4.2057,4.1189,4.133,4.1233,4.0631,4.1149,4.1491,4.1479,4.1795,4.2263,4.2872,4.2899,4.2899,4.2899,4.2899,4.2899,4.2899,4.2899,4.2753,4.2499,4.2227,4.1638,4.0803,4.0533,4.0109,3.9639,4.0188,4.0103,3.9659,4.0261,4.0338,4.0134,4.0402,4.0669,4.0921,4.1211,4.1298,4.1298,4.1298,4.1298,4.1298,4.1298,4.1298,4.1298,4.1298,4.1298,4.1298,4.1298,4.1298,4.1436,4.1955,4.2091,4.2091,4.2103,4.2103,4.1931,4.1333,4.1201,4.1028,4.042,4.0524,4.0453,3.9645,3.9127,3.8518,3.7643,3.688,3.6615,3.7132,3.7217,3.7422,3.7951,3.7999,3.7999,3.7999,3.7999,3.7999,3.7999,3.7744,3.7437,3.7105,3.6835,3.6565,3.6293,3.6757,3.7274,3.7807,3.8335,3.8837,3.9308,3.9308,3.9308,3.9308,3.9308,3.9308,3.9279,3.893,3.8645,3.8365,3.8028,3.7687,3.7389,3.7389,3.7389,3.7389,4.072,4.0702,4.0659,4.0515,4.0493,4.0602,4.0969,4.1534,4.2014,4.2258,4.2191,4.1786,4.0906,4.0509,4.0055,3.9458,3.9958,4.043,4.072,4.0814,4.1129,4.1682,4.2475,4.2899,4.2899,4.2717,4.2608,4.2608,4.2435,4.2287,4.2215,4.1931,4.1678,4.1408,4.1149,4.0946,4.079,4.0772,4.0549,4.0235,4.0211,4.0057,3.9865,4.0326,4.0555,4.0681,4.1135,4.1298,4.1298,4.1298,4.1298,4.1298,4.1298,4.1298,4.1298,4.1298,4.1298,4.1298,4.1298,4.1298,4.1336,4.1511,4.1535,4.1585,4.1783,4.182,4.1767,4.1595,4.1703,4.171,4.1355,4.1658,4.1706,4.0898,4.029,3.9638,3.8813,3.8014,3.7578,3.7746,3.7758,3.7819,3.7975,3.7999,3.7999,3.7999,3.7999,3.7999,3.7999,3.752,3.721,3.7105,3.6659,3.6375,3.6293,3.644,3.6946,3.7807,3.7956,3.847,3.9308,3.9308,3.9308,3.9308,3.9308,3.9164,3.893,3.8641,3.8328,3.8025,3.7672,3.7491,3.7389,3.7389,3.7389,3.7389,4.0619,4.0576,4.0511,4.0287,4.0438,4.0689,4.0936,4.1468,4.193,4.22,4.1912,4.1394,4.0624,4.0023,3.9514,3.9126,3.965,4.0101,4.0344,4.0571,4.0864,4.12,4.1993,4.2486,4.2582,4.2411,4.2351,4.2351,4.2177,4.2054,4.1931,4.1783,4.1634,4.1536,4.1373,4.1298,4.1286,4.1135,4.0833,4.0491,4.0313,4.0032,3.9762,4.03,4.0504,4.0567,4.111,4.1298,4.1298,4.1298,4.1298,4.1298,4.1298,4.1298,4.1298,4.1298,4.1298,4.1298,4.1298,4.1298,4.1298,4.1298,4.1298,4.1336,4.1511,4.1535,4.156,4.1684,4.1833,4.1918,4.1869,4.2203,4.2129,4.1008,4.0592,4.0007,3.8882,3.8304,3.7999,3.7999,3.7999,3.7999,3.7999,3.7999,3.7999,3.7999,3.7999,3.7946,3.7852,3.7373,3.7051,3.6943,3.6524,3.6293,3.6293,3.6293,3.6796,3.7807,3.7807,3.8335,3.9308,3.9308,3.9308,3.9308,3.9308,3.9108,3.8771,3.8518,3.8204,3.7863,3.7536,3.7389,3.7389,3.7389,3.7389,3.7389,4.0396,4.0366,4.0277,4.002,4.0473,4.0912,4.1038,4.1527,4.1931,4.2085,4.1548,4.0938,4.0329,3.9779,3.9445,3.9384,3.9917,4.0264,4.0241,4.0744,4.1075,4.114,4.1402,4.168,4.1992,4.1992,4.2005,4.2029,4.2005,4.1881,4.1659,4.1659,4.1536,4.1298,4.1298,4.1286,4.1261,4.1236,4.0934,4.0466,4.044,4.0147,3.98,4.03,4.0504,4.0605,4.111,4.1298,4.1298,4.1298,4.1298,4.1298,4.1298,4.1298,4.1298,4.1298,4.1298,4.1298,4.1298,4.1298,4.1298,4.1298,4.1298,4.1311,4.1323,4.1348,4.1436,4.1684,4.1746,4.182,4.2054,4.2301,4.1969,4.0453,4.03,3.984,3.8331,3.8052,3.7999,3.7999,3.7999,3.7999,3.7999,3.7999,3.7999,3.7999,3.7986,3.7865,3.7609,3.7251,3.6957,3.6714,3.6429,3.6293,3.6293,3.6293,3.6796,3.7807,3.7807,3.8335,3.9308,3.9308,3.9308,3.9308,3.9308,3.9105,3.8752,3.8503,3.8175,3.7818,3.7521,3.7389,3.7389,3.7389,3.7389,3.7389,4.0097,4.0086,4.0009,3.9796,4.0257,4.0691,4.078,4.129,4.1761,4.206,4.139,4.0687,4.0129,3.9535,3.918,3.9167,3.9671,3.9918,3.9766,3.9873,4.0135,4.0568,4.0442,4.0617,4.1147,4.116,4.126,4.1473,4.126,4.1248,4.1386,4.1386,4.1361,4.1298,4.1298,4.1186,4.0972,4.077,4.0491,4.0173,3.9955,3.9929,4.0045,4.0377,4.0631,4.0858,4.1186,4.1298,4.1298,4.1298,4.1298,4.1298,4.1298,4.1298,4.1298,4.1298,4.1298,4.1298,4.1298,4.1298,4.1298,4.1298,4.1298,4.1361,4.156,4.1783,4.1931,4.1992,4.2005,4.2029,4.2091,4.2152,4.1931,4.1159,4.0554,3.9878,3.9052,3.8396,3.7999,3.7999,3.7999,3.7999,3.7999,3.7999,3.7999,3.7999,3.7812,3.7662,3.7596,3.7076,3.6768,3.67,3.6429,3.6293,3.6293,3.6293,3.6796,3.7807,3.7807,3.8335,3.9308,3.9308,3.9308,3.9308,3.9308,3.8998,3.8474,3.8425,3.8055,3.7506,3.7419,3.7389,3.7389,3.7389,3.7389,3.7389,3.9881,3.9859,3.9738,3.9383,4.0049,4.0568,4.0349,4.1065,4.1659,4.1706,4.1071,4.0395,3.9868,3.9528,3.9437,3.97,4.0238,4.0518,4.0422,4.041,4.0541,4.0815,4.0456,4.0385,4.0694,4.0453,4.0516,4.0922,4.077,4.077,4.0922,4.1047,4.1047,4.0922,4.1047,4.1034,4.0883,4.0757,4.0542,4.0275,4.0134,4.0006,3.9942,4.0351,4.0593,4.0757,4.1161,4.1298,4.1298,4.1298,4.1298,4.1298,4.1298,4.1298,4.1298,4.1298,4.1298,4.1298,4.1298,4.1298,4.1298,4.1298,4.1398,4.1498,4.1511,4.1622,4.1758,4.1869,4.1906,4.1943,4.2079,4.2103,4.1807,4.0883,4.0377,3.9762,3.8777,3.8265,3.7999,3.7999,3.7999,3.7999,3.7999,3.7999,3.7999,3.7999,3.7757,3.7529,3.737,3.693,3.6646,3.651,3.6361,3.6293,3.6293,3.6293,3.6796,3.7807,3.7807,3.8335,3.9308,3.9308,3.9308,3.9308,3.9308,3.9031,3.8582,3.8444,3.81,3.7611,3.745,3.7389,3.7389,3.7389,3.7389,3.7389,3.9664,3.962,3.9526,3.9179,3.9993,4.0572,4.0179,4.1009,4.1597,4.1336,4.0685,4.0123,3.9783,3.9731,3.9913,4.0371,4.0959,4.1298,4.1298,4.1261,4.1236,4.1236,4.0719,4.044,4.044,3.9942,3.9929,4.044,4.044,4.0466,4.0504,4.0732,4.0707,4.0504,4.0782,4.0845,4.077,4.0807,4.0656,4.0364,4.0364,4.0147,3.989,4.0326,4.0555,4.0694,4.1135,4.1298,4.1298,4.1298,4.1298,4.1298,4.1298,4.1298,4.1298,4.1298,4.1298,4.1298,4.1298,4.1298,4.1298,4.1298,4.1473,4.156,4.1348,4.1373,4.1511,4.1721,4.1771,4.1845,4.2066,4.2066,4.1609,4.0313,4.007,3.9556,3.8198,3.7999,3.7999,3.7999,3.7999,3.7999,3.7999,3.7999,3.7986,3.7933,3.7677,3.737,3.7051,3.6781,3.6524,3.6307,3.6293,3.6339,3.6417,3.6417,3.6923,3.7945,3.7945,3.8427,3.9308,3.9308,3.9308,3.9308,3.9308,3.9108,3.8771,3.8518,3.8204,3.7863,3.7536,3.7389,3.7389,3.7389,3.7389,3.7389,3.9361,3.9349,3.9501,3.9947,4.0403,4.0779,4.1001,4.1408,4.1597,4.1336,4.0371,3.9861,4.0253,4.0292,4.0318,4.0397,4.0959,4.1298,4.1298,4.1085,4.0946,4.0946,4.044,4.0147,4.0147,3.9852,3.9852,4.0147,4.0147,4.0275,4.0504,4.0542,4.0529,4.0504,4.0782,4.0643,4.0224,4.0466,4.0275,3.9813,3.9813,4.0032,4.0402,4.0466,4.0783,4.1198,4.1273,4.1298,4.1298,4.1298,4.1298,4.1298,4.1298,4.1298,4.1298,4.1298,4.1298,4.1298,4.1298,4.1298,4.1298,4.1298,4.1323,4.1336,4.1311,4.1659,4.1992,4.2042,4.2054,4.2066,4.2091,4.1906,4.1398,4.0275,3.9904,3.9336,3.8171,3.7999,3.7999,3.7999,3.7999,3.7999,3.7999,3.7999,3.7905,3.7676,3.7345,3.7049,3.6768,3.6497,3.6334,3.6293,3.6293,3.6484,3.6892,3.6904,3.7434,3.8496,3.8496,3.8783,3.9308,3.9308,3.9308,3.9308,3.9308,3.9108,3.8771,3.8518,3.8204,3.7863,3.7536,3.7389,3.7389,3.7389,3.7389,3.7389,3.9305,3.918,3.9222,3.9678,4.0026,4.0378,4.0696,4.1167,4.1436,4.1311,4.0867,4.0514,4.041,4.0397,4.0541,4.0868,4.1155,4.1236,4.1085,4.0972,4.0833,4.0681,4.0313,4.0096,4.0096,3.9839,3.9762,3.989,3.989,3.9942,4.007,4.0211,4.0198,4.0057,4.0338,4.0313,4.0109,4.0224,4.0134,3.9916,3.9916,4.007,4.0287,4.044,4.0745,4.1097,4.1248,4.1298,4.1298,4.1298,4.1298,4.1298,4.1298,4.1298,4.1298,4.1298,4.1298,4.1298,4.1298,4.1298,4.1298,4.1298,4.1298,4.1298,4.1298,4.1486,4.1647,4.1647,4.1647,4.1647,4.1647,4.156,4.1135,4.0045,3.9775,3.9297,3.8158,3.7999,3.7999,3.7999,3.7999,3.7999,3.7999,3.7865,3.7731,3.7609,3.7143,3.6822,3.67,3.6443,3.6293,3.6293,3.6541,3.6792,3.6993,3.7296,3.7912,3.8822,3.866,3.8852,3.9308,3.9308,3.9308,3.9308,3.9308,3.9223,3.9034,3.8593,3.8309,3.813,3.7596,3.7389,3.7389,3.7389,3.7389,3.7389]},{"header":{"parameterUnit":"m.s-1","parameterCategory":1,"la1":30.6,"la2":28.766,"lo1":-90.7593,"lo2":-88.6598,"dy":0.0162,"dx":0.0183,"nx":116,"ny":114,"refTime":"2023-05-21T06:00:00:Z","depth":0,"parameterNumber":3,"parameterNumberName":"V-component_of_WINDS"},"data":[0.0,0.0,0.0,0.0,0.0,0.0,0.0,0.0,0.0,0.0,0.0,0.0,0.0,0.0,0.0,0.0,0.0,0.0,0.0,0.0,0.0,0.0,0.0,0.0,0.0,0.0,0.0,0.0,0.0,0.0,0.0,0.0,0.0,0.0,0.0,0.0,0.0,0.0,0.0,0.0,0.0,0.0,0.0,0.0,0.0,0.0,0.0,0.0,0.0,0.0,0.0,0.0,0.0,0.0,0.0,0.0,0.0,0.0,0.0,0.0,0.0,0.0,0.0,0.0,0.0,0.0,0.0,0.0,0.0,0.0,0.0,0.0,0.0,0.0,0.0,0.0,0.0,0.0,0.0,0.0,0.0,0.0,0.0,0.0,0.0,0.0,0.0,0.0,0.0,0.0,0.0,0.0,0.0,0.0,0.0,0.0,0.0,0.0,0.0,0.0,0.0,0.0,0.0,0.0,0.0,0.0,0.0,0.0,0.0,0.0,0.0,0.0,0.0,0.0,0.0,0.0,0.0,0.0,0.0,0.0,0.0,0.0,0.0,0.0,0.0,0.0,0.0,0.0,0.0,0.0,0.0,0.0,0.0,0.0,0.0,0.0,0.0,0.0,0.0,0.0,0.0,0.0,0.0,0.0,0.0,0.0,0.0,0.0,0.0,0.0,0.0,0.0,0.0,0.0,0.0,0.0,0.0,0.0,0.0,0.0,0.0,0.0,0.0,0.0,0.0,0.0,0.0,0.0,0.0,0.0,0.0,0.0,0.0,0.0,0.0,0.0,0.0,0.0,0.0,0.0,0.0,0.0,0.0,0.0,0.0,0.0,0.0,0.0,0.0,0.0,0.0,0.0,0.0,0.0,0.0,0.0,0.0,0.0,0.0,0.0,0.0,0.0,0.0,0.0,0.0,0.0,0.0,0.0,0.0,0.0,0.0,0.0,0.0,0.0,0.0,0.0,0.0,0.0,0.0,0.0,0.0,0.0,0.0,0.0,0.0,0.0,0.0,0.0,0.0,0.0,0.0,0.0,0.0,0.0,0.0,0.0,0.0,0.0,0.0,0.0,0.0,0.0,0.0,0.0,0.0,0.0,0.0,0.0,0.0,0.0,0.0,0.0,0.0,0.0,0.0,0.0,0.0,0.0,0.0,0.0,0.0,0.0,0.0,0.0,0.0,0.0,0.0,0.0,0.0,0.0,0.0,0.0,0.0,0.0,0.0,0.0,0.0,0.0,0.0,0.0,0.0,0.0,0.0,0.0,0.0,0.0,0.0,0.0,0.0,0.0,0.0,0.0,0.0,0.0,0.0,0.0,0.0,0.0,0.0,0.0,0.0,0.0,0.0,0.0,0.0,0.0,0.0,0.0,0.0,0.0,0.0,0.0,0.0,0.0,0.0,0.0,0.0,0.0,0.0,0.0,0.0,0.0,0.0,0.0,0.0,0.0,0.0,0.0,0.0,0.0,0.0,0.0,0.0,0.0,0.0,0.0,0.0,0.0,0.0,0.0,0.0,0.0,0.0,0.0,0.0,0.0,0.0,0.0,0.0,0.0,0.0,0.0,0.0,0.0,0.0,0.0,0.0,0.0,0.0,0.0,0.0,0.0,0.0,0.0,0.0,0.0,0.0,0.0,0.0,0.0,0.0,0.0,0.0,0.0,0.0,0.0,0.0,0.0,0.0,0.0,0.0,0.0,0.0,0.0,0.0,0.0,0.0,0.0,0.0,0.0,0.0,0.0,0.0,0.0,0.0,0.0,0.0,0.0,0.0,0.0,0.0,0.0,0.0,0.0,0.0,0.0,0.0,0.0,0.0,0.0,0.0,0.0,0.0,0.0,0.0,0.0,0.0,0.0,0.0,0.0,0.0,0.0,0.0,0.0,0.0,0.0,0.0,0.0,0.0,0.0,0.0,0.0,0.0,0.0,0.0,0.0,0.0,0.0,0.0,0.0,0.0,0.0,0.0,0.0,0.0,0.0,0.0,0.0,0.0,0.0,0.0,0.0,0.0,0.0,0.0,0.0,0.0,0.0,0.0,0.0,0.0,0.0,0.0,0.0,0.0,0.0,0.0,0.0,0.0,0.0,0.0,0.0,0.0,0.0,0.0,0.0,0.0,0.0,0.0,0.0,0.0,0.0,0.0,0.0,0.0,0.0,0.0,0.0,0.0,0.0,0.0,0.0,0.0,0.0,0.0,0.0,0.0,0.0,0.0,0.0,0.0,0.0,0.0,0.0,0.0,0.0,0.0,0.0,0.0,0.0,0.0,0.0,0.0,0.0,0.0,0.0,0.0,0.0,0.0,0.0,0.0,0.0,0.0,0.0,0.0,0.0,0.0,0.0,0.0,0.0,0.0,0.0,0.0,0.0,0.0,0.0,0.0,0.0,0.0,0.0,0.0,0.0,0.0,0.0,0.0,0.0,0.0,0.0,0.0,0.0,0.0,0.0,0.0,0.0,0.0,0.0,0.0,0.0,0.0,0.0,0.0,0.0,0.0,0.0,0.0,0.0,0.0,0.0,0.0,0.0,0.0,0.0,0.0,0.0,0.0,0.0,0.0,0.0,0.0,0.0,0.0,0.0,0.0,0.0,0.0,0.0,0.0,0.0,0.0,0.0,0.0,0.0,0.0,0.0,0.0,0.0,0.0,0.0,0.0,0.0,0.0,0.0,0.0,0.0,0.0,0.0,0.0,0.0,0.0,0.0,0.0,0.0,0.0,0.0,0.0,0.0,0.0,0.0,0.0,0.0,0.0,0.0,0.0,0.0,0.0,0.0,0.0,0.0,0.0,0.0,0.0,0.0,0.0,0.0,0.0,0.0,0.0,0.0,0.0,0.0,0.0,0.0,0.0,0.0,0.0,0.0,0.0,0.0,0.0,0.0,0.0,0.0,0.0,0.0,0.0,0.0,0.0,0.0,0.0,0.0,0.0,0.0,0.0,0.0,0.0,0.0,0.0,0.0,0.0,0.0,0.0,0.0,0.0,0.0,0.0,0.0,0.0,0.0,0.0,0.0,0.0,0.0,0.0,0.0,0.0,0.0,0.0,0.0,0.0,0.0,0.0,0.0,0.0,0.0,0.0,0.0,0.0,0.0,0.0,0.0,0.0,0.0,0.0,0.0,0.0,0.0,0.0,0.0,0.0,0.0,0.0,0.0,0.0,0.0,0.0,0.0,0.0,0.0,0.0,0.0,0.0,0.0,0.0,0.0,0.0,0.0,0.0,0.0,0.0,0.0,0.0,0.0,0.0,0.0,0.0,0.0,0.0,0.0,0.0,0.0,0.0,0.0,0.0,0.0,0.0,0.0,0.0,0.0,0.0,0.0,0.0,0.0,0.0,0.0,0.0,0.0,0.0,0.0,0.0,0.0,0.0,0.0,0.0,0.0,0.0,0.0,0.0,0.0,0.0,0.0,0.0,0.0,0.0,0.0,0.0,0.0,0.0,0.0,0.0,0.0,0.0,0.0,0.0,0.0,0.0,0.0,0.0,0.0,0.0,0.0,0.0,0.0,0.0,0.0,0.0,0.0,0.0,0.0,0.0,0.0,0.0,0.0,0.0,0.0,0.0,0.0,0.0,0.0,0.0,0.0,0.0,0.0,0.0,0.0,0.0,0.0,0.0,0.0,0.0,0.0,0.0,0.0,0.0,0.0,0.0,0.0,0.0,0.0,0.0,0.0,0.0,0.0,0.0,0.0,0.0,0.0,0.0,0.0,0.0,0.0,0.0,0.0,0.0,0.0,0.0,0.0,0.0,0.0,0.0,0.0,0.0,0.0,0.0,0.0,0.0,0.0,0.0,0.0,0.0,0.0,0.0,0.0,0.0,0.0,0.0,0.0,0.0,0.0,0.0,0.0,0.0,0.0,0.0,0.0,0.0,0.0,0.0,0.0,0.0,0.0,0.0,0.0,0.0,0.0,0.0,0.0,0.0,0.0,0.0,0.0,0.0,0.0,0.0,0.0,0.0,0.0,0.0,0.0,0.0,0.0,0.0,0.0,0.0,0.0,0.0,0.0,0.0,0.0,0.0,0.0,0.0,0.0,0.0,0.0,0.0,0.0,0.0,0.0,0.0,0.0,0.0,0.0,0.0,0.0,0.0,0.0,0.0,0.0,0.0,0.0,0.0,0.0,0.0,0.0,0.0,0.0,0.0,0.0,0.0,0.0,0.0,0.0,0.0,0.0,0.0,0.0,0.0,0.0,0.0,0.0,0.0,0.0,0.0,0.0,0.0,0.0,0.0,0.0,0.0,0.0,0.0,0.0,0.0,0.0,0.0,0.0,0.0,0.0,0.0,0.0,0.0,0.0,0.0,0.0,0.0,0.0,0.0,0.0,0.0,0.0,0.0,0.0,0.0,0.0,0.0,0.0,0.0,0.0,0.0,0.0,0.0,0.0,0.0,0.0,0.0,0.0,0.0,0.0,0.0,0.0,0.0,0.0,0.0,0.0,0.0,0.0,0.0,0.0,0.0,0.0,0.0,0.0,0.0,0.0,0.0,0.0,0.0,0.0,0.0,0.0,0.0,0.0,0.0,0.0,0.0,0.0,0.0,0.0,0.0,0.0,0.0,0.0,0.0,0.0,0.0,0.0,0.0,0.0,0.0,0.0,0.0,0.0,0.0,0.0,0.0,0.0,0.0,0.0,0.0,0.0,0.0,0.0,0.0,0.0,0.0,0.0,0.0,0.0,0.0,0.0,0.0,0.0,0.0,0.0,0.0,0.0,0.0,0.0,0.0,0.0,0.0,0.0,0.0,0.0,0.0,0.0,0.0,0.0,0.0,0.0,0.0,0.0,0.0,0.0,0.0,0.0,0.0,0.0,0.0,0.0,0.0,0.0,0.0,0.0,0.0,0.0,0.0,0.0,0.0,0.0,0.0,0.0,0.0,0.0,0.0,0.0,0.0,0.0,0.0,0.0,0.0,0.0,0.0,0.0,0.0,0.0,0.0,0.0,0.0,0.0,0.0,0.0,0.0,0.0,0.0,0.0,0.0,0.0,0.0,0.0,0.0,0.0,0.0,0.0,0.0,0.0,0.0,0.0,0.0,0.0,0.0,0.0,0.0,0.0,0.0,0.0,0.0,0.0,0.0,0.0,0.0,0.0,0.0,0.0,0.0,0.0,0.0,0.0,0.0,0.0,0.0,0.0,0.0,0.0,0.0,0.0,0.0,0.0,0.0,0.0,0.0,0.0,0.0,0.0,0.0,0.0,0.0,0.0,0.0,0.0,0.0,0.0,0.0,0.0,0.0,0.0,0.0,0.0,0.0,0.0,0.0,0.0,0.0,0.0,0.0,0.0,0.0,0.0,0.0,0.0,0.0,0.0,0.0,0.0,0.0,0.0,0.0,0.0,0.0,0.0,0.0,0.0,0.0,0.0,0.0,0.0,0.0,0.0,0.0,0.0,0.0,0.0,0.0,0.0,0.0,0.0,0.0,0.0,0.0,0.0,0.0,0.0,0.0,0.0,0.0,0.0,0.0,0.0,0.0,0.0,0.0,0.0,0.0,0.0,0.0,0.0,0.0,0.0,0.0,0.0,0.0,0.0,0.0,0.0,0.0,0.0,0.0,0.0,0.0,0.0,0.0,0.0,0.0,0.0,0.0,0.0,0.0,0.0,0.0,0.0,0.0,0.0,0.0,0.0,0.0,0.0,0.0,0.0,0.0,0.0,0.0,0.0,0.0,0.0,0.0,0.0,0.0,0.0,0.0,0.0,0.0,0.0,0.0,0.0,0.0,0.0,0.0,0.0,0.0,0.0,0.0,0.0,0.0,0.0,0.0,0.0,0.0,0.0,0.0,0.0,0.0,0.0,0.0,0.0,0.0,0.0,0.0,0.0,0.0,0.0,0.0,0.0,0.0,0.0,0.0,0.0,0.0,0.0,0.0,0.0,0.0,0.0,0.0,0.0,0.0,0.0,0.0,0.0,0.0,0.0,0.0,0.0,0.0,0.0,0.0,0.0,0.0,0.0,0.0,0.0,0.0,0.0,0.0,0.0,0.0,0.0,0.0,0.0,0.0,0.0,0.0,0.0,0.0,0.0,0.0,0.0,0.0,0.0,0.0,0.0,0.0,0.0,0.0,0.0,0.0,0.0,0.0,0.0,0.0,0.0,2.3971,0.0,0.0,0.0,0.0,0.0,0.0,0.0,0.0,0.0,0.0,0.0,0.0,0.0,0.0,0.0,0.0,0.0,0.0,0.0,0.0,0.0,0.0,0.0,0.0,0.0,0.0,0.0,0.0,0.0,0.0,0.0,0.0,0.0,0.0,0.0,0.0,0.0,0.0,0.0,1.8047,1.8571,1.9146,1.94,1.8964,1.7975,0.0,0.0,0.0,0.0,0.0,0.0,0.0,0.0,0.0,0.0,0.0,0.0,0.0,0.0,0.0,0.0,0.0,0.0,0.0,0.0,0.0,0.0,0.0,0.0,0.0,0.0,0.0,0.0,0.0,0.0,0.0,0.0,0.0,0.0,0.0,0.0,0.0,0.0,0.0,0.0,0.0,0.0,0.0,0.0,0.0,0.0,0.0,0.0,0.0,0.0,0.0,0.0,0.0,0.0,0.0,0.0,0.0,0.0,0.0,0.0,0.0,0.0,0.0,0.0,0.0,0.0,0.0,0.0,0.0,0.0,0.0,2.4793,0.0,0.0,0.0,0.0,0.0,0.0,0.0,0.0,0.0,0.0,0.0,0.0,0.0,0.0,0.0,0.0,0.0,0.0,0.0,0.0,0.0,0.0,0.0,1.57,1.596,1.6324,1.651,1.68,0.0,0.0,0.0,0.0,0.0,0.0,0.0,1.791,1.8035,1.8007,1.895,1.9906,2.0883,2.1482,2.0906,1.9377,1.8917,0.0,0.0,0.0,0.0,0.0,0.0,0.0,0.0,0.0,0.0,0.0,0.0,0.0,0.0,0.0,0.0,0.0,0.0,0.0,0.0,0.0,0.0,0.0,0.0,0.0,0.0,0.0,0.0,0.0,0.0,0.0,0.0,0.0,0.0,0.0,0.0,0.0,0.0,0.0,0.0,0.0,0.0,0.0,0.0,0.0,0.0,0.0,0.0,0.0,0.0,0.0,0.0,0.0,0.0,0.0,0.0,0.0,0.0,0.0,0.0,0.0,0.0,0.0,2.734,2.7608,2.7765,2.8466,2.8762,2.8662,2.7548,2.7171,2.7267,2.6402,0.0,0.0,0.0,0.0,0.0,0.0,0.0,0.0,0.0,0.0,0.0,0.0,0.0,0.0,0.0,0.0,0.0,0.0,0.0,0.0,0.0,1.5679,1.5758,1.6499,1.6117,1.6026,1.6428,0.0,0.0,0.0,0.0,0.0,1.7534,1.8236,1.8804,1.9256,2.0712,2.1478,2.1569,2.1838,2.204,2.2127,2.1216,2.0462,1.986,0.0,0.0,0.0,0.0,0.0,0.0,0.0,0.0,0.0,0.0,0.0,0.0,0.0,0.0,0.0,0.0,0.0,0.0,0.0,0.0,0.0,0.0,0.0,0.0,0.0,0.0,0.0,0.0,0.0,0.0,0.0,0.0,0.0,0.0,0.0,0.0,0.0,0.0,0.0,0.0,0.0,2.2867,2.2677,0.0,0.0,0.0,0.0,0.0,0.0,0.0,0.0,0.0,0.0,0.0,0.0,0.0,2.7168,2.6925,2.7648,2.8088,2.826,2.8939,2.935,2.9475,2.9755,3.0069,3.0368,3.02,0.0,2.7878,2.7563,0.0,0.0,0.0,0.0,0.0,0.0,0.0,0.0,0.0,0.0,0.0,0.0,0.0,0.0,0.0,0.0,0.0,0.0,0.0,0.0,0.0,1.6267,1.6693,1.723,1.7581,1.7748,1.7654,1.7799,0.0,0.0,0.0,1.7932,1.8164,1.8588,1.9548,2.1018,2.2305,2.3102,2.3447,2.373,2.3927,2.4035,2.3593,2.2689,2.1531,2.166,0.0,0.0,0.0,0.0,0.0,0.0,0.0,0.0,0.0,0.0,0.0,0.0,0.0,0.0,0.0,0.0,0.0,0.0,0.0,0.0,0.0,0.0,0.0,0.0,0.0,0.0,0.0,0.0,0.0,0.0,0.0,0.0,0.0,0.0,0.0,0.0,0.0,0.0,0.0,2.3599,2.4007,2.3927,2.4283,2.4459,0.0,0.0,0.0,0.0,0.0,0.0,0.0,0.0,0.0,2.8126,2.8801,2.9218,2.9292,2.9949,3.0547,3.1083,3.1021,3.1227,3.1645,3.1584,3.1654,3.1821,3.1777,3.1338,3.0564,2.9574,2.9004,2.8762,0.0,0.0,0.0,0.0,2.8961,2.8721,0.0,0.0,0.0,0.0,0.0,0.0,0.0,0.0,0.0,0.0,0.0,0.0,1.6209,1.6909,1.7606,1.8229,1.8829,1.9036,1.8721,1.8761,1.8619,1.8214,1.8171,1.8414,1.8938,1.9577,2.0859,2.281,2.3837,2.4567,2.5005,2.5254,2.5312,2.5238,2.5283,2.4523,2.321,2.3543,2.3305,2.2709,0.0,0.0,0.0,0.0,0.0,0.0,0.0,0.0,0.0,0.0,0.0,0.0,0.0,0.0,0.0,0.0,0.0,0.0,0.0,0.0,0.0,0.0,0.0,0.0,0.0,0.0,0.0,0.0,0.0,0.0,0.0,0.0,0.0,0.0,0.0,0.0,0.0,2.4757,2.5186,2.5337,2.5629,2.584,0.0,0.0,0.0,0.0,0.0,0.0,2.9229,2.9604,3.003,3.0482,3.1025,3.1489,3.1839,3.2335,3.2921,3.3562,3.3115,3.3147,3.3632,3.3431,3.3372,3.3407,3.3366,3.3404,3.3343,3.1506,3.0679,3.0554,3.0203,3.0005,3.0009,3.069,3.0588,3.0258,0.0,0.0,0.0,0.0,0.0,0.0,0.0,0.0,0.0,0.0,0.0,1.6365,1.7141,1.739,1.8061,1.9483,1.8958,1.8588,1.8687,1.8597,1.8507,1.8478,1.8716,1.9096,1.9635,2.1592,2.3214,2.4477,2.536,2.5714,2.556,2.5576,2.5579,2.5579,2.5767,2.5357,2.4518,2.4658,2.4456,2.3977,2.3604,0.0,0.0,0.0,0.0,0.0,0.0,0.0,0.0,0.0,0.0,0.0,0.0,0.0,0.0,0.0,0.0,0.0,0.0,0.0,0.0,0.0,0.0,0.0,0.0,0.0,0.0,0.0,0.0,0.0,0.0,0.0,0.0,0.0,0.0,0.0,0.0,0.0,0.0,2.687,2.7396,0.0,0.0,0.0,0.0,2.8609,2.9372,3.0321,3.146,3.1865,3.2576,3.3729,3.3806,3.3925,3.4133,3.435,3.4575,3.4813,3.498,3.5063,3.5087,3.5077,3.5188,3.5362,3.537,3.5465,3.5452,3.2954,3.1901,3.1893,3.188,3.1866,3.1858,3.1903,3.1903,3.1889,0.0,0.0,0.0,0.0,0.0,0.0,0.0,0.0,1.4924,1.5225,1.5942,1.665,1.7239,1.8376,1.9394,2.0091,2.0274,2.0266,2.0,1.9827,1.9586,1.9293,1.9452,2.0098,2.1289,2.318,2.4464,2.5112,2.5856,2.6138,2.5989,2.6345,2.6367,2.6125,2.6328,2.639,2.6329,2.6253,2.585,2.526,2.5344,2.5119,0.0,0.0,0.0,0.0,0.0,0.0,0.0,0.0,0.0,0.0,0.0,0.0,0.0,0.0,0.0,0.0,0.0,0.0,0.0,0.0,0.0,0.0,0.0,0.0,0.0,0.0,0.0,0.0,0.0,0.0,0.0,0.0,0.0,0.0,0.0,0.0,0.0,2.7746,2.8554,0.0,2.8742,2.9494,3.0145,3.0546,3.1431,3.2316,3.3145,3.3417,3.3753,3.4181,3.4696,3.5054,3.5262,3.5682,3.6064,3.6445,3.6078,3.6134,3.6546,3.6232,3.6423,3.6979,3.6934,3.7054,3.7198,3.6113,3.5193,3.4454,3.4545,3.4519,3.4454,3.4545,3.4738,3.4973,0.0,0.0,0.0,0.0,0.0,0.0,0.0,0.0,1.4976,1.5437,1.6315,1.7172,1.7871,1.9282,2.0369,2.08,2.1237,2.1261,2.0748,2.0572,2.0365,2.005,2.0557,2.1581,2.3142,2.4351,2.5202,2.5663,2.6226,2.6457,2.6379,2.6799,2.6943,2.6872,2.7079,2.7323,2.757,2.7612,2.722,2.6549,2.6637,2.6393,2.5917,0.0,0.0,0.0,0.0,0.0,0.0,0.0,0.0,0.0,0.0,0.0,0.0,0.0,0.0,0.0,0.0,0.0,0.0,0.0,0.0,0.0,0.0,0.0,0.0,0.0,0.0,0.0,0.0,0.0,0.0,0.0,0.0,0.0,0.0,0.0,2.9104,2.8837,2.9875,3.052,3.0296,3.1218,3.2006,3.2471,3.3388,3.4162,3.4783,3.5194,3.5517,3.5704,3.6302,3.6798,3.7153,3.7575,3.8058,3.8581,3.82,3.8296,3.8773,3.8467,3.8644,3.9214,3.9169,3.9247,3.94,3.9222,3.8644,3.7797,3.691,3.6491,3.6404,3.6599,3.6839,3.7091,0.0,0.0,0.0,0.0,0.0,0.0,0.0,1.4992,1.5254,1.5992,1.6917,1.7955,1.9071,2.0049,2.0919,2.1635,2.1698,2.1413,2.0752,2.0721,2.0729,2.076,2.2025,2.3485,2.5076,2.5146,2.5535,2.626,2.6598,2.6769,2.6794,2.6986,2.7361,2.7875,2.8083,2.8161,2.8192,2.8693,2.851,2.7837,2.741,2.7048,2.6667,0.0,0.0,0.0,0.0,0.0,0.0,0.0,0.0,0.0,0.0,0.0,0.0,0.0,0.0,0.0,0.0,0.0,0.0,0.0,0.0,0.0,0.0,0.0,0.0,0.0,0.0,0.0,0.0,0.0,0.0,0.0,0.0,0.0,2.8897,2.9285,2.9836,3.0248,3.1455,3.2404,3.281,3.3559,3.4122,3.4345,3.5087,3.5805,3.6443,3.723,3.7925,3.855,3.8773,3.9206,3.9845,4.0071,4.0501,4.1145,4.133,4.1522,4.1713,4.1713,4.1834,4.2022,4.2041,4.2041,4.2047,4.2041,4.2047,4.176,3.891,3.7725,3.7655,3.7942,3.8069,3.8102,0.0,0.0,0.0,0.0,0.0,0.0,0.0,1.4911,1.5191,1.5745,1.705,1.8221,1.8973,2.0337,2.1313,2.1667,2.1698,2.1557,2.1233,2.1206,2.1443,2.1979,2.2964,2.4118,2.5432,2.6261,2.7058,2.7799,2.8035,2.8295,2.8586,2.8734,2.9053,2.9466,2.9532,2.9468,2.9335,2.9335,2.9307,2.9195,2.8492,2.8072,2.7838,0.0,0.0,0.0,0.0,0.0,0.0,0.0,0.0,0.0,0.0,0.0,0.0,0.0,0.0,0.0,0.0,0.0,0.0,0.0,0.0,0.0,0.0,0.0,0.0,0.0,0.0,0.0,0.0,0.0,0.0,0.0,0.0,3.1106,3.0267,3.0917,3.1738,3.2444,3.3099,3.3616,3.3863,3.434,3.4923,3.5567,3.5958,3.6816,3.8351,3.8647,3.9194,4.0139,4.0642,4.0999,4.1188,4.1674,4.1925,4.1975,4.1883,4.1948,4.2135,4.2135,4.2316,4.2671,4.2903,4.2963,4.2871,4.2989,4.2876,4.2474,4.0764,4.0079,3.9977,3.954,3.9557,3.9881,0.0,0.0,0.0,0.0,0.0,0.0,0.0,1.4872,1.5225,1.5869,1.7249,1.8472,1.9212,2.0553,2.1478,2.1682,2.1961,2.191,2.1435,2.1688,2.2386,2.3543,2.4071,2.4963,2.628,2.713,2.7864,2.8533,2.8951,2.9287,2.9509,2.9756,3.014,3.06,3.0596,3.0614,3.063,3.0512,3.0429,3.035,2.997,2.9463,2.8923,2.8833,2.8379,2.7731,2.7352,2.6929,2.6434,2.5605,0.0,0.0,0.0,0.0,0.0,0.0,0.0,0.0,0.0,0.0,0.0,0.0,0.0,0.0,0.0,0.0,0.0,0.0,0.0,0.0,0.0,0.0,0.0,0.0,3.2572,3.2892,3.2838,3.29,3.32,3.3829,3.4336,3.4803,3.5267,3.5747,3.6451,3.7448,3.7877,3.8644,3.9923,4.032,4.0791,4.1415,4.1941,4.2337,4.2618,4.3039,4.3342,4.3507,4.3402,4.3457,4.3635,4.3635,4.3806,4.4133,4.4406,4.4449,4.4313,4.4524,4.4471,0.0,0.0,0.0,0.0,0.0,4.1646,4.1888,0.0,0.0,0.0,0.0,0.0,0.0,0.0,1.4858,1.5313,1.6169,1.7443,1.8635,1.9576,2.0692,2.1466,2.1659,2.2202,2.226,2.1568,2.2136,2.3268,2.4971,2.5104,2.5844,2.7362,2.7847,2.8396,2.8986,2.9671,3.0026,3.0102,3.041,3.0881,3.1488,3.1488,3.1641,3.1867,3.1867,3.1665,3.1341,3.1494,3.0915,2.9896,2.9684,2.928,2.8747,2.8014,2.765,2.7389,2.6467,0.0,0.0,0.0,0.0,0.0,0.0,0.0,0.0,0.0,0.0,0.0,0.0,0.0,0.0,0.0,0.0,0.0,0.0,0.0,0.0,0.0,0.0,0.0,0.0,3.4249,3.4888,3.5943,3.517,3.4629,3.4944,3.5424,3.6075,3.6962,3.7542,3.836,3.9589,4.0187,4.0723,4.1288,0.0,0.0,0.0,0.0,4.3485,4.4142,4.4342,4.4745,4.5347,4.5329,4.539,4.5497,4.5524,4.5616,4.5771,4.6015,4.6006,4.5853,4.6171,4.6273,4.6071,4.4301,4.3458,4.3281,4.3636,4.3775,4.3776,0.0,0.0,0.0,0.0,0.0,0.0,0.0,1.4799,1.5269,1.6042,1.7308,1.8498,1.9443,2.0561,2.1301,2.1447,2.158,2.1834,2.2254,2.2423,2.3164,2.4634,2.5112,2.616,2.791,2.8817,2.9768,3.0793,3.1097,3.1469,3.1887,3.1643,3.194,3.2671,3.2671,3.2521,3.2287,3.2287,3.2243,3.2156,3.2028,3.1457,3.0648,3.0289,3.0204,3.0198,2.9525,2.9392,2.9416,2.8634,2.8454,2.843,2.7902,2.7554,0.0,0.0,0.0,0.0,0.0,0.0,0.0,0.0,0.0,0.0,0.0,0.0,0.0,0.0,0.0,0.0,0.0,0.0,0.0,3.499,3.5581,3.6351,3.7646,3.7765,3.7597,3.7303,3.7223,3.7715,3.9074,3.9305,3.9771,4.0718,4.0906,4.1449,4.2571,4.2931,4.35,4.4378,4.4638,4.5077,4.575,4.5793,4.5959,4.6244,0.0,0.0,4.5506,4.5662,4.5671,4.5589,4.6055,4.6178,4.6067,4.6225,4.6641,4.7006,4.5507,4.4579,4.4076,4.416,4.4178,4.4178,0.0,0.0,0.0,0.0,0.0,0.0,0.0,1.4742,1.524,1.5912,1.6981,1.8123,1.9235,1.9913,2.0595,2.1345,2.1803,2.2554,2.3721,2.3739,2.4247,2.5502,2.6152,2.7094,2.8379,2.9548,3.0579,3.1451,3.1815,3.2143,3.2394,3.2395,3.2674,3.3157,3.3157,3.3146,3.3143,3.294,3.2905,3.2974,3.2775,3.2458,3.2018,3.1321,3.0942,3.0746,3.0334,3.0222,3.019,2.9821,2.9692,2.9684,2.9583,2.9245,2.897,0.0,0.0,0.0,0.0,0.0,0.0,0.0,0.0,0.0,0.0,0.0,0.0,0.0,0.0,3.3545,0.0,0.0,3.5378,3.6552,3.7227,3.8019,3.9235,3.9571,3.9537,3.9105,3.9055,3.9507,4.0644,4.0752,4.1141,4.2132,4.2288,4.2879,4.4091,4.4337,4.4908,4.5866,4.6104,4.6427,4.6895,4.7098,4.7193,4.7189,4.693,4.6828,4.6846,4.6673,4.675,4.7019,4.7387,4.7457,4.7319,4.7484,4.7619,4.7661,4.7414,4.6711,4.5847,4.5847,4.5615,4.5302,0.0,0.0,0.0,0.0,0.0,0.0,0.0,1.4601,1.513,1.5755,1.6671,1.7708,1.8881,1.9238,1.9905,2.1152,2.2139,2.3287,2.4701,2.4868,2.5362,2.6427,2.7154,2.7955,2.8897,3.009,3.1034,3.1726,3.2209,3.248,3.2525,3.2881,3.3192,3.3413,3.3579,3.3727,3.3827,3.3657,3.3564,3.3532,3.3452,3.3415,3.3323,3.2473,3.1796,3.1274,3.1021,3.0855,3.0781,3.0703,3.0654,3.0694,3.1092,3.0838,3.045,3.0765,3.0503,0.0,0.0,0.0,0.0,0.0,0.0,0.0,0.0,0.0,3.2528,3.2436,3.3635,3.484,3.5282,3.5821,3.6637,3.7958,3.8761,3.9562,4.0588,4.0987,4.1163,4.1131,4.0906,4.1151,4.2154,4.2258,4.2738,4.3867,4.4096,4.4574,4.5502,4.5788,4.6239,4.6937,4.7197,4.7523,4.7901,4.8228,4.8332,4.8216,4.7946,4.7972,4.825,4.7851,4.7899,4.8306,4.8489,4.8588,4.8609,4.8801,4.8731,4.8534,4.9275,4.8922,4.7946,4.7673,4.7171,4.663,0.0,0.0,0.0,0.0,0.0,0.0,0.0,0.0,1.4815,1.554,1.6496,1.7432,1.8217,1.8969,1.9775,2.0699,2.1954,2.2981,2.3639,2.4446,2.5353,2.6368,2.6948,2.8004,2.9644,3.0351,3.1179,3.2123,3.2494,3.2766,3.2944,3.3157,3.3474,3.3859,3.4585,3.4426,3.3682,3.4357,3.4131,3.3359,3.3701,3.3828,3.3801,3.35,3.313,3.2665,3.1932,3.1883,3.2136,3.1829,3.2075,3.2444,3.2093,3.2076,3.2107,3.1572,3.1154,3.0873,3.0873,3.1272,3.1791,3.2334,3.2617,3.2929,0.0,0.0,3.4937,3.5259,3.5778,3.635,3.6929,3.7379,3.7906,3.8676,3.9663,4.0603,4.145,4.2101,4.2982,4.4301,4.2748,4.2278,4.4103,4.4283,4.482,4.6133,4.6238,4.6324,4.645,4.6815,4.707,4.7168,4.7585,4.8206,4.9009,4.9066,4.9181,4.9319,4.9277,4.8982,4.8461,4.859,4.8235,4.7526,4.7741,4.8248,4.8966,4.9157,4.959,5.0156,5.0443,5.0348,4.9912,4.8668,4.8033,4.773,0.0,0.0,0.0,0.0,0.0,0.0,0.0,0.0,0.0,1.508,1.5898,1.6835,1.7962,1.932,2.018,2.0234,2.1855,2.3151,2.3812,2.4691,2.5651,2.671,2.7485,2.8497,2.9775,3.0621,3.1438,3.22,3.2186,3.2402,3.2823,3.292,3.3231,3.3741,3.4084,3.398,3.3611,3.3825,3.3889,3.3838,3.4014,3.4313,3.4653,3.4557,3.443,3.408,3.2667,3.2332,0.0,3.2672,3.2875,3.3119,3.3264,3.3099,3.2785,3.2511,3.2081,3.1803,3.2268,3.259,3.2944,0.0,3.3919,3.4087,3.4555,3.5214,3.577,3.5942,3.6765,3.7487,3.7625,3.8302,3.913,0.0,4.0979,4.194,4.2899,4.359,4.4362,4.5412,4.4808,4.4746,4.5827,4.5929,4.6235,4.6959,4.7003,4.718,4.7568,4.7757,4.8136,4.8747,4.8955,4.9376,5.0016,5.0131,5.0163,5.0144,4.9948,4.9866,4.9882,4.9669,4.9641,4.9791,4.9865,4.993,5.0013,5.0426,5.0578,5.064,5.1146,5.1226,5.0922,4.9897,4.9128,4.8551,0.0,0.0,0.0,0.0,0.0,0.0,0.0,0.0,0.0,0.0,1.5311,1.6248,1.7633,1.9357,2.0303,2.0009,2.1821,2.3309,2.4034,2.4996,2.5988,2.6956,2.7848,2.8729,2.9617,3.0494,3.1215,3.1761,3.1844,3.2137,3.2614,3.2847,3.3226,3.3753,3.3984,3.4035,3.3936,3.3951,3.4151,3.4478,3.4519,3.4864,3.5354,3.5241,3.512,3.4827,3.3316,3.2858,3.2976,3.3029,3.3147,3.3319,3.3746,3.3516,3.3092,3.3004,3.277,3.2677,3.3312,3.3601,0.0,3.4726,3.4935,3.5043,3.5465,3.6169,3.6739,3.6854,3.7723,3.8523,3.8677,3.938,4.0275,4.1285,4.2287,4.3205,4.397,4.4606,4.5294,4.6163,4.6397,4.6772,4.7572,4.7425,4.7449,4.7819,4.7844,4.8063,4.8552,4.8683,4.9101,4.9886,5.003,5.0291,5.0685,5.0836,5.0848,5.0765,5.0518,5.0635,5.1051,5.0503,5.0753,5.1566,5.137,5.1175,5.105,5.149,5.1437,5.1147,5.1673,5.1767,5.1517,5.0981,5.0165,4.9289,0.0,0.0,0.0,0.0,0.0,0.0,0.0,0.0,0.0,0.0,0.0,0.0,0.0,1.8719,1.985,2.0161,2.1911,2.3296,2.396,2.5178,2.6222,2.6972,2.7707,2.8468,2.9203,2.9764,3.0248,3.0644,3.1626,3.2198,3.2423,3.3213,3.3759,3.4122,3.4966,3.5125,3.4804,3.5384,3.5449,3.518,3.5315,3.553,3.5736,3.5349,3.4953,3.4532,3.3887,3.3652,3.3541,3.2708,3.2736,3.3101,3.304,3.3068,3.3055,3.2789,3.3023,3.3417,3.3624,0.0,3.4759,3.556,3.5761,3.602,3.6999,3.7756,3.8338,3.8735,3.8995,3.9482,4.0515,4.09,4.1343,4.2231,4.3421,4.4241,4.4291,4.4811,4.5675,4.7,4.7166,4.7784,0.0,4.8745,4.8526,4.9186,4.9243,4.9249,4.9264,4.9636,4.987,4.9896,5.035,5.0685,5.0893,5.0903,5.0991,5.1183,5.116,5.127,5.1464,5.0925,5.109,5.1754,5.1024,5.1115,5.1773,5.1995,5.2068,5.206,5.2068,5.1959,5.1787,5.1771,5.1049,5.0015,0.0,0.0,0.0,0.0,0.0,0.0,0.0,0.0,0.0,0.0,0.0,0.0,0.0,0.0,0.0,0.0,2.1137,2.2375,2.3405,2.42,2.5236,2.6539,2.7046,2.7905,2.9171,2.9585,3.0068,3.0603,3.1073,3.1604,3.2215,3.2485,3.3027,3.3779,3.394,3.4232,3.4617,3.4676,3.5131,3.5794,3.5704,3.5961,3.631,3.5661,3.5235,3.4875,0.0,3.3216,3.2905,3.3421,3.342,3.331,3.3672,3.3541,3.3219,3.3177,3.3376,3.3813,3.4821,0.0,3.5733,3.7112,3.7467,3.7701,3.8562,3.9034,3.9305,3.9301,3.9563,3.987,4.0093,4.0998,4.1873,4.2447,4.3636,4.4587,4.4858,4.556,4.6417,4.7341,4.7978,0.0,0.0,0.0,0.0,4.9916,4.9961,5.002,5.0164,5.0291,5.0428,5.0554,5.1147,5.1562,5.1758,5.2249,5.2521,5.2582,5.2727,5.2909,5.3092,5.3037,5.3156,5.3362,5.2758,5.2703,5.3028,5.2467,5.2305,5.241,5.2193,5.2057,5.1977,5.1842,5.1566,5.122,0.0,0.0,0.0,0.0,0.0,0.0,0.0,0.0,0.0,0.0,0.0,0.0,0.0,0.0,0.0,0.0,0.0,2.1481,2.2862,2.3671,2.4785,2.6333,2.679,2.7561,2.8779,2.9132,2.9561,3.006,3.0414,3.0992,3.1778,3.19,3.2476,3.3376,3.3235,3.3535,3.4194,3.4345,3.4934,3.576,3.5567,3.5753,3.6069,3.5195,3.4641,0.0,3.3797,3.3014,3.2355,3.3246,3.3452,3.3417,3.3875,3.3903,3.3738,3.3564,3.396,3.4687,3.5732,3.6354,3.6975,3.8113,3.8575,3.8881,3.9466,3.9899,4.0137,4.0077,4.0317,4.0556,4.0674,4.1587,4.2476,4.2972,4.4116,4.5104,4.5588,4.6219,4.7007,4.8044,4.8674,4.9377,0.0,0.0,0.0,5.0379,5.0398,5.0568,5.0935,5.1035,5.1244,5.1637,5.213,5.2463,5.2582,5.3136,5.348,5.361,5.3831,5.3986,5.4128,5.4401,5.4484,5.4403,5.4133,5.408,5.4129,5.3183,5.291,5.3043,5.2412,5.2214,5.225,5.2044,5.1935,5.1862,0.0,0.0,0.0,0.0,0.0,0.0,0.0,0.0,0.0,0.0,0.0,0.0,0.0,0.0,0.0,0.0,0.0,0.0,2.2277,2.3528,2.4834,2.6195,2.6833,2.7437,2.8059,2.8425,2.8756,2.9099,2.9657,3.0353,3.1152,3.1456,3.2058,3.2889,3.2829,3.3058,3.3583,3.4344,3.4845,3.511,3.4924,3.4954,3.5003,3.3997,3.3258,3.2841,3.3625,3.3041,3.1985,3.2386,3.2946,3.3514,3.3707,3.415,3.4509,3.3997,3.4798,3.5941,3.641,3.7403,3.8379,3.8649,3.9146,3.9629,3.9882,4.0428,4.0942,4.1164,4.1267,4.1518,0.0,0.0,4.3127,4.3846,4.4876,4.5807,4.6495,4.6779,4.7497,0.0,0.0,0.0,0.0,0.0,0.0,5.0685,0.0,5.0964,5.1662,5.1861,5.229,5.2992,5.3235,5.3376,5.3389,5.3626,5.3955,5.4357,5.4528,5.4614,5.4667,5.5033,5.5114,5.494,5.51,5.5165,5.5096,5.4164,5.3883,5.3908,5.2817,5.2483,5.259,5.2396,5.2217,5.2046,0.0,0.0,0.0,0.0,0.0,0.0,0.0,0.0,0.0,0.0,0.0,0.0,0.0,0.0,0.0,0.0,0.0,0.0,2.0722,2.2199,2.3442,2.4345,2.5675,2.6782,2.7629,2.8281,2.8756,2.9099,2.9099,2.953,3.0303,3.0132,3.0573,3.1504,3.1334,3.1745,3.2577,3.2941,3.3461,3.4078,3.4028,3.3954,3.3774,3.2907,3.2387,3.217,3.2465,3.2488,3.2522,0.0,0.0,0.0,0.0,3.4701,3.4966,3.5722,3.6082,3.6575,3.8077,3.8504,3.8801,3.9956,4.0351,4.0687,4.1535,4.1874,4.2139,4.2629,4.1961,4.1652,0.0,0.0,0.0,4.465,4.577,0.0,4.7632,4.8244,0.0,4.9361,0.0,5.0407,5.0801,5.1276,0.0,0.0,5.1646,5.1955,5.2821,5.2918,5.3028,5.3222,5.3809,5.4263,5.4571,5.5309,5.5893,5.6279,5.6184,5.6298,5.659,5.6683,5.6718,5.6648,5.6289,5.6143,5.6076,5.5284,5.4671,5.4176,5.3738,5.3267,5.2825,5.2773,5.2704,5.2659,0.0,0.0,0.0,0.0,0.0,0.0,0.0,0.0,0.0,0.0,0.0,0.0,0.0,0.0,0.0,0.0,0.0,0.0,0.0,2.1104,2.2444,2.3556,2.4528,2.5647,2.6907,2.7221,2.7655,2.8216,2.8291,2.8716,2.9472,2.9375,2.9736,3.046,3.0257,3.0409,3.0837,3.1539,3.2003,0.0,0.0,3.2537,3.2368,3.1676,3.139,3.1429,3.1831,3.2627,0.0,0.0,0.0,3.5178,3.5263,3.5544,3.596,3.667,0.0,3.7559,3.9063,3.9509,3.9799,4.0807,4.1284,4.1577,4.1898,4.2105,4.2217,4.2164,4.1681,0.0,0.0,0.0,0.0,0.0,0.0,0.0,4.8472,4.8968,4.9439,0.0,5.0477,0.0,5.143,5.181,5.2353,0.0,5.2766,5.2915,5.386,5.383,5.3966,5.4373,5.4878,5.5381,5.5866,5.6404,5.6863,5.7261,5.7148,5.7214,5.743,5.7523,5.7523,5.7432,0.0,5.711,5.7059,5.621,5.5689,5.5355,5.4824,5.421,5.364,5.3554,5.3249,5.2868,0.0,0.0,0.0,0.0,0.0,0.0,0.0,0.0,0.0,0.0,0.0,0.0,0.0,0.0,0.0,0.0,0.0,0.0,0.0,0.0,2.1596,2.3048,2.341,2.4278,2.5816,2.5738,2.607,2.6874,2.7206,2.7746,2.8438,2.8582,2.8926,2.9411,2.9268,2.9094,2.8969,3.0203,3.054,3.0282,3.083,3.1018,3.0909,0.0,3.0429,3.069,3.1515,3.3121,0.0,0.0,3.4791,3.5654,3.5856,3.6449,3.7113,3.7294,3.7855,3.8649,3.9714,4.0396,4.0913,4.1379,4.1958,4.2237,4.1624,4.177,4.1837,4.1102,0.0,4.1502,4.2346,4.3,4.39,4.5422,0.0,4.7509,4.9041,4.9343,4.9799,5.0822,5.0934,5.1268,5.2129,5.2284,5.2926,5.4332,5.3904,5.395,5.4795,5.4675,5.4987,5.5856,5.6126,5.6512,5.7034,5.7072,5.7271,5.7643,5.7615,5.7615,5.7652,5.7818,5.7799,5.7652,5.7818,5.7891,5.7848,5.7024,5.6731,5.6713,5.5802,5.5154,5.471,5.4334,5.3732,5.3072,0.0,0.0,0.0,0.0,0.0,0.0,0.0,0.0,0.0,0.0,1.2382,1.324,0.0,0.0,0.0,0.0,0.0,0.0,0.0,0.0,0.0,2.1076,2.2237,2.3215,2.3948,2.4681,2.5267,2.5693,2.565,2.5944,2.6567,2.6426,2.6736,2.7404,2.7602,2.7896,2.8295,2.8977,2.9319,2.9459,3.004,3.0067,2.9728,2.9853,0.0,0.0,3.1419,0.0,0.0,3.4813,3.5411,3.6289,3.6485,3.6974,3.764,3.8363,3.8795,3.9347,4.0743,4.0953,4.0986,4.1777,4.2186,4.2308,4.1967,4.2089,0.0,0.0,4.1837,4.1996,4.3778,4.3724,0.0,4.6233,0.0,0.0,0.0,0.0,5.0732,0.0,0.0,0.0,0.0,0.0,0.0,0.0,0.0,5.5199,5.5587,5.5583,5.5776,5.6277,5.6805,5.7148,5.7252,5.7411,5.7615,5.7845,5.768,5.7689,5.7845,5.7872,5.7872,5.7845,5.7872,0.0,5.7891,5.7719,5.7313,5.6722,5.596,5.5588,5.5361,5.4101,5.3923,5.4167,0.0,0.0,0.0,0.0,0.0,0.0,0.0,0.9219,0.9847,1.094,1.1751,1.2605,1.3633,1.3948,0.0,0.0,0.0,0.0,0.0,0.0,0.0,0.0,0.0,0.0,2.2086,2.2811,2.3303,2.3534,0.0,2.4656,2.5024,2.5483,2.5882,2.6235,2.6464,2.6707,2.6975,2.7422,2.7765,2.806,2.875,2.8979,2.8971,0.0,0.0,0.0,0.0,0.0,0.0,0.0,3.4898,3.5978,3.653,3.7111,3.7787,3.877,3.9346,3.9929,4.1208,4.1428,4.1425,4.2083,4.2335,4.224,4.1616,0.0,0.0,0.0,4.1186,4.1543,4.2849,0.0,0.0,0.0,0.0,0.0,0.0,0.0,0.0,0.0,0.0,0.0,0.0,0.0,0.0,0.0,0.0,5.579,5.6238,5.6366,5.6512,5.6716,5.7091,5.7402,5.7615,5.7708,5.7799,5.7891,5.7799,5.7799,5.7891,5.7891,5.7891,5.7891,5.7891,5.7891,5.7891,5.7891,5.7688,5.7298,5.6553,5.6266,5.6147,5.5048,5.4496,5.4221,0.0,0.0,0.0,0.0,0.0,0.0,0.0,0.9221,0.9736,1.0678,1.1154,1.1849,1.3071,1.3595,1.3933,0.0,0.0,0.0,0.0,0.0,0.0,0.0,0.0,0.0,0.0,0.0,0.0,2.1456,2.2667,0.0,0.0,0.0,0.0,0.0,2.5443,2.5645,2.5795,2.6177,2.6413,0.0,0.0,2.7838,0.0,0.0,0.0,0.0,0.0,0.0,0.0,0.0,3.4172,3.5369,3.628,3.7026,3.7751,3.8821,3.9569,4.026,4.1265,4.1583,4.1733,4.2141,4.2331,4.2177,4.127,4.1345,0.0,0.0,4.0487,4.1,4.1673,0.0,0.0,0.0,0.0,0.0,0.0,0.0,0.0,0.0,0.0,0.0,0.0,0.0,0.0,0.0,0.0,5.6287,5.667,5.693,5.7082,5.7129,5.7327,5.7578,5.7908,5.7891,5.7891,5.7891,5.7891,5.7891,5.7891,5.7891,5.7891,5.7891,5.7891,5.7891,5.7891,5.7891,5.7806,5.7586,5.685,5.6628,5.6626,5.5731,5.4904,5.421,0.0,0.0,0.0,0.0,0.0,0.0,0.0,0.9026,0.9464,1.0655,1.0942,1.135,1.2143,1.2911,1.3586,0.0,0.0,0.0,0.0,0.0,0.0,0.0,0.0,0.0,0.0,0.0,0.0,2.0343,2.1075,0.0,0.0,0.0,0.0,0.0,0.0,2.478,2.5392,2.5913,0.0,0.0,0.0,0.0,0.0,0.0,0.0,0.0,0.0,0.0,0.0,0.0,0.0,3.477,3.5814,3.6685,3.7535,3.8607,0.0,0.0,4.0831,4.1241,4.1476,4.1702,4.208,4.2207,4.1439,0.0,0.0,4.0609,4.0636,4.1,4.1673,4.2133,4.2869,4.4347,0.0,4.6725,0.0,0.0,0.0,0.0,0.0,0.0,0.0,0.0,0.0,0.0,0.0,5.7025,5.6709,5.7063,5.7355,5.7541,5.7735,5.7854,5.7891,5.7891,5.7891,5.7891,5.7891,5.7891,5.7891,5.7891,5.7891,5.7891,5.7891,5.7891,0.0,5.7891,5.7502,5.6833,5.6097,5.6108,5.636,5.4946,5.4671,5.4895,0.0,0.0,0.0,0.0,0.0,0.0,0.8619,0.8841,0.9199,0.9928,1.035,1.08,1.1381,1.1942,1.2605,0.0,0.0,0.0,0.0,0.0,0.0,0.0,0.0,0.0,0.0,0.0,1.8327,1.8505,1.9231,0.0,0.0,0.0,0.0,0.0,0.0,2.3544,2.3961,2.4667,0.0,0.0,0.0,0.0,0.0,0.0,0.0,0.0,0.0,0.0,0.0,0.0,0.0,0.0,3.5302,3.5785,0.0,0.0,3.92,3.9988,4.0778,4.1198,4.1448,4.165,4.1955,4.1999,4.112,0.0,4.1192,4.0375,4.0427,4.0711,4.0974,4.1577,4.2401,4.3541,4.4849,0.0,0.0,0.0,0.0,0.0,0.0,0.0,0.0,0.0,0.0,0.0,0.0,5.692,5.6882,5.7383,5.7643,5.7597,5.7799,5.7891,5.7891,5.7891,5.7891,5.7891,5.7891,5.7891,5.7891,5.7891,5.7891,5.7891,5.7891,5.7891,0.0,5.7891,5.7658,5.7202,5.6468,5.6518,5.6857,5.5825,5.5212,5.4883,0.0,0.0,0.0,0.0,0.0,0.7999,0.8456,0.8689,0.8972,0.944,0.9913,1.038,1.0832,1.1169,1.1693,1.2513,0.0,0.0,0.0,0.0,0.0,0.0,0.0,0.0,0.0,0.0,1.7197,1.7283,1.7897,1.8473,0.0,0.0,2.0164,2.0727,0.0,0.0,0.0,0.0,0.0,0.0,0.0,0.0,0.0,0.0,0.0,0.0,0.0,0.0,0.0,0.0,0.0,0.0,0.0,0.0,0.0,0.0,3.8754,3.9624,4.0569,4.1117,4.1423,4.1581,4.1711,4.1613,0.0,0.0,4.0812,4.0134,4.0261,4.0498,4.0498,4.1209,4.2098,4.2963,4.4458,4.5988,4.7375,0.0,0.0,0.0,0.0,0.0,0.0,0.0,0.0,0.0,0.0,5.6872,5.7082,5.7551,5.7744,5.7606,5.7799,5.7891,5.7891,5.7891,5.7891,5.7891,5.7891,5.7891,5.7891,5.7891,5.7891,5.7891,5.7891,5.7891,0.0,5.7844,5.7608,5.7217,5.664,5.6619,5.682,5.63,5.5529,5.4732,0.0,0.0,0.0,0.0,0.0,0.0,0.0,0.8599,0.8817,0.9418,0.9794,1.0165,1.0561,1.0728,1.1028,1.1568,0.0,0.0,0.0,0.0,0.0,0.0,0.0,0.0,0.0,0.0,1.6208,1.7,1.7342,1.7778,1.8313,1.8516,1.8937,1.9543,0.0,0.0,0.0,0.0,0.0,0.0,0.0,0.0,0.0,0.0,0.0,0.0,0.0,0.0,0.0,0.0,0.0,0.0,0.0,0.0,3.4448,0.0,3.7891,3.879,4.0061,4.089,4.1396,4.1396,4.1256,4.1041,0.0,0.0,4.0246,4.0043,4.0261,4.0498,4.0498,4.1209,4.203,4.2776,4.4351,4.5815,4.6696,0.0,0.0,0.0,0.0,0.0,0.0,0.0,0.0,0.0,0.0,0.0,5.7289,5.7495,5.7597,5.7597,5.7799,5.7891,5.7891,5.7891,5.7891,5.7891,5.7891,5.7891,5.7891,5.7891,5.7891,5.7891,5.7891,5.7891,0.0,5.768,5.7176,5.6483,5.6282,5.6079,5.5902,5.5902,5.5315,5.4536,0.0,0.0,0.0,0.0,0.0,0.0,0.0,0.8619,0.8835,0.9126,0.9568,0.991,1.0037,1.0293,1.0467,1.0499,0.0,0.0,0.0,0.0,0.0,0.0,0.0,0.0,0.0,0.0,1.5582,1.5968,1.6443,1.6838,1.7156,1.7769,1.8203,1.8509,1.9228,0.0,0.0,0.0,0.0,0.0,0.0,0.0,0.0,0.0,0.0,0.0,0.0,0.0,0.0,0.0,0.0,0.0,0.0,0.0,0.0,3.5123,3.669,0.0,3.8877,3.9489,3.9895,3.9895,3.9953,3.9915,3.9547,0.0,3.9995,3.9658,4.008,4.0652,4.1162,4.1852,4.2814,4.4236,4.5325,4.6341,0.0,0.0,0.0,0.0,0.0,0.0,0.0,0.0,0.0,0.0,5.6882,5.7034,5.7091,5.742,5.7662,5.7799,5.788,5.7891,5.7891,5.7891,5.7891,5.7891,5.7891,5.7891,5.7891,5.7891,5.7891,5.7891,5.7891,5.7818,5.7689,5.7625,5.7305,5.6842,5.6777,5.6625,5.6445,5.6445,5.5618,5.4536,0.0,0.0,0.0,0.0,0.0,0.0,0.0,0.858,0.8762,0.8968,0.9402,0.9712,0.9796,1.0029,1.0142,1.0007,0.0,0.0,0.0,0.0,0.0,0.0,0.0,0.0,0.0,1.5248,1.515,1.5274,1.584,1.6203,1.6388,1.712,1.7573,1.7797,1.8504,1.9063,0.0,0.0,0.0,0.0,0.0,0.0,2.357,0.0,0.0,0.0,0.0,0.0,0.0,0.0,0.0,0.0,0.0,0.0,0.0,0.0,3.5517,3.6939,0.0,3.8724,3.9116,3.9278,3.9294,0.0,0.0,0.0,3.9697,3.9454,3.9985,4.0737,4.1463,4.2209,4.3147,4.4489,4.5856,0.0,0.0,0.0,0.0,0.0,0.0,0.0,0.0,0.0,0.0,0.0,5.6815,5.6949,5.711,5.7355,5.7615,5.7891,5.7891,5.7891,5.7891,5.7891,5.7891,5.7891,5.7891,5.7891,5.7891,5.7891,5.7891,5.7908,5.7818,5.7717,0.0,5.7523,5.7299,5.6996,5.6996,5.6706,5.6282,5.6282,5.5345,5.4146,0.0,0.0,0.0,0.0,0.0,0.0,0.0,0.0,0.8617,0.8952,0.9284,0.9556,0.9756,0.9921,1.0015,0.9991,0.0,0.0,0.0,0.0,0.0,0.0,0.0,0.0,0.0,1.4954,1.4846,1.4881,1.5494,1.5853,1.5968,1.6631,1.7113,1.7422,1.7818,1.8474,0.0,0.0,0.0,0.0,0.0,0.0,0.0,0.0,0.0,0.0,0.0,0.0,0.0,0.0,0.0,0.0,0.0,0.0,0.0,0.0,0.0,0.0,0.0,3.8407,0.0,0.0,0.0,0.0,0.0,0.0,0.0,3.9442,4.0049,4.0799,4.154,4.2369,4.32,4.3938,4.605,0.0,0.0,0.0,0.0,0.0,0.0,0.0,0.0,0.0,0.0,5.669,5.6709,5.6882,5.7261,5.7299,5.7476,5.7845,5.7863,5.7881,5.7891,5.7891,5.7891,5.7891,5.7891,5.7891,5.7891,5.7891,5.7891,0.0,5.768,5.7597,5.756,5.7364,5.7134,5.6913,5.692,5.6338,5.5525,5.5525,5.4657,5.3564,0.0,0.0,0.0,0.0,0.0,0.0,0.0,0.0,0.0,0.0,0.9201,0.9402,0.9556,0.9919,1.0091,0.0,0.0,0.0,0.0,0.0,0.0,0.0,0.0,0.0,0.0,1.4524,1.4416,1.4668,1.5429,1.5715,1.5571,1.6786,1.737,1.7422,1.7818,1.8312,0.0,0.0,0.0,0.0,0.0,0.0,0.0,0.0,0.0,0.0,2.8073,2.9054,0.0,0.0,0.0,0.0,0.0,0.0,0.0,0.0,3.4198,3.4849,3.6397,0.0,3.7397,3.8107,3.8198,3.8307,0.0,0.0,0.0,0.0,0.0,0.0,0.0,0.0,0.0,0.0,0.0,0.0,0.0,0.0,0.0,0.0,0.0,0.0,0.0,0.0,0.0,5.669,5.6844,5.6968,5.7072,5.7224,5.7346,5.7439,5.7588,5.7744,5.7891,5.7891,5.7891,5.7891,5.7891,5.7891,5.7891,5.7891,5.7818,5.7671,5.7615,5.7514,5.7355,5.7158,5.6718,5.6143,5.5992,5.5449,5.4756,5.4756,5.4541,5.4194,0.0,0.0,0.0,0.0,0.0,0.0,0.0,0.0,0.0,0.0,0.0,0.0,0.0,0.0,0.0,0.0,0.0,0.0,0.0,0.0,0.0,0.0,0.0,1.3938,1.4515,1.4247,1.4256,1.4605,1.5411,1.5712,1.5572,1.6888,1.7505,1.7556,1.8182,1.8603,0.0,0.0,0.0,0.0,2.0722,0.0,0.0,0.0,0.0,0.0,2.7582,2.8727,0.0,3.0241,3.0663,3.1071,0.0,0.0,0.0,0.0,3.39,3.4552,3.5671,3.6341,3.6845,3.7472,3.782,3.8183,3.8695,0.0,0.0,0.0,0.0,0.0,0.0,0.0,0.0,0.0,0.0,0.0,0.0,0.0,0.0,0.0,0.0,0.0,0.0,0.0,5.669,5.669,5.6796,5.6901,5.6996,5.7101,5.7205,5.7299,5.7504,5.7652,5.7763,5.7845,5.7891,5.7891,5.7891,5.7891,5.7908,5.7799,5.7698,5.7588,5.7402,5.7077,5.6654,5.6551,5.6005,5.5263,5.5245,5.4724,5.3995,5.3995,5.3805,5.3516,0.0,0.0,0.0,0.0,0.0,0.0,0.0,0.0,0.0,0.0,0.0,0.0,0.0,0.0,0.0,0.0,0.0,0.0,0.0,0.0,0.0,0.0,0.0,1.353,1.4084,1.412,1.4324,1.4738,1.5529,1.587,1.58,1.6982,1.7662,1.7892,1.8654,1.9022,0.0,0.0,0.0,0.0,2.0877,0.0,0.0,0.0,0.0,0.0,0.0,0.0,0.0,3.026,3.0663,3.1071,3.1466,0.0,0.0,0.0,0.0,0.0,3.5296,3.6172,3.6966,3.7336,3.7796,3.8249,3.8608,0.0,0.0,0.0,0.0,0.0,0.0,0.0,0.0,0.0,0.0,0.0,0.0,0.0,0.0,0.0,0.0,0.0,0.0,5.5835,5.669,5.669,5.669,5.6767,5.6949,5.6949,5.7034,5.7205,5.7402,5.7523,5.7551,5.7781,5.7891,5.7891,5.7891,5.7872,5.7845,5.768,5.7519,5.7318,0.0,0.0,5.5736,5.5699,5.5173,5.4391,5.4529,5.4035,5.3242,5.3242,5.2953,5.2631,0.0,0.0,0.0,0.0,0.0,0.0,0.0,0.0,0.0,0.0,0.0,0.0,0.0,0.0,0.0,0.0,0.0,0.0,0.0,0.0,0.0,0.0,1.2269,1.2822,1.4066,1.4212,1.4626,1.5362,1.6113,1.6355,1.6146,1.7244,1.8044,1.8561,1.8862,1.9092,1.9242,0.0,0.0,0.0,0.0,0.0,0.0,0.0,0.0,0.0,0.0,0.0,0.0,3.0321,3.0663,3.1071,3.1466,0.0,0.0,0.0,0.0,0.0,3.5334,3.6582,3.7767,3.8002,3.8,3.8216,3.9286,0.0,0.0,0.0,0.0,0.0,0.0,0.0,0.0,0.0,0.0,0.0,0.0,0.0,0.0,0.0,0.0,0.0,0.0,5.5835,5.669,5.669,5.669,5.6709,5.6738,5.6747,5.6757,5.6786,5.6987,5.7176,5.7346,5.7708,5.7891,5.7891,5.7891,5.7808,5.7652,5.7615,5.7076,5.6162,0.0,5.5645,5.497,5.4795,5.4356,5.381,5.3674,5.3179,5.2548,5.2548,5.2846,5.3259,0.0,0.0,0.0,0.0,0.0,0.0,0.0,0.0,0.0,0.0,0.0,0.0,0.0,0.0,0.0,0.0,0.0,0.0,0.0,0.0,0.0,1.2289,1.2206,1.2721,1.3905,1.4182,1.4748,1.5664,1.6395,1.6615,1.6373,1.7314,1.8028,1.8551,1.8862,1.9052,1.9132,1.8942,1.9498,2.0498,0.0,0.0,0.0,0.0,0.0,0.0,0.0,0.0,0.0,0.0,3.0663,3.1071,3.1466,0.0,0.0,0.0,0.0,0.0,3.4933,3.6357,3.7879,3.8448,3.9,3.963,0.0,0.0,0.0,0.0,0.0,0.0,0.0,0.0,0.0,0.0,0.0,0.0,0.0,0.0,0.0,0.0,0.0,0.0,5.4508,5.5835,5.669,5.669,5.669,5.669,5.669,5.669,5.669,5.669,5.6901,5.7044,5.7139,5.743,5.768,5.7891,5.779,5.7689,5.758,5.6962,5.6406,5.5876,0.0,5.473,5.4033,5.3932,5.3554,5.2988,5.2899,5.2664,5.2391,5.2391,5.2598,5.2863,0.0,0.0,0.0,0.0,0.0,0.0,0.0,0.0,0.0,0.0,0.0,0.0,0.0,0.0,0.0,0.0,0.0,0.0,0.0,0.0,1.191,1.2222,1.2277,1.2765,1.3744,1.4311,1.5042,1.5956,1.6772,1.705,1.686,1.7392,1.7931,1.8492,1.8843,1.9032,1.9073,1.9073,1.942,2.0001,0.0,0.0,0.0,0.0,0.0,0.0,0.0,0.0,0.0,0.0,0.0,0.0,0.0,0.0,0.0,3.2027,3.3298,3.4601,3.4601,3.6131,3.7982,3.9025,0.0,0.0,0.0,0.0,0.0,0.0,0.0,0.0,0.0,0.0,0.0,0.0,0.0,0.0,0.0,0.0,0.0,0.0,0.0,5.4309,5.4475,5.5686,5.6507,5.6699,5.669,5.669,5.669,5.669,5.669,5.669,5.6844,5.6949,5.6996,5.6981,5.7234,5.7753,5.7429,5.7252,5.718,5.6118,5.5525,5.5279,5.4557,5.3829,5.3176,5.3176,5.2863,5.2391,5.2391,5.2391,5.2391,5.2391,5.2391,5.2391,0.0,0.0,0.0,0.0,0.0,0.0,0.0,0.0,0.0,0.0,0.0,0.0,0.0,0.0,0.0,0.0,0.0,0.0,0.0,0.0,1.1993,1.2021,1.2197,1.2738,1.3686,1.483,1.5751,1.6448,1.7441,1.7907,1.7886,1.7568,1.7868,1.869,1.8902,1.9102,1.9282,1.9282,1.9627,2.0206,2.0411,0.0,0.0,0.0,0.0,0.0,0.0,0.0,0.0,0.0,0.0,0.0,0.0,0.0,3.1646,3.1853,3.3186,3.4601,3.4601,3.6334,3.8516,4.0003,3.9978,0.0,4.1116,4.1586,0.0,4.2163,0.0,0.0,0.0,0.0,0.0,0.0,0.0,0.0,0.0,0.0,0.0,0.0,5.3027,5.3746,5.4425,5.522,5.5949,5.664,5.669,5.669,5.669,5.669,5.669,5.669,5.6709,5.6805,5.6996,5.6347,5.6443,5.7329,5.6631,5.6193,5.5999,5.5222,5.4396,5.3575,5.3507,5.3102,5.2474,5.2474,5.2441,5.2391,5.2391,5.2391,5.2391,5.2391,5.2391,5.2391,0.0,0.0,0.0,0.0,0.0,0.0,0.0,0.0,0.0,0.0,0.0,0.0,0.0,0.0,0.0,0.0,0.0,0.0,0.0,0.0,1.1929,1.2178,1.2388,1.3084,1.4358,1.4946,1.572,1.6691,1.7321,1.7625,1.7625,1.7597,1.8119,1.9078,1.915,1.9388,1.972,1.9412,1.9647,2.0226,2.0556,2.1605,0.0,0.0,0.0,0.0,0.0,0.0,0.0,0.0,3.0514,3.0958,3.1364,3.154,3.1664,3.1991,3.3279,3.4658,3.491,3.6864,3.9121,4.0368,4.1188,0.0,0.0,4.3166,4.3244,4.2973,4.323,0.0,0.0,0.0,0.0,0.0,0.0,0.0,0.0,0.0,0.0,5.2202,5.2921,5.3515,5.3796,5.4906,5.5717,5.5982,5.6432,5.669,5.669,5.669,5.669,5.669,5.6266,5.6103,5.6311,5.5448,5.5502,5.6417,5.5673,5.5286,5.5187,5.4319,5.3737,5.3375,5.2953,5.2631,5.2391,5.2391,5.2391,5.2391,5.2391,5.2391,5.2391,5.2391,5.2391,5.2391,0.0,0.0,0.0,0.0,0.0,0.0,0.0,0.0,0.0,0.0,0.0,0.0,0.0,0.0,0.0,0.0,0.0,0.0,1.179,1.1799,1.1919,1.2194,1.2516,1.3299,1.4582,1.4987,1.5777,1.6984,1.733,1.7566,1.7716,1.7769,1.8412,1.9519,1.9495,1.9751,2.0173,1.9844,1.9952,2.0372,2.0827,2.1938,0.0,0.0,0.0,0.0,0.0,0.0,0.0,0.0,3.0476,3.0892,3.1364,3.1549,3.1674,3.2009,3.3527,3.5142,3.5344,3.7301,3.9575,4.071,0.0,0.0,4.3765,4.4195,4.4259,4.3808,4.421,0.0,0.0,0.0,0.0,0.0,0.0,0.0,0.0,0.0,5.1922,5.2003,5.2596,5.3085,5.3309,5.4298,5.4995,5.5237,5.571,5.6001,5.6001,5.6001,5.6029,5.6096,5.5605,5.5413,5.5553,5.4924,5.4887,5.5443,5.4721,5.4472,5.4678,5.3794,5.3275,5.3069,5.2598,5.2391,5.2391,5.2391,5.2391,5.2391,5.2391,5.2391,5.2391,5.2391,5.254,5.2714,0.0,0.0,0.0,0.0,0.0,0.0,0.0,0.0,0.0,0.0,0.0,0.0,0.0,0.0,0.0,0.0,0.0,0.0,1.14,1.1781,1.2003,1.2003,1.2581,1.3306,1.4196,1.5006,1.6072,1.7402,1.7607,1.7932,1.8383,1.8131,1.8725,2.001,1.9952,2.0178,2.0608,2.0614,2.0605,2.0663,2.127,2.2439,2.3959,0.0,0.0,0.0,0.0,0.0,0.0,0.0,3.0406,3.0511,3.1114,3.1434,3.1646,3.1835,3.3937,3.6132,3.5861,3.7606,0.0,0.0,0.0,0.0,4.3607,4.431,4.4591,4.46,0.0,4.6385,4.6997,0.0,0.0,0.0,0.0,0.0,0.0,5.149,5.1573,5.1769,5.1977,5.2391,5.3111,5.3317,5.3697,5.4425,5.4508,5.4508,5.4508,5.4508,5.4584,5.4787,5.4796,5.4796,5.478,5.478,5.4678,5.4475,5.3746,5.378,5.4458,5.373,5.3036,5.2391,5.2408,5.2408,5.2391,5.2391,5.2391,5.2391,5.2391,5.2391,5.2408,5.2408,5.283,5.3415,0.0,0.0,0.0,0.0,0.0,0.0,0.0,0.0,0.0,0.0,0.0,0.0,0.0,0.0,0.0,0.0,0.0,0.0,1.1623,1.1855,1.2058,1.2197,1.2739,1.367,1.5011,1.6338,1.714,1.7402,1.7607,1.7932,1.8412,1.8744,1.9604,2.0858,2.1167,2.1308,2.1283,2.1151,2.1232,2.1492,2.2002,2.339,2.5219,0.0,0.0,0.0,0.0,0.0,0.0,0.0,0.0,0.0,3.1327,3.1549,3.1674,3.2009,3.3411,3.4978,3.547,3.763,0.0,0.0,0.0,0.0,0.0,4.3957,0.0,0.0,0.0,4.6932,4.726,0.0,0.0,4.9795,5.0585,5.1221,5.1277,5.1406,5.1573,5.1769,5.1977,5.2248,5.2591,5.3108,5.3482,5.3713,5.421,5.4508,5.4508,5.4508,5.4536,5.4584,5.4087,5.3878,5.4023,5.3505,5.3478,5.3932,5.3725,5.3644,5.3713,5.3507,5.3036,5.2424,5.2904,5.2837,5.2391,5.2391,5.2391,5.2391,5.2391,5.2681,5.3102,5.3102,5.3557,5.4177,0.0,0.0,0.0,0.0,0.0,0.0,0.0,0.0,0.0,0.0,0.0,0.0,0.0,0.0,0.0,0.0,0.0,0.0,0.0,1.1892,1.2129,1.2415,1.3091,1.4249,1.596,1.7038,1.7688,1.7927,1.804,1.8283,1.8643,1.9266,2.0226,2.1484,2.1772,2.1883,2.1846,2.188,2.207,2.2412,2.3014,2.4462,2.6304,0.0,0.0,0.0,0.0,0.0,0.0,0.0,0.0,0.0,3.1286,3.154,3.1714,3.2274,3.3911,3.5692,3.641,0.0,0.0,0.0,0.0,0.0,0.0,0.0,0.0,0.0,0.0,4.7601,4.7794,4.925,0.0,5.0361,5.0826,5.1202,5.1202,5.1378,5.1536,5.1675,5.1922,5.2148,5.2274,5.2718,5.3003,5.3003,5.3417,5.3665,5.3665,5.3665,5.3684,5.3731,5.3309,5.3139,5.3264,5.3106,5.322,5.3589,5.3589,5.3526,5.3399,5.3399,5.3036,5.2424,5.283,5.278,5.2391,5.2391,5.2557,5.2797,5.2797,5.3036,5.3441,5.373,5.4127,5.4541,0.0,0.0,0.0,0.0,0.0,0.0,0.0,0.0,0.0,0.0,0.7684,0.0,0.0,0.0,0.0,0.0,0.0,0.0,0.0,0.0,1.2197,1.2581,1.3557,1.4983,1.687,1.7249,1.7848,1.873,1.873,1.8842,1.9072,1.9683,2.0665,2.1929,2.195,2.208,2.2317,2.27,2.3042,2.3392,2.4215,2.5585,2.7168,2.7615,0.0,0.0,0.0,0.0,0.0,0.0,0.0,0.0,3.1123,3.1444,3.1767,3.2507,3.4859,3.7356,3.7963,0.0,0.0,0.0,0.0,0.0,0.0,0.0,0.0,0.0,0.0,0.0,0.0,0.0,5.0991,5.1164,5.1202,5.1202,5.1202,5.1378,5.1515,5.1534,5.1875,5.2102,5.213,5.2301,5.2391,5.2391,5.2391,5.2391,5.2391,5.2391,5.2463,5.2588,5.2588,5.2588,5.2588,5.3255,5.3508,5.3309,5.3318,5.3318,5.3309,5.3366,5.3069,5.2491,5.2491,5.2491,5.2507,5.2557,5.2953,5.3507,5.3507,5.3531,5.368,5.4359,5.4607,5.4707,0.0,0.0,0.0,0.0,0.0,0.0,0.0,0.0,0.0,0.0,0.0,0.0,0.0,0.0,0.0,0.0,0.0,0.0,0.0,0.0,1.2342,1.259,1.4052,1.5533,1.6952,1.7405,1.8062,1.8942,1.8942,1.9111,1.9487,2.0133,2.1054,2.2143,2.23,2.2603,2.3005,2.3255,2.3697,2.4303,2.5212,2.6285,2.7412,2.8075,2.8649,0.0,0.0,0.0,0.0,0.0,0.0,0.0,3.1207,3.1545,3.1871,3.2038,3.3904,3.6046,3.6703,3.9009,0.0,0.0,0.0,0.0,0.0,0.0,0.0,0.0,0.0,0.0,0.0,5.0119,5.1146,5.1193,5.1202,5.1202,5.1202,5.1378,5.1555,5.1721,5.1941,5.2157,5.2311,5.2365,5.2391,5.2391,5.2391,5.2391,5.2391,5.2391,5.2409,5.2436,5.2445,5.2445,5.2445,5.2702,5.2767,5.2623,5.2723,5.2723,5.2631,5.3159,5.3325,5.3176,5.3176,5.3176,5.3226,5.3805,5.4127,5.426,5.426,5.4624,5.5154,5.5293,5.536,5.5468,0.0,0.0,0.0,0.0,0.0,0.0,0.0,0.0,0.0,0.0,0.0,0.0,0.0,0.0,0.0,0.0,0.0,0.0,0.0,0.0,1.2602,1.3613,1.4918,1.6212,1.745,1.7941,1.8543,1.929,1.9508,1.9735,1.996,2.0916,2.1779,2.2563,2.3084,2.3453,2.3722,2.4334,2.488,2.539,2.6276,2.7203,2.8121,2.8598,2.8983,2.9275,2.9512,0.0,0.0,0.0,0.0,0.0,0.0,0.0,3.1806,3.2096,3.3926,3.6101,0.0,0.0,0.0,0.0,0.0,0.0,0.0,0.0,0.0,0.0,0.0,0.0,0.0,5.0024,5.1096,5.1183,5.1202,5.1202,5.1202,5.1471,5.1684,5.1787,5.2059,5.2275,5.2399,5.2391,5.2391,5.2391,5.2391,5.2391,5.2391,5.2391,5.2391,5.2391,5.2391,5.2391,5.2391,5.2471,5.2471,5.2391,5.2471,5.2471,5.2408,5.2763,5.292,5.292,5.292,5.3102,5.3432,5.3813,5.4392,5.5029,5.5029,5.527,5.5651,5.6008,5.5899,5.5641,0.0,0.0,0.0,0.0,0.0,0.0,0.0,0.0,0.0,0.0,0.0,0.0,0.0,0.0,0.0,0.0,0.0,0.0,0.0,0.0,0.0,1.4814,1.5811,1.6833,1.7922,1.8513,1.9101,1.9715,2.0186,2.044,2.0528,2.1628,2.2441,2.2992,2.3793,2.423,2.4439,2.544,2.6047,2.6394,2.7172,2.8013,2.8823,2.901,2.9216,2.9438,2.9702,2.9924,3.0133,3.033,0.0,0.0,0.0,0.0,3.1749,3.221,3.4185,3.6537,0.0,0.0,0.0,0.0,0.0,0.0,0.0,0.0,0.0,0.0,0.0,0.0,0.0,4.9759,5.0856,5.1158,5.1202,5.1202,5.1202,5.1548,5.1796,5.1796,5.2158,5.2391,5.2391,5.2391,5.2391,5.2391,5.2391,5.2391,5.2391,5.2391,5.2391,5.2391,5.2391,5.2391,5.2391,5.2391,5.2391,5.2391,5.2391,5.2391,5.2391,5.2391,5.2391,5.2408,5.2515,5.2887,5.3424,5.3664,5.4508,5.5608,5.575,5.5783,5.5849,5.6491,5.615,5.5426,0.0,0.0,0.0,0.0,0.0,0.0,0.0,0.0,0.0,0.0,0.0,0.0,0.0,0.0,0.0,0.0,0.0,0.0,0.0,0.0,0.0,1.5178,1.6241,1.7101,1.7732,1.8715,1.9538,2.0206,2.0625,0.0,0.0,0.0,0.0,2.3183,2.371,2.4359,2.5104,2.5838,2.6403,2.6871,2.7564,2.8219,2.8823,2.901,2.9216,2.9438,2.9702,2.9924,3.0133,3.033,3.0644,0.0,0.0,0.0,3.1839,3.1749,3.3856,3.6457,0.0,0.0,0.0,0.0,0.0,0.0,0.0,0.0,0.0,0.0,0.0,0.0,4.8604,4.9545,5.0417,5.1095,5.1202,5.1202,5.1202,5.1548,5.1796,5.1796,5.2158,5.2391,5.2391,5.2391,5.2391,5.2391,5.2391,5.2391,5.2391,5.2391,5.2391,5.2391,5.2391,5.2391,5.2391,5.2391,5.2391,5.2391,5.2391,5.2391,5.2391,5.2391,5.2391,5.2424,5.3019,5.3325,5.3507,5.479,5.5426,5.5667,5.6299,5.6557,5.6574,5.6656,5.5835,5.474,0.0,0.0,0.0,0.0,0.0,0.0,0.0,0.0,0.0,0.0,0.0,0.0,0.0,0.0,0.0,0.0,0.0,0.0,0.0,0.0,0.0,1.581,1.6817,1.758,1.8073,1.9103,1.9853,2.0303,2.0819,0.0,0.0,2.2567,2.3007,0.0,0.0,2.5046,2.5799,2.6356,2.6921,2.7526,2.8151,2.8737,2.9245,2.9258,2.9578,3.0011,2.9977,3.0174,3.0451,3.0533,3.0845,3.117,3.117,0.0,0.0,0.0,3.3344,0.0,3.7764,0.0,0.0,0.0,0.0,0.0,0.0,0.0,0.0,0.0,0.0,4.6902,4.8223,4.9279,5.0204,5.107,5.1202,5.1202,5.1202,5.1548,5.175,5.1647,5.2086,5.2363,5.2247,5.232,5.2347,5.2247,5.2345,5.2347,5.2247,5.2345,5.2391,5.2391,5.2391,5.2391,5.2391,5.2391,5.2391,5.2391,5.2391,5.2391,5.2391,5.2391,5.2391,5.2424,5.2714,5.3044,5.3448,5.4094,5.4846,5.5625,5.5958,5.6332,5.664,5.6249,5.5667,5.5045,0.0,0.0,0.0,0.0,0.0,0.0,0.0,0.0,0.0,0.0,0.0,0.0,0.0,0.0,0.0,0.0,0.0,0.0,0.0,0.0,0.0,1.6291,1.7376,1.8093,1.8373,1.9439,2.0147,2.045,0.0,0.0,2.259,2.3442,2.3857,0.0,2.5036,2.5747,0.0,0.0,2.7393,2.7861,2.8573,2.9221,2.9784,2.9764,3.0162,3.0688,3.0403,3.0493,3.0758,3.0778,3.0977,3.1235,3.1351,3.1619,0.0,0.0,0.0,0.0,0.0,0.0,0.0,0.0,0.0,0.0,0.0,0.0,0.0,0.0,4.5435,4.6162,4.7587,4.8614,4.9634,5.0744,5.0917,5.0991,5.117,5.1501,5.1675,5.1517,5.1941,5.2203,5.2111,5.2247,5.2283,5.2184,5.2274,5.2283,5.2184,5.2212,5.2266,5.2311,5.2275,5.2266,5.2311,5.2365,5.2391,5.2391,5.2391,5.2391,5.2391,5.2391,5.2391,5.2391,5.2391,5.2645,5.3087,5.3314,5.4133,5.527,5.5516,5.6058,5.6607,5.5866,5.5485,5.5137,0.0,0.0,0.0,0.0,0.0,0.0,0.0,0.0,0.0,0.0,0.0,0.0,0.0,1.1074,1.1361,1.2046,1.2302,1.3047,1.4533,1.5455,1.6076,1.6386,1.7844,0.0,1.8306,1.9598,2.0469,2.0867,0.0,0.0,2.2815,2.4193,2.4825,2.4867,2.5954,2.6238,2.6,0.0,0.0,2.7608,2.8591,2.95,0.0,0.0,0.0,0.0,0.0,0.0,3.0903,3.0961,3.1005,3.108,3.1457,0.0,0.0,0.0,0.0,0.0,0.0,0.0,0.0,0.0,0.0,0.0,0.0,0.0,0.0,0.0,4.5238,4.5789,4.6715,4.7385,4.832,4.99,5.0163,5.039,5.1095,5.1387,5.1508,5.149,5.1702,5.1904,5.2084,5.2111,5.2193,5.2365,5.222,5.2193,5.2365,5.2024,5.1922,5.2111,5.1931,5.1922,5.2111,5.2293,5.2391,5.2391,5.2391,5.2391,5.2391,5.2391,5.2391,5.2391,5.2391,5.2317,5.2228,5.3061,5.3745,5.4357,5.5244,5.6058,5.6607,5.5866,5.517,5.4458,0.0,0.0,0.0,0.0,0.0,0.0,0.0,0.0,0.0,0.0,0.0,0.0,0.0,1.1721,1.2005,1.2007,1.3057,1.4156,1.521,1.6009,1.6745,1.7396,1.8236,1.8776,1.8944,2.0099,2.076,0.0,0.0,2.2881,2.3462,2.4444,2.5195,2.5737,2.5871,2.6218,2.6766,2.7247,0.0,0.0,0.0,0.0,0.0,0.0,0.0,0.0,0.0,0.0,0.0,3.1706,3.1645,0.0,0.0,0.0,0.0,0.0,0.0,0.0,0.0,0.0,0.0,0.0,0.0,0.0,0.0,0.0,0.0,0.0,4.5315,4.5679,4.6251,4.6975,4.7889,4.9063,4.9277,4.954,5.0381,5.0672,5.0925,5.1266,5.1594,5.1785,5.1728,5.1831,5.1886,5.1822,5.1877,5.1886,5.1822,5.1813,5.1895,5.2093,5.2039,5.2086,5.2301,5.2356,5.2391,5.2391,5.2391,5.2391,5.2391,5.2391,5.2391,5.2391,5.2391,5.2363,5.2308,5.2493,5.3005,5.3745,5.4441,5.5225,5.5909,5.517,5.4723,5.4392,0.0,0.0,0.0,0.0,0.0,0.0,0.0,0.0,0.0,0.0,0.0,0.0,0.0,0.0,1.2845,1.3036,1.4215,1.5293,1.6053,1.6689,1.7261,1.7777,1.8515,1.9034,1.9292,2.0343,2.1081,2.1445,2.251,0.0,0.0,2.496,2.561,2.6105,2.6125,2.6529,0.0,0.0,0.0,2.899,0.0,0.0,3.1013,0.0,0.0,0.0,0.0,0.0,0.0,0.0,0.0,0.0,0.0,0.0,0.0,0.0,0.0,0.0,0.0,0.0,0.0,0.0,0.0,0.0,0.0,0.0,0.0,4.5064,4.5303,4.5524,4.5941,4.6462,4.7185,4.8178,4.839,4.8711,4.9469,4.9763,5.0139,5.0664,5.1032,5.1305,5.1483,5.1619,5.1675,5.161,5.1666,0.0,5.1601,5.1594,5.1649,5.1794,5.1922,5.2059,5.2203,5.2329,5.2391,5.2391,5.2391,5.2391,5.2391,5.2391,5.2391,5.2408,5.2336,5.2257,5.2194,5.213,5.2551,5.3265,5.3688,5.4573,5.5485,5.4492,5.4442,5.474,0.0,0.0,0.0,0.0,0.0,0.0,0.0,0.0,0.0,1.2364,0.0,0.0,0.0,0.0,0.0,1.523,1.5817,1.6409,1.707,1.7477,1.7629,1.7463,1.8645,1.9311,1.9359,2.0401,2.1455,2.2511,2.3206,2.4,2.492,2.5791,2.6105,2.5969,2.6816,2.7226,2.7287,0.0,2.8574,2.9229,0.0,3.0976,3.1296,0.0,0.0,0.0,3.2569,3.2792,0.0,3.3064,0.0,0.0,0.0,0.0,0.0,0.0,0.0,0.0,0.0,0.0,0.0,0.0,0.0,0.0,4.3208,0.0,0.0,4.4955,4.5195,4.534,4.5725,4.5798,4.6147,4.718,4.7524,4.7837,4.8395,4.8744,4.9156,4.971,4.9937,5.0406,5.1341,5.1438,5.1531,5.1727,5.1575,5.1573,5.1769,5.1417,5.1211,5.1211,5.1594,5.1796,5.1796,5.2185,5.2373,5.2373,5.2399,5.2382,5.2382,5.2391,5.2391,5.2399,5.2193,5.1986,5.1805,5.1995,5.2395,5.2899,5.311,5.4161,5.5393,5.3962,5.4359,5.5393,0.0,0.0,0.0,0.0,0.0,0.0,0.0,1.2746,1.2885,0.0,0.0,0.0,1.4156,1.4786,1.5491,1.6251,1.6623,1.7027,1.7497,1.7639,1.8014,1.8745,1.9253,1.9897,2.0737,2.1609,2.2374,2.3017,2.4012,2.4647,2.492,2.5791,2.6271,0.0,2.7115,2.7694,2.8179,2.8653,0.0,0.0,3.1012,3.1496,0.0,0.0,0.0,0.0,0.0,3.3882,3.3902,0.0,3.3384,3.2998,0.0,0.0,0.0,0.0,0.0,0.0,3.6619,0.0,0.0,0.0,0.0,0.0,0.0,0.0,0.0,4.4394,4.5097,4.5662,4.5771,4.5798,4.5898,4.6197,4.6409,4.681,4.7588,4.7784,4.8141,4.899,4.9006,4.9144,4.9649,4.9916,5.0204,0.0,5.088,5.1152,5.1352,5.1406,5.1415,5.1415,5.1675,5.1796,5.1796,5.1906,5.1977,5.1977,5.2104,5.2184,5.2193,5.232,5.2391,5.2399,5.2193,5.1986,5.1787,5.1702,5.1909,5.2366,5.2818,5.3733,5.4756,5.4343,5.478,5.5468,0.0,0.0,0.0,0.0,0.0,0.0,1.3328,1.3479,1.3667,0.0,0.0,0.0,1.524,1.5863,1.6469,1.7072,1.7253,1.7639,1.8316,1.8366,1.8807,1.98,2.0208,2.0857,2.1819,2.2551,2.3238,2.3911,2.4667,2.5171,2.546,2.6159,2.6612,2.6879,0.0,0.0,0.0,0.0,0.0,0.0,3.1412,0.0,0.0,3.305,3.3557,0.0,0.0,0.0,3.4605,3.4231,3.3695,0.0,0.0,0.0,0.0,0.0,0.0,0.0,0.0,0.0,0.0,0.0,0.0,0.0,4.1717,4.265,4.3594,0.0,4.5178,4.5698,4.578,4.5798,4.5798,4.5798,4.5905,4.6149,4.6664,4.6856,4.7229,4.8004,4.8066,4.8242,4.8741,4.8971,4.9174,4.9404,4.9797,5.0233,5.0714,5.1066,5.1284,5.1378,5.1573,5.1675,5.1675,5.175,5.1796,5.1796,5.1995,5.2102,5.2102,5.2318,5.2347,5.2265,5.2059,5.1858,5.1666,5.1462,5.1564,5.1889,5.2281,5.3228,5.4356,5.4116,5.4889,5.5958,0.0,0.0,0.0,1.3171,1.3564,1.3855,1.4061,1.4359,1.4638,0.0,1.5247,1.5776,1.6496,1.6761,1.7166,1.7819,1.788,1.8332,1.941,1.9459,1.9836,2.0737,2.132,2.197,2.2727,2.3337,2.4085,2.4975,2.52,2.5624,2.622,2.6727,2.7044,2.7205,0.0,0.0,0.0,0.0,0.0,3.0615,3.1699,3.2065,0.0,0.0,3.3451,3.3658,3.3679,3.4363,3.5201,3.4716,3.4137,0.0,0.0,0.0,0.0,0.0,3.3824,0.0,0.0,0.0,0.0,0.0,0.0,0.0,4.1793,4.2293,4.2938,0.0,0.0,4.5298,4.5489,4.5525,4.5534,4.5568,4.564,4.5703,4.5798,4.6062,4.643,4.6932,4.713,4.7488,4.8191,4.8283,4.8331,4.8368,4.8632,4.916,4.9992,5.0514,5.0892,5.1127,5.1312,5.1406,5.1424,5.1603,5.1704,5.1732,5.1959,5.2057,5.2039,5.2257,5.2265,5.2057,5.1858,5.1675,5.148,5.1277,5.1331,5.1517,5.1702,5.2758,5.4112,5.3655,5.4846,5.6561,0.0,0.0,0.0,1.3671,1.4052,1.4415,1.4616,1.4841,1.5093,1.5406,1.6211,1.6987,1.7619,1.792,1.8322,1.8933,1.899,1.9431,2.0513,2.044,2.081,2.1843,2.2219,2.2778,2.3629,2.4288,2.4904,2.5461,2.5826,2.6068,2.622,2.7014,2.7227,2.7014,2.8544,0.0,0.0,0.0,0.0,3.1348,3.2059,0.0,3.2996,3.3672,3.3962,3.4025,3.4189,3.4636,3.517,3.5388,3.5571,3.5638,0.0,0.0,0.0,0.0,0.0,0.0,0.0,0.0,0.0,0.0,0.0,0.0,4.0589,4.1258,4.1923,0.0,4.3089,4.37,4.383,4.3866,4.3925,4.4089,4.4557,4.511,4.5719,4.5862,4.6,4.626,4.6194,4.6262,4.6696,4.6971,4.7268,4.7595,4.8349,4.904,4.9588,4.9874,5.0221,5.0692,5.0762,5.0858,5.1017,5.1064,5.1162,5.1324,5.1693,5.1776,5.1636,5.1986,5.2057,5.1858,5.1647,5.1536,5.148,5.1277,5.1331,5.1499,5.1536,5.255,5.397,5.402,5.5068,5.6384,0.0,0.0,0.0,1.4267,1.4793,1.5279,1.5503,1.5749,1.6038,1.6452,1.7282,1.8016,1.8454,1.8887,1.9308,1.971,1.9957,2.0467,2.1339,2.1619,2.2182,2.3165,2.3423,2.3918,2.4734,2.5183,2.5562,2.5895,2.6345,2.6603,2.6704,2.7147,2.7673,2.8273,2.8853,2.943,0.0,0.0,3.1795,3.2293,3.2798,0.0,3.3476,3.4181,3.4455,3.4512,3.5031,3.5541,3.6092,3.6689,3.6633,0.0,0.0,3.5632,3.5445,0.0,3.5228,3.5833,0.0,0.0,0.0,3.8927,0.0,0.0,0.0,4.1132,4.1736,4.2251,4.2803,4.3214,4.3286,4.3359,4.3431,4.3525,4.4204,4.4835,4.5198,4.5577,4.5835,4.5941,4.5853,4.5871,4.6035,4.6192,4.6432,4.6722,4.7397,4.7985,4.8438,4.9126,4.967,5.0032,5.0416,5.0647,5.0743,5.0743,5.0801,5.0899,5.1305,5.1445,5.1368,5.1776,5.184,5.1647,5.1536,5.1434,5.135,5.124,5.1209,5.1209,5.1312,5.2181,5.3451,5.39,5.4884,5.6022,1.3659,0.0,0.0,1.4912,1.5566,1.6131,1.6337,1.6636,1.7028,1.7554,1.8396,1.907,1.9467,0.0,0.0,0.0,2.1264,2.1753,0.0,0.0,2.3681,2.4441,2.4658,2.5068,2.5699,2.5929,2.6104,2.6271,2.6737,2.7044,2.7205,2.7361,2.8142,2.9385,2.9215,2.9888,0.0,0.0,0.0,3.3156,0.0,3.3805,3.396,3.4605,3.4925,3.5115,3.581,3.6444,3.7051,3.7658,3.7267,3.6497,3.636,3.6031,0.0,0.0,0.0,0.0,0.0,0.0,0.0,0.0,0.0,4.0353,0.0,0.0,0.0,4.2299,4.2568,4.2691,0.0,4.2853,0.0,0.0,0.0,0.0,0.0,4.485,0.0,4.5767,4.5798,4.5798,4.5798,4.5798,4.5862,4.604,4.6432,4.6851,4.7262,4.8245,4.8977,4.9374,4.9965,5.0358,5.055,5.055,5.057,5.0592,5.0966,5.1136,5.1146,5.152,5.161,5.1434,5.1434,5.1359,5.1202,5.1202,5.1086,5.0922,5.1086,5.1753,5.2743,5.3496,5.4481,5.5538,1.4811,1.5161,0.0,0.0,1.6162,1.6623,1.6654,1.7031,1.7599,1.8353,1.9421,0.0,0.0,0.0,0.0,0.0,0.0,0.0,2.4527,0.0,0.0,2.5428,2.5636,2.5869,2.6131,2.6387,2.653,2.6551,2.6971,2.7185,2.7226,2.7998,2.8445,2.8688,2.9866,0.0,0.0,0.0,3.3214,0.0,3.4104,3.4555,0.0,3.5028,3.5405,3.59,3.6163,3.6642,3.7141,0.0,3.7185,3.7377,0.0,3.7707,3.7748,3.6272,0.0,0.0,0.0,0.0,0.0,0.0,3.9292,0.0,0.0,0.0,4.0504,4.0729,0.0,4.085,4.104,0.0,0.0,0.0,0.0,0.0,4.2039,4.3097,4.4399,4.5656,4.5798,4.5798,4.5798,4.5798,4.5807,4.5825,4.6049,4.6387,4.6845,4.7174,4.7843,4.8928,4.9055,4.9484,5.033,5.033,5.0418,5.0599,5.082,5.0925,5.0934,5.1164,5.1258,5.123,5.123,5.1221,5.1202,5.1202,5.1086,5.0903,5.0931,5.1266,5.1883,5.2974,5.3981,5.4933,1.537,1.5825,0.0,0.0,1.6937,1.7274,1.7274,1.7881,1.8625,1.9416,2.0155,0.0,0.0,0.0,0.0,0.0,0.0,2.4651,0.0,0.0,0.0,0.0,0.0,0.0,2.638,2.6754,2.7012,2.7115,2.7452,2.7665,2.7795,2.8269,2.8866,2.957,3.0407,0.0,3.2307,0.0,3.4119,0.0,0.0,0.0,0.0,3.5713,3.6365,3.7394,3.7493,3.7676,3.7874,0.0,3.773,0.0,0.0,0.0,0.0,0.0,0.0,0.0,0.0,0.0,0.0,0.0,0.0,0.0,4.0018,0.0,4.0375,0.0,0.0,0.0,0.0,0.0,0.0,0.0,4.1663,0.0,0.0,0.0,4.3796,0.0,0.0,0.0,4.511,4.5545,4.5798,4.5798,4.5887,4.6181,4.678,4.7298,4.7962,4.8876,4.9284,4.967,5.006,5.007,5.0109,5.0197,5.0437,5.0618,5.0733,5.0934,5.1096,5.1202,5.1202,5.1127,5.1029,5.1029,5.0839,5.0544,5.0544,5.0807,5.1353,5.2649,5.3594,5.4417,1.6349,0.0,0.0,0.0,0.0,1.7936,1.816,0.0,0.0,0.0,0.0,0.0,2.1802,2.2732,0.0,0.0,2.5148,2.581,0.0,0.0,2.6791,0.0,0.0,0.0,0.0,2.7179,2.74,2.7615,2.7859,2.806,2.8209,2.8518,2.9181,3.0159,0.0,3.184,3.3125,0.0,3.4587,3.5054,3.5607,3.6307,3.6992,3.6749,3.7383,3.8401,3.8401,3.8401,3.8372,3.8274,3.8006,0.0,3.6982,0.0,0.0,0.0,0.0,0.0,3.7131,0.0,0.0,0.0,0.0,0.0,0.0,0.0,0.0,0.0,0.0,0.0,0.0,0.0,4.0795,0.0,0.0,4.18,0.0,4.2345,0.0,0.0,0.0,0.0,0.0,4.5036,4.5577,4.5773,4.5972,4.6367,4.7056,4.7609,4.8209,4.8882,4.9369,4.9706,4.9896,4.9896,4.9896,4.9896,5.0099,5.033,5.0592,5.0743,5.0963,5.1193,5.1136,5.1029,5.0903,5.0903,5.0656,5.0311,5.036,5.0531,5.0903,5.2385,5.3269,5.394,1.8141,1.7613,0.0,0.0,0.0,0.0,0.0,0.0,0.0,0.0,0.0,0.0,0.0,0.0,0.0,0.0,0.0,2.7894,2.7911,0.0,2.8331,0.0,0.0,2.7566,0.0,2.7742,2.7625,2.7893,2.8091,2.8189,2.8219,2.8806,2.9304,2.9779,3.1089,3.2061,3.2783,3.3711,3.4382,3.486,3.5381,3.6596,3.8075,0.0,3.835,3.8401,3.8401,0.0,0.0,3.7951,3.7673,0.0,0.0,0.0,0.0,0.0,0.0,0.0,0.0,0.0,0.0,3.8182,0.0,0.0,0.0,0.0,3.9427,0.0,0.0,0.0,4.0028,4.0444,0.0,0.0,0.0,0.0,0.0,0.0,0.0,0.0,0.0,0.0,0.0,4.4232,4.504,0.0,4.6408,4.7087,4.783,4.7893,4.8209,4.8882,4.8914,4.9236,4.9896,4.9896,4.9896,4.9896,4.9906,5.0148,5.0599,5.0608,5.0839,5.1183,5.0991,5.0912,5.0903,5.0903,5.0656,5.0321,5.0505,5.0476,5.0515,5.2121,5.2973,5.3522,0.0,0.0,0.0,0.0,0.0,0.0,0.0,2.0797,0.0,0.0,0.0,0.0,0.0,2.5369,2.6225,0.0,0.0,2.8182,2.8449,2.8416,0.0,0.0,0.0,2.7929,0.0,2.8249,2.8249,2.8303,2.8371,2.8401,2.8411,2.8875,2.9598,3.0539,3.1665,3.288,0.0,0.0,0.0,0.0,0.0,3.7625,3.7936,0.0,3.8656,3.8996,3.8996,3.8738,0.0,3.823,3.8085,3.7919,3.7758,3.8166,3.865,3.8246,3.8401,3.8702,0.0,0.0,3.9103,3.9185,0.0,0.0,0.0,0.0,0.0,0.0,0.0,0.0,0.0,0.0,0.0,0.0,0.0,0.0,0.0,0.0,0.0,0.0,0.0,0.0,0.0,0.0,0.0,0.0,4.5735,4.6651,4.783,4.7893,4.8415,4.9527,4.9558,4.9659,4.9896,4.9896,4.9896,4.9896,4.9896,5.0079,5.0398,5.055,5.0753,5.0991,5.0941,5.0903,5.0893,5.0753,5.055,5.0311,5.0369,5.036,5.0515,5.225,5.3072,5.3532,1.988,0.0,0.0,0.0,0.0,0.0,0.0,0.0,0.0,0.0,2.4199,0.0,2.5324,0.0,2.6852,0.0,2.8167,2.8705,2.8968,2.8944,0.0,2.8936,2.8589,0.0,0.0,0.0,2.8744,2.9025,2.8686,2.85,2.852,2.9345,3.016,3.0956,3.2402,3.3745,3.494,0.0,3.6213,0.0,0.0,3.8377,0.0,0.0,3.8953,3.913,0.0,3.9196,3.8869,3.8869,3.8845,3.8776,3.8355,3.8832,3.9513,3.9362,3.9602,3.9977,4.0192,4.0228,0.0,4.0027,3.9912,0.0,3.9347,0.0,3.9443,0.0,0.0,0.0,0.0,0.0,0.0,0.0,0.0,0.0,0.0,3.9897,0.0,0.0,0.0,0.0,0.0,0.0,4.4306,4.504,4.553,4.6509,0.0,4.8266,4.8762,4.9864,4.9896,4.9896,4.9896,4.9896,4.9896,4.9896,4.9896,5.004,5.0311,5.0521,5.0666,5.0791,5.0791,5.0743,5.0676,5.055,5.036,5.0168,5.034,5.0398,5.0613,5.228,5.3384,5.4202,0.0,0.0,0.0,0.0,2.0917,0.0,0.0,0.0,2.4292,0.0,2.5356,2.6163,2.64,2.7243,2.7967,2.8431,2.9114,2.9531,2.9554,2.9783,0.0,0.0,2.9454,2.9713,3.0868,0.0,0.0,2.997,2.8997,2.8514,2.8532,3.0106,3.0874,3.1049,3.3211,0.0,3.5207,3.5774,3.6481,3.7316,3.8147,3.88,3.932,3.9606,3.9303,3.8816,3.9478,3.9711,3.9711,3.9711,3.9848,3.9888,3.9118,3.9729,4.0734,4.0775,4.1067,4.143,4.1676,4.14,4.096,4.0549,4.0271,0.0,0.0,0.0,3.9655,0.0,0.0,0.0,0.0,0.0,0.0,0.0,0.0,0.0,0.0,0.0,0.0,0.0,0.0,0.0,0.0,0.0,4.3555,4.5527,4.5748,4.6674,0.0,4.8851,4.9173,4.988,4.9896,4.9896,4.9896,4.9896,4.9896,4.9896,4.9896,5.004,5.0282,5.0486,5.0589,5.0589,5.0589,5.0492,5.033,5.0311,5.0158,4.9985,5.0428,5.064,5.0874,5.2233,5.3874,5.544,2.1833,2.2158,2.2372,0.0,2.2671,2.3156,0.0,0.0,0.0,0.0,2.6825,2.7323,2.8078,2.8679,2.9169,2.9488,2.9692,0.0,0.0,0.0,0.0,3.0703,3.0394,3.0339,3.0598,3.0079,0.0,2.9476,2.9017,2.8703,2.8522,2.9481,3.0608,3.1846,3.3006,3.4449,3.5996,3.6167,3.6857,3.7954,3.8956,3.9286,3.9202,0.0,3.9637,3.9277,3.9745,3.9922,3.9922,3.9922,4.0089,4.026,4.0053,4.0551,4.1163,4.0823,4.0904,4.1054,4.0816,4.0562,4.0295,4.0044,3.9935,3.9921,0.0,0.0,0.0,0.0,0.0,0.0,0.0,0.0,0.0,0.0,0.0,0.0,0.0,0.0,0.0,3.9779,0.0,0.0,0.0,4.2575,4.3443,4.3978,4.4982,4.628,4.7847,0.0,4.8689,4.9864,4.9896,4.9896,4.9896,4.9896,4.9896,4.9896,4.9896,4.9951,5.001,5.0262,5.0369,5.0369,5.0369,5.0521,5.0714,5.0418,5.0444,5.0647,5.0618,5.133,5.244,5.2959,5.4221,5.5675,2.2849,0.0,0.0,2.356,0.0,0.0,2.4792,2.5675,0.0,2.738,2.7857,0.0,2.9048,2.9451,2.9771,3.0011,3.0034,0.0,3.0408,0.0,0.0,3.0815,3.078,3.1103,3.1793,3.1304,0.0,3.0955,0.0,2.9589,2.901,3.0247,3.1331,3.2285,3.3717,3.5164,3.6601,3.7259,3.7913,3.8605,3.9481,3.9696,0.0,4.0005,4.0033,3.989,4.0199,4.0249,4.0176,4.0176,4.0328,4.0515,4.0431,4.0858,4.1354,4.1075,4.12,4.1397,4.1161,4.1028,4.096,4.104,4.0905,4.0845,4.1166,4.0935,4.0829,0.0,4.1411,4.1393,0.0,0.0,0.0,0.0,0.0,0.0,0.0,0.0,0.0,0.0,4.0347,0.0,0.0,4.2244,4.3453,4.3934,4.4625,4.5668,4.7171,0.0,4.8383,4.9432,4.9754,4.9896,4.9896,4.9896,4.9896,4.9896,4.9896,4.9896,4.9906,5.0184,5.0242,5.0129,5.0252,5.036,5.0457,5.034,5.0428,5.0647,5.0705,5.171,5.3137,5.3262,5.4297,5.5604,2.3851,0.0,0.0,0.0,0.0,0.0,0.0,2.6744,0.0,2.7841,0.0,2.9255,2.952,2.9817,3.0057,3.0238,0.0,3.0318,3.034,3.0566,3.0713,3.0746,3.1031,3.1874,3.3337,3.2592,3.2444,0.0,0.0,3.0743,2.9785,3.1526,3.2418,3.266,0.0,0.0,0.0,3.852,3.9153,3.9264,3.9821,4.0053,4.0075,4.0342,4.0442,4.045,4.0637,4.0587,4.0442,4.0442,4.0554,4.0669,4.0536,4.0919,4.1423,4.1406,4.1733,4.2063,4.198,4.196,4.2057,4.2434,4.2184,4.1953,4.2424,4.1945,4.1507,4.1922,4.1718,4.1701,4.2386,0.0,0.0,0.0,0.0,0.0,0.0,0.0,0.0,0.0,0.0,0.0,0.0,4.1755,4.331,4.4371,4.4369,4.5052,4.6808,0.0,4.8222,4.9009,4.9606,4.9896,4.9896,4.9896,4.9896,4.9896,4.9896,4.9896,4.9906,5.0138,5.0119,4.9906,5.0138,5.0138,5.001,5.0184,5.0282,5.0369,5.0743,5.1881,5.3301,5.3301,5.4191,5.5399,0.0,0.0,0.0,0.0,0.0,2.6595,2.6943,2.77,2.8354,2.8811,2.9199,2.9531,2.9806,3.0216,3.0487,3.0532,3.0736,0.0,0.0,0.0,0.0,3.1495,3.1971,3.2372,3.2671,3.2722,3.2573,0.0,0.0,3.1255,3.0606,3.1556,3.2492,3.3427,0.0,0.0,3.8014,3.8784,0.0,3.9868,4.0202,4.0331,4.0352,4.0565,4.0648,4.0648,4.0691,4.068,4.0648,4.0648,4.0669,4.0709,4.0845,4.1237,4.1608,4.1448,4.1966,4.2465,4.1906,4.175,4.1729,4.1654,4.1262,4.105,4.1518,4.1511,4.1507,4.1922,4.2235,4.2273,4.1661,0.0,0.0,0.0,0.0,0.0,0.0,0.0,0.0,0.0,0.0,4.1791,0.0,0.0,4.2052,4.3128,4.3537,4.4838,4.7321,0.0,4.8288,0.0,4.9833,4.9896,0.0,0.0,4.9896,4.9896,4.9896,4.9896,4.9896,4.9951,4.9935,4.9896,4.9951,5.0158,5.0447,5.0109,5.0197,5.0579,5.0801,5.1881,5.3301,5.3301,5.4191,5.5399,0.0,0.0,0.0,0.0,0.0,0.0,0.0,2.8378,2.8838,2.907,2.9451,2.9896,3.0411,3.0801,3.1169,3.1552,3.1702,3.1886,3.2114,3.2126,3.224,3.2514,3.2503,3.2861,3.3628,3.3488,3.333,3.3191,0.0,0.0,3.1391,3.2453,3.3229,3.3838,0.0,3.6832,0.0,0.0,0.0,3.9933,4.0386,4.0554,4.0565,4.0659,4.0762,4.0855,4.0855,4.0944,4.1043,4.0901,4.0855,4.0898,4.1135,4.1357,4.1528,4.1438,4.1598,4.1781,4.1587,4.1371,4.1241,4.1497,4.1458,4.15,4.1962,4.2065,4.2127,4.2328,4.2531,4.2585,4.2251,4.1373,0.0,0.0,0.0,0.0,0.0,0.0,0.0,0.0,0.0,0.0,0.0,0.0,0.0,0.0,0.0,0.0,0.0,0.0,4.8149,0.0,0.0,0.0,4.9896,0.0,4.9896,4.9896,4.9896,4.9896,4.9896,4.9896,4.9896,4.9896,4.9896,5.003,5.0242,5.0262,5.0664,5.1253,5.1111,5.1978,5.3301,5.3301,5.4191,5.5399,0.0,2.5936,0.0,0.0,2.7173,0.0,2.8453,2.91,2.9492,2.9492,2.9872,3.0445,3.1228,3.1553,3.1949,3.2535,3.2629,3.2758,3.2969,3.2992,3.3086,3.3284,3.2996,3.3352,3.4536,3.436,3.436,0.0,0.0,0.0,3.2579,3.3514,3.4157,3.4627,0.0,0.0,0.0,0.0,3.988,4.0024,4.0505,4.0734,4.0762,4.0723,4.0859,4.1089,4.1022,4.1163,4.1375,4.1205,4.1117,4.1131,4.1381,4.1455,4.1455,4.1455,4.1378,4.1321,4.1434,4.1283,4.1205,4.1646,4.185,4.2026,4.2352,4.2342,4.2281,4.2281,4.2281,4.2348,4.2613,4.1664,0.0,0.0,0.0,0.0,0.0,0.0,0.0,0.0,0.0,0.0,4.0593,0.0,0.0,0.0,0.0,0.0,4.6631,0.0,0.0,0.0,0.0,4.9896,4.9896,0.0,4.9896,4.9896,4.9896,4.9896,4.9896,4.9896,4.9896,4.9896,4.9896,4.9896,4.9941,5.0519,5.1175,5.1803,5.143,5.2207,5.3511,5.3366,5.4191,5.5399,0.0,0.0,0.0,0.0,0.0,2.8486,2.9041,3.0087,3.0812,3.0812,3.087,3.1275,3.2254,3.2605,3.2793,3.2864,3.3074,3.3238,3.3261,3.3261,3.3273,3.3296,3.3657,3.3921,3.4052,3.4964,3.5424,0.0,0.0,3.4651,3.4695,3.4273,3.4987,3.6654,0.0,0.0,3.9609,3.9743,4.0122,4.0617,4.0674,4.0802,4.0947,4.0773,4.0979,4.1329,4.11,4.1163,4.1427,4.1587,4.1504,4.1392,4.1608,4.1671,4.1671,4.1671,4.1966,4.2172,4.1775,4.2046,4.2345,4.2042,4.185,4.1688,4.1549,4.1191,4.0891,4.0891,4.0891,4.1022,4.148,4.1423,4.1362,0.0,0.0,0.0,0.0,0.0,0.0,0.0,0.0,0.0,0.0,4.1498,0.0,0.0,4.2851,0.0,0.0,0.0,0.0,4.9775,4.9864,4.9896,4.9896,4.9896,4.9896,4.9896,4.9896,4.9896,4.9896,4.9896,4.9896,4.9896,4.9896,4.9896,4.9979,5.0876,5.1391,5.162,5.1578,5.2685,5.4227,5.3544,5.4191,5.5399,0.0,0.0,0.0,0.0,0.0,0.0,0.0,3.1176,3.1748,3.2524,3.2195,3.2242,3.3114,3.3315,3.3553,3.3995,3.415,3.4198,3.4198,3.4198,3.4198,3.4198,3.4066,3.4361,3.5122,3.5243,3.5549,0.0,0.0,0.0,0.0,3.5279,3.6181,3.7886,3.8697,3.9321,3.9823,4.0192,4.0487,4.0702,4.0702,4.0827,4.099,4.0919,4.1415,4.2112,4.1601,4.1831,4.2315,4.2038,4.1769,4.1623,4.1866,4.1939,4.1939,4.1939,4.1866,4.1793,4.1723,4.1583,4.1454,4.1408,4.1458,4.1497,4.1417,4.1441,4.1475,4.1475,4.1293,4.1255,4.1677,4.1556,4.156,4.21,0.0,0.0,0.0,0.0,0.0,0.0,0.0,0.0,0.0,0.0,0.0,0.0,0.0,0.0,0.0,0.0,0.0,4.929,0.0,4.9896,4.9896,4.9896,4.9896,4.9896,4.9896,4.9896,4.9896,4.9896,4.9896,4.9896,4.9896,5.0158,5.0568,5.067,5.1317,5.2225,5.1917,5.2851,5.4363,5.4072,5.4574,5.5399,2.8028,0.0,2.8592,0.0,2.9909,3.0448,3.1906,3.2259,3.2721,3.3767,3.3482,3.3398,3.3959,3.4018,3.4234,3.4751,3.4799,3.4799,3.4799,3.4799,3.4835,3.4908,3.4559,0.0,3.5986,3.5802,3.613,3.6997,3.6273,0.0,0.0,3.6496,3.7391,3.8908,3.9529,3.9897,4.0094,4.0702,4.0969,4.0993,4.1241,4.147,4.1657,4.1458,4.1974,4.2687,4.1964,4.2147,4.2658,4.2237,4.196,4.1841,4.2036,4.2092,4.2082,4.2005,4.1752,4.1486,4.1489,4.129,4.1089,4.111,4.1293,4.1465,4.1417,4.1514,4.1621,4.1621,4.1399,4.1287,4.1569,4.1388,4.1402,4.2013,0.0,0.0,0.0,4.2915,0.0,0.0,4.3349,4.3278,4.271,4.267,0.0,0.0,0.0,0.0,0.0,0.0,0.0,0.0,0.0,0.0,4.9717,4.9717,4.9747,4.9807,4.9807,4.9836,4.9896,4.9896,4.9896,4.9896,4.9896,5.0206,5.0673,5.0547,5.1242,5.2337,5.1953,5.2871,5.4373,5.4153,5.4638,5.5399,2.9825,3.0236,3.0736,3.1278,3.1588,3.2023,3.2773,3.3349,3.3851,3.4325,3.4617,3.4775,3.4799,3.4799,3.4799,3.4799,3.4799,3.4799,3.4799,3.4799,3.492,0.0,0.0,3.5536,3.6272,3.6814,3.7442,3.8175,0.0,0.0,3.808,3.7938,3.8557,3.9785,3.9809,4.0122,4.073,4.1323,4.159,4.1657,4.253,4.3026,4.32,4.2531,4.2581,4.2884,4.2002,4.1887,4.2107,4.2092,4.2092,4.2092,4.2092,4.2092,4.2051,4.1775,4.1698,4.1608,4.1128,4.1482,4.1891,4.1486,4.1549,4.165,4.1448,4.1043,4.0723,4.0723,4.0712,4.0712,4.0709,4.0712,4.0712,4.0723,0.0,0.0,0.0,4.2021,0.0,4.2648,4.2481,4.2588,4.3235,4.2871,0.0,0.0,0.0,0.0,0.0,0.0,0.0,4.9274,4.9305,0.0,4.9305,4.9305,4.9406,4.9597,4.9597,4.9707,4.9896,4.9896,4.9896,4.9896,4.9896,4.9912,4.9959,5.0684,5.124,5.1607,5.1609,5.2742,5.4308,5.3576,5.4191,5.5399,3.0633,3.0912,3.1366,3.2034,3.2369,3.2856,3.3784,3.4074,3.4304,3.4629,3.475,3.4799,3.4799,3.4799,3.4799,0.0,3.4799,3.4799,0.0,3.4981,3.5114,3.5199,3.538,3.5823,3.6556,3.7107,3.7731,3.8464,0.0,0.0,3.8317,3.8721,3.9373,4.021,4.0357,4.0519,4.0702,4.0898,4.1333,4.1905,4.2166,4.2537,4.2869,4.2643,4.3037,4.3587,4.2846,4.32,4.3946,4.354,4.3079,4.2702,4.2702,4.2436,4.2082,4.1995,4.1841,4.1667,4.1521,4.1402,4.1296,4.1163,4.1071,4.0997,4.0937,4.0809,4.0702,4.0702,4.0702,4.0702,4.0702,4.0958,4.1185,4.1185,4.1535,0.0,4.198,0.0,4.2521,4.2678,4.315,4.3547,4.3753,4.3645,0.0,0.0,0.0,0.0,0.0,0.0,0.0,0.0,4.9061,0.0,4.9295,4.9295,4.9326,4.9396,4.9527,4.9707,4.9896,4.9896,4.9896,4.9896,4.9896,4.9896,4.9922,5.0347,5.0955,5.161,5.1744,5.2871,5.4373,5.4136,5.4622,5.5399,3.1523,3.1864,3.2408,3.3354,3.374,3.4186,3.5017,3.5223,3.5295,3.5392,3.5404,3.5404,3.5404,3.5211,0.0,3.4969,3.4957,3.4993,3.509,3.5259,3.5464,3.5751,3.5919,3.6452,3.7386,3.7743,3.8224,3.8859,3.8652,3.8716,3.9002,3.9429,3.9941,4.0525,4.0637,4.0702,4.0726,4.1048,4.1491,4.2036,4.244,4.2779,4.3023,4.2874,4.3321,4.3917,4.3249,4.367,4.4498,4.4135,4.3728,4.338,4.338,4.2944,4.2382,4.2165,4.1984,4.1831,4.1733,4.1489,4.1223,4.1043,4.0908,4.0851,4.1004,4.1039,4.1039,4.1039,4.1039,4.0969,4.0744,4.0937,4.1128,4.1128,4.1504,4.1771,4.1771,0.0,4.247,0.0,0.0,4.3772,0.0,4.4307,4.4773,0.0,0.0,0.0,0.0,0.0,4.7768,4.84,4.8814,4.9041,4.9041,4.9041,4.9082,4.9179,4.9749,5.0116,5.0311,5.0311,5.0158,4.9896,4.9896,4.9896,4.9916,5.0193,5.0673,5.1242,5.1453,5.2527,5.3991,5.3991,5.459,5.5399,3.2547,3.3085,3.3804,3.4993,3.544,3.5822,3.6322,3.6557,3.6616,3.6417,3.6405,3.6417,3.6393,3.5979,3.5596,3.5356,3.5247,3.5308,3.5584,3.562,3.5931,3.6616,3.6675,3.7246,3.8478,3.8534,3.8791,3.9305,3.9316,3.956,3.9996,4.002,4.027,4.0702,4.0702,4.0702,4.074,4.1577,4.1979,4.2108,4.3173,4.3606,4.3582,4.3266,4.3525,4.3975,4.3365,4.3569,4.412,4.4077,4.4062,4.4062,4.4019,4.3569,4.2959,4.2349,4.2111,4.2016,4.1765,4.1688,4.1563,4.1107,4.099,4.1082,4.1448,4.1576,4.1604,4.1604,4.1632,4.1492,4.094,4.0828,4.0828,4.0828,4.1164,4.1435,4.1467,4.1779,4.2098,4.2382,0.0,0.0,4.3765,4.493,4.569,0.0,0.0,0.0,0.0,0.0,4.7265,4.8563,4.8609,4.8609,4.8609,4.8609,4.8764,4.9104,5.0188,5.0829,5.1068,5.101,5.0621,4.9975,4.9927,4.9896,4.9916,5.0193,5.0418,5.0618,5.0874,5.193,5.3317,5.3366,5.424,5.5399,3.4121,3.452,3.4847,3.5151,3.5763,3.6251,3.6381,3.644,3.6452,3.6405,3.6522,3.6569,3.6417,3.6616,3.6721,3.6664,3.5751,3.5308,3.5584,3.5788,3.5979,3.6158,3.6358,3.6781,3.7433,3.7812,3.8427,3.9305,3.951,3.9738,3.9996,4.0208,4.0447,4.0702,4.0702,4.0702,4.0723,4.1075,4.1614,4.2306,4.3232,4.3723,4.3947,4.4316,4.4556,4.4672,4.4512,4.4875,4.5369,4.4861,4.4687,4.4614,4.4149,4.3888,4.3627,4.2988,4.2311,4.1775,4.1723,4.1602,4.1402,4.1075,4.0887,4.0805,4.0895,4.1267,4.1604,4.1604,4.2008,4.2314,4.2174,4.2157,4.2157,4.2157,4.1801,4.1676,4.2046,4.2032,4.2396,0.0,4.4183,4.4879,4.559,4.6087,4.6582,0.0,0.0,4.7111,4.8301,4.7727,4.7732,4.8568,4.8609,4.8609,4.8609,4.8609,4.9078,4.9998,5.0479,5.1071,5.1749,5.1221,5.09,5.071,5.0143,4.9896,4.9916,5.0193,5.0418,5.0666,5.1389,5.2323,5.3366,5.3926,5.4671,5.5399,3.5223,3.5476,3.5668,3.6014,3.6523,3.6934,3.7076,3.7155,3.7212,3.7212,3.7328,3.7397,3.7398,3.7407,3.7579,3.7981,3.6932,3.6357,3.6592,3.6745,3.6933,3.7179,3.733,3.7629,3.8099,3.8359,3.881,3.9485,3.962,3.9876,4.0187,4.0331,4.0515,4.0702,4.0702,4.0921,4.1318,4.1515,4.2092,4.2944,4.3546,4.3867,4.4033,4.4353,4.4658,4.4861,4.4585,4.489,4.5384,4.5021,4.489,4.489,4.4875,4.4658,4.4338,4.3975,4.3121,4.2213,4.1805,4.1619,4.1451,4.1085,4.0845,4.0772,4.1053,4.1365,4.1604,4.1604,4.2135,4.2511,4.2202,4.2385,4.2607,4.2607,4.2289,4.2216,4.2687,4.2664,4.308,4.4439,4.4919,4.5486,4.6348,4.681,4.7219,4.7563,4.7558,0.0,4.8563,4.8255,4.8224,4.8594,4.8609,4.8609,4.8609,4.8728,4.9512,5.0939,5.1095,5.1621,5.2497,5.2138,5.1611,5.0979,5.0573,5.0206,4.9916,5.0193,5.0609,5.1114,5.1678,5.2672,5.3845,5.425,5.4816,5.5399,3.6061,3.6203,3.6416,3.705,3.7434,3.7724,3.791,3.8112,3.8247,3.8213,3.8257,3.8383,3.858,3.8336,3.8434,3.9134,3.848,3.8048,3.807,3.807,3.8267,3.873,3.8755,3.8929,3.9329,3.9346,3.9485,3.9755,3.9788,4.0007,4.0399,4.0431,4.0547,4.0702,4.072,4.1155,4.1866,4.211,4.2693,4.3502,4.386,4.4048,4.4149,4.4251,4.46,4.4962,4.4353,4.4527,4.5021,4.4832,4.489,4.5122,4.5601,4.5427,4.5035,4.4933,4.4135,4.3095,4.2195,4.1824,4.1601,4.1238,4.0915,4.0828,4.1351,4.1534,4.1604,4.1604,4.2135,4.2438,4.1868,4.2289,4.2736,4.2736,4.2736,4.2924,4.3465,0.0,4.3936,4.5382,4.5568,4.5918,4.68,4.7419,4.7747,4.7747,4.8286,4.8609,4.8609,4.8609,4.8609,4.8609,4.8609,4.862,4.8661,4.8919,4.9941,5.1701,5.1722,5.2267,5.3239,5.3144,5.2444,5.1311,5.1089,5.0637,5.0099,5.0336,5.0903,5.1642,5.2073,5.3117,5.4422,5.4509,5.4914,5.5399,3.678,3.7121,3.7308,3.7424,3.7988,3.8376,3.8179,3.8374,3.8453,3.8236,3.8549,3.8742,3.8613,3.9335,3.9795,3.9708,4.0212,4.0196,3.9368,3.9309,3.937,3.9441,3.9441,3.9453,3.9474,3.9579,3.9741,3.9955,4.0179,4.0334,4.0399,4.0565,4.0669,4.0712,4.0876,4.1025,4.1174,4.1612,4.2199,4.2901,4.37,4.4309,4.4817,4.5384,4.5659,4.5659,4.4992,4.518,4.5572,4.4498,4.4846,4.5659,4.5195,4.5369,4.563,4.5064,4.4759,4.4381,4.3321,4.235,4.1645,4.1811,4.1264,4.0716,4.0814,4.1225,4.1604,4.1604,4.2135,4.2579,4.2455,4.2947,4.3368,4.3368,4.3368,4.3661,4.4524,0.0,4.4548,4.6497,4.6738,4.7148,4.8188,4.8378,4.843,4.843,4.8548,4.8609,4.8609,4.8609,4.8609,4.8609,4.8609,4.8718,4.8944,4.9149,5.008,5.1701,5.1867,5.2639,5.3929,5.335,5.2971,5.2712,5.1516,5.0931,5.0857,5.1057,5.1313,5.1748,5.3186,5.4025,5.447,5.5043,5.5308,5.5399,3.7583,3.779,3.7918,3.8068,3.8376,3.8557,3.843,3.8523,3.8589,3.8585,3.8774,3.8922,3.8971,3.971,4.0277,4.0478,4.1164,4.1531,4.1385,4.0777,4.0418,4.0418,4.0546,4.0682,4.0792,4.0852,4.0818,4.0694,4.0818,4.0771,4.0554,4.0659,4.0702,4.0712,4.0919,4.1259,4.175,4.2424,4.3256,4.416,4.4887,4.5445,4.5822,4.5996,4.6057,4.5958,4.5181,4.5093,4.5267,4.4687,4.4875,4.5369,4.5413,4.5645,4.5834,4.5529,4.4845,4.4091,4.3609,4.3006,4.2518,4.2496,4.2171,4.1864,4.1757,4.1657,4.1604,4.1604,4.1854,4.2064,4.2064,4.257,4.3017,4.3017,4.3298,4.3749,4.4434,4.4885,4.5628,4.6943,4.7458,4.794,4.8547,4.8609,4.8609,4.8609,4.8609,4.8609,4.8609,4.8609,4.8609,4.8609,4.8738,4.8939,4.9149,4.9356,5.0268,5.1857,5.1966,5.2734,5.4087,5.3787,5.3429,5.3065,5.2412,5.1917,5.1564,5.1797,5.2216,5.2827,5.3743,5.4445,5.4978,5.5286,5.5399,5.5399,3.8213,3.8325,3.844,3.8634,3.8713,3.8735,3.8679,3.8833,3.9026,3.9179,3.9258,3.9395,3.9629,4.0151,4.0674,4.1138,4.187,4.2494,4.2969,4.2174,4.1657,4.1612,4.1732,4.1916,4.2168,4.2041,4.1849,4.1591,4.1591,4.1439,4.1137,4.1188,4.1139,4.1009,4.1284,4.1678,4.2227,4.3085,4.4081,4.512,4.5738,4.6204,4.6469,4.6291,4.6165,4.6025,4.5203,4.4992,4.5108,4.4948,4.4992,4.5224,4.5743,4.5892,4.5892,4.5892,4.5058,4.4108,4.3977,4.3689,4.3359,4.3103,4.2934,4.2791,4.2637,4.2202,4.1786,4.1632,4.1604,4.1562,4.1421,4.1935,4.2371,4.2371,4.3,4.3667,4.4134,4.5215,4.6283,4.7126,4.7712,4.8212,4.8573,4.8609,4.8609,4.8609,4.8609,4.8609,4.8609,4.8609,4.863,4.8682,4.8888,4.9113,4.9366,4.9689,5.0573,5.2007,5.2165,5.2892,5.4103,5.4103,5.3818,5.3318,5.3176,5.2781,5.228,5.2528,5.3045,5.3745,5.4167,5.4773,5.5399,5.5399,5.5399,5.5399,3.8557,3.8722,3.8852,3.8875,3.908,3.9158,3.8919,3.9562,4.0085,4.0096,4.0314,4.0552,4.076,4.1105,4.134,4.1369,4.2496,4.3218,4.3273,4.3353,4.3335,4.3148,4.2861,4.2805,4.3013,4.2463,4.2292,4.2503,4.2503,4.2486,4.2466,4.265,4.2449,4.1915,4.2374,4.2261,4.1803,4.2673,4.357,4.4425,4.5091,4.5705,4.6221,4.621,4.6079,4.5827,4.5148,4.5296,4.5732,4.5108,4.5311,4.5834,4.5877,4.5892,4.5892,4.5892,4.5822,4.5623,4.5118,4.4382,4.3704,4.3519,4.3037,4.2618,4.2607,4.2553,4.2357,4.173,4.1604,4.1435,4.087,4.1253,4.1674,4.1674,4.271,4.3654,4.413,4.4828,4.5778,4.7133,4.7333,4.7706,4.8527,4.8609,4.8609,4.8609,4.8609,4.8609,4.8609,4.8609,4.8718,4.8965,4.8985,4.9184,4.9567,5.0272,5.1076,5.2007,5.2686,5.3397,5.4103,5.4103,5.4071,5.3992,5.3365,5.3065,5.3028,5.3237,5.3471,5.3793,5.4683,5.5172,5.5399,5.5399,5.5399,5.5399,3.8733,3.8854,3.8953,3.9125,3.9225,3.9272,3.9156,3.9749,4.0269,4.0429,4.0545,4.0677,4.0885,4.1011,4.1092,4.1092,4.2223,4.2924,4.2924,4.3506,4.382,4.3751,4.3612,4.3663,4.3897,4.3682,4.3431,4.3158,4.3158,4.2975,4.2593,4.2813,4.2783,4.2578,4.3044,4.312,4.2944,4.3806,4.4541,4.5164,4.584,4.6428,4.6844,4.6561,4.6406,4.6266,4.5728,4.5674,4.5848,4.5601,4.5688,4.5892,4.5892,4.5892,4.5892,4.5892,4.5892,4.5824,4.5447,4.5229,4.5042,4.4792,4.4576,4.4325,4.4032,4.3641,4.3263,4.3023,4.2572,4.219,4.208,4.2147,4.236,4.2772,4.3561,4.4337,4.4983,4.6009,4.6888,4.7419,4.7847,4.825,4.8568,4.8609,4.8609,4.8609,4.8609,4.8609,4.8609,4.8759,4.896,4.9179,4.9301,4.9452,4.9597,5.0,5.0804,5.2007,5.2275,5.3013,5.4103,5.4103,5.4103,5.4087,5.3834,5.3724,5.3745,5.4115,5.4313,5.4444,5.5052,5.5334,5.5399,5.5399,5.5399,5.5399,3.8966,3.9033,3.9078,3.9269,3.9305,3.9382,3.9663,4.0216,4.0805,4.1315,4.139,4.1398,4.1438,4.1354,4.1226,4.1046,4.1965,4.2537,4.2537,4.3361,4.3934,4.4115,4.4129,4.4211,4.4399,4.4399,4.4202,4.3778,4.3778,4.3614,4.3308,4.3494,4.3523,4.3453,4.3847,4.3892,4.3773,4.4574,4.5164,4.5658,4.634,4.6826,4.7131,4.6749,4.655,4.6414,4.6038,4.5892,4.5892,4.5892,4.5892,4.5892,4.5892,4.5892,4.5892,4.5892,4.5892,4.5858,4.5688,4.5768,4.5824,4.5458,4.5378,4.5299,4.498,4.4532,4.4149,4.3964,4.3483,4.3087,4.3041,4.2846,4.2924,4.361,4.4175,4.4778,4.5499,4.6565,4.7362,4.7574,4.8002,4.8363,4.8578,4.8609,4.8609,4.8609,4.8609,4.8609,4.8609,4.8847,4.9082,4.9295,4.9497,4.9627,4.9687,5.0057,5.0838,5.2007,5.2228,5.2955,5.4103,5.4103,5.4103,5.4103,5.4103,5.4103,5.4135,5.4518,5.4723,5.4834,5.5175,5.5338,5.5399,5.5399,5.5399,5.5399,3.9305,3.9305,3.9305,3.9305,3.9305,3.9598,4.046,4.1108,4.1893,4.2955,4.3101,4.2984,4.2629,4.2357,4.1959,4.1346,4.185,4.2199,4.221,4.3021,4.3764,4.4371,4.4399,4.4399,4.4399,4.4399,4.4399,4.4399,4.4399,4.4539,4.4809,4.5012,4.492,4.4627,4.482,4.457,4.4048,4.4658,4.5179,4.5673,4.634,4.6712,4.6887,4.6683,4.6425,4.6176,4.597,4.5892,4.5892,4.5892,4.5892,4.5892,4.5892,4.5892,4.5892,4.5892,4.5892,4.5892,4.5892,4.5892,4.5768,4.5238,4.5112,4.5112,4.5101,4.5101,4.4941,4.4324,4.4207,4.4021,4.344,4.3101,4.3168,4.3885,4.4347,4.4851,4.5512,4.6183,4.6865,4.7527,4.7609,4.7871,4.8548,4.8609,4.8609,4.8609,4.8609,4.8609,4.8609,4.8857,4.9093,4.9295,4.9497,4.9697,4.9896,5.0621,5.1332,5.2007,5.2734,5.3455,5.4103,5.4103,5.4103,5.4103,5.4103,5.4103,5.4124,5.4327,5.4555,5.4823,5.501,5.5221,5.5399,5.5399,5.5399,5.5399,3.9258,3.9305,3.9349,3.9554,3.9576,3.9856,4.0679,4.133,4.2037,4.2978,4.3263,4.3247,4.2847,4.2362,4.1796,4.1151,4.1672,4.2303,4.2863,4.315,4.3578,4.4237,4.4346,4.4399,4.4399,4.4574,4.4679,4.4679,4.4815,4.4928,4.5023,4.5261,4.5335,4.5238,4.55,4.55,4.5351,4.5681,4.6009,4.6336,4.6667,4.6953,4.7142,4.6749,4.655,4.6439,4.6038,4.5892,4.5892,4.5892,4.5892,4.5892,4.5892,4.5892,4.5892,4.5892,4.5892,4.5892,4.5892,4.5892,4.5858,4.57,4.5651,4.5606,4.5424,4.539,4.5332,4.5146,4.4966,4.4827,4.4836,4.4502,4.4456,4.5148,4.5639,4.6181,4.6902,4.7577,4.8071,4.8286,4.8301,4.8378,4.8578,4.8609,4.8609,4.8609,4.8609,4.8609,4.8609,4.898,4.924,4.9295,4.9627,4.9836,4.9896,5.0127,5.0822,5.2007,5.2212,5.2949,5.4103,5.4103,5.4103,5.4103,5.4103,5.4183,5.4327,5.4581,5.4802,5.5036,5.5231,5.5354,5.5399,5.5399,5.5399,5.5399,3.9418,3.9463,3.9529,3.9785,4.0021,4.049,4.143,4.2084,4.2808,4.3771,4.383,4.3596,4.3114,4.25,4.1959,4.1547,4.2126,4.2722,4.3216,4.3459,4.3773,4.4181,4.4615,4.4795,4.4676,4.4839,4.4922,4.4922,4.5032,4.5147,4.5261,4.5424,4.5561,4.5677,4.5824,4.5892,4.5903,4.6038,4.628,4.6605,4.6734,4.7001,4.7255,4.6771,4.6594,4.6539,4.606,4.5892,4.5892,4.5892,4.5892,4.5892,4.5892,4.5892,4.5892,4.5892,4.5892,4.5892,4.5892,4.5892,4.5892,4.5892,4.5892,4.5858,4.57,4.5651,4.5629,4.5515,4.5378,4.5273,4.5318,4.5035,4.5104,4.6072,4.6388,4.6842,4.7855,4.8344,4.8609,4.8609,4.8609,4.8609,4.8609,4.8609,4.8609,4.8609,4.8609,4.8651,4.8749,4.9092,4.9336,4.9416,4.9727,4.9896,4.9896,4.9896,5.0617,5.2007,5.2007,5.2734,5.4103,5.4103,5.4103,5.4103,5.4103,5.42,5.4417,5.4692,5.4912,5.5124,5.5323,5.5399,5.5399,5.5399,5.5399,5.5399,3.9675,3.9733,3.9796,3.9999,4.054,4.1316,4.2449,4.3144,4.3921,4.4958,4.4604,4.3997,4.339,4.2728,4.2346,4.2349,4.2947,4.3344,4.3366,4.3884,4.4217,4.4263,4.5059,4.5386,4.5204,4.5204,4.5193,4.517,4.5193,4.5307,4.5538,4.5538,4.5677,4.5892,4.5892,4.5903,4.5925,4.5948,4.6217,4.6627,4.665,4.6902,4.7222,4.6771,4.6594,4.6506,4.606,4.5892,4.5892,4.5892,4.5892,4.5892,4.5892,4.5892,4.5892,4.5892,4.5892,4.5892,4.5892,4.5892,4.5892,4.5892,4.5892,4.588,4.5869,4.5847,4.5768,4.5515,4.5458,4.539,4.5147,4.4943,4.5253,4.6587,4.6642,4.7009,4.8323,4.8568,4.8609,4.8609,4.8609,4.8609,4.8609,4.8609,4.8609,4.8609,4.862,4.8738,4.8985,4.921,4.9406,4.9587,4.9797,4.9896,4.9896,4.9896,5.0617,5.2007,5.2007,5.2734,5.4103,5.4103,5.4103,5.4103,5.4103,5.4226,5.4454,5.4702,5.4932,5.5155,5.5334,5.5399,5.5399,5.5399,5.5399,5.5399,3.9922,3.9933,4.0009,4.0277,4.081,4.1588,4.267,4.3344,4.4055,4.4981,4.4751,4.4256,4.3602,4.298,4.2617,4.2603,4.3174,4.361,4.3827,4.3969,4.4258,4.4735,4.5138,4.5532,4.5949,4.5964,4.5874,4.5734,4.5874,4.5911,4.5813,4.5813,4.5835,4.5892,4.5892,4.5993,4.6158,4.6362,4.6605,4.6855,4.7066,4.7088,4.6964,4.6705,4.6458,4.6258,4.5993,4.5892,4.5892,4.5892,4.5892,4.5892,4.5892,4.5892,4.5892,4.5892,4.5892,4.5892,4.5892,4.5892,4.5892,4.5892,4.5892,4.5835,4.5629,4.5424,4.5261,4.5204,4.5193,4.517,4.5112,4.5055,4.5261,4.5938,4.6473,4.7054,4.7717,4.8271,4.8609,4.8609,4.8609,4.8609,4.8609,4.8609,4.8609,4.8609,4.878,4.8944,4.8996,4.9341,4.9547,4.9597,4.9797,4.9896,4.9896,4.9896,5.0617,5.2007,5.2007,5.2734,5.4103,5.4103,5.4103,5.4103,5.4103,5.4327,5.4723,5.4781,5.5015,5.5344,5.5379,5.5399,5.5399,5.5399,5.5399,5.5399,4.0165,4.0187,4.0306,4.0627,4.1449,4.2332,4.3104,4.4013,4.4821,4.5415,4.5043,4.4496,4.3867,4.3517,4.3441,4.373,4.4323,4.4754,4.4893,4.4904,4.505,4.5354,4.5727,4.6076,4.6377,4.6613,4.6558,4.6228,4.6336,4.6336,4.6228,4.609,4.6116,4.6228,4.609,4.6102,4.621,4.6347,4.6535,4.6767,4.6913,4.7023,4.7051,4.6727,4.6517,4.6347,4.6015,4.5892,4.5892,4.5892,4.5892,4.5892,4.5892,4.5892,4.5892,4.5892,4.5892,4.5892,4.5892,4.5892,4.5892,4.5892,4.5801,4.5711,4.57,4.5572,4.5447,4.5318,4.5284,4.525,4.5124,4.5101,4.5375,4.6184,4.6653,4.7178,4.7966,4.8375,4.8609,4.8609,4.8609,4.8609,4.8609,4.8609,4.8609,4.8609,4.8847,4.9047,4.9144,4.9427,4.9637,4.9737,4.9846,4.9896,4.9896,4.9896,5.0617,5.2007,5.2007,5.2734,5.4103,5.4103,5.4103,5.4103,5.4103,5.4279,5.4623,5.4744,5.4984,5.5272,5.5358,5.5399,5.5399,5.5399,5.5399,5.5399,4.0407,4.045,4.0596,4.1039,4.2098,4.3083,4.3609,4.4729,4.5595,4.5858,4.5235,4.4585,4.4208,4.4149,4.4353,4.4861,4.5514,4.5892,4.5892,4.5925,4.5948,4.5948,4.6406,4.665,4.665,4.7077,4.7088,4.665,4.665,4.6627,4.6594,4.6369,4.6391,4.6594,4.6325,4.6243,4.631,4.6277,4.6436,4.6716,4.6716,4.6902,4.7146,4.6749,4.655,4.6428,4.6038,4.5892,4.5892,4.5892,4.5892,4.5892,4.5892,4.5892,4.5892,4.5892,4.5892,4.5892,4.5892,4.5892,4.5892,4.5892,4.5734,4.5629,4.5847,4.5824,4.57,4.5481,4.5435,4.5367,4.5135,4.5135,4.5557,4.6708,4.6942,4.7351,4.8453,4.8609,4.8609,4.8609,4.8609,4.8609,4.8609,4.8609,4.862,4.8661,4.8908,4.9144,4.9336,4.9537,4.9727,4.9886,4.9896,4.9959,5.0095,5.0095,5.079,5.2196,5.2196,5.286,5.4103,5.4103,5.4103,5.4103,5.4103,5.42,5.4417,5.4692,5.4912,5.5124,5.5323,5.5399,5.5399,5.5399,5.5399,5.5399,4.0648,4.0659,4.0838,4.1412,4.2274,4.3183,4.3992,4.4893,4.5595,4.5858,4.4861,4.4295,4.473,4.4774,4.4803,4.489,4.5514,4.5892,4.5892,4.6057,4.6154,4.6154,4.6598,4.6851,4.6851,4.7153,4.7153,4.6851,4.6851,4.6767,4.6594,4.6561,4.6572,4.6594,4.6325,4.6421,4.6785,4.6627,4.6793,4.7212,4.7212,4.7001,4.6683,4.6627,4.6351,4.5982,4.5914,4.5892,4.5892,4.5892,4.5892,4.5892,4.5892,4.5892,4.5892,4.5892,4.5892,4.5892,4.5892,4.5892,4.5892,4.5892,4.5869,4.5858,4.588,4.5538,4.5204,4.5158,4.5147,4.5135,4.5112,4.5284,4.5776,4.6741,4.7084,4.7559,4.8474,4.8609,4.8609,4.8609,4.8609,4.8609,4.8609,4.8609,4.8707,4.8934,4.9138,4.9361,4.9547,4.9747,4.9866,4.9896,4.9896,5.0216,5.0836,5.0852,5.1553,5.2955,5.2955,5.335,5.4103,5.4103,5.4103,5.4103,5.4103,5.42,5.4417,5.4692,5.4912,5.5124,5.5323,5.5399,5.5399,5.5399,5.5399,5.5399,4.0702,4.0795,4.1106,4.1858,4.2712,4.3585,4.446,4.5247,4.5768,4.588,4.5413,4.5021,4.4904,4.489,4.505,4.5438,4.5732,4.5948,4.6057,4.6158,4.628,4.6414,4.6734,4.6894,4.6894,4.7164,4.7229,4.7121,4.7121,4.7077,4.6994,4.6847,4.6858,4.6979,4.6712,4.6708,4.6884,4.6811,4.6887,4.7073,4.7073,4.6942,4.6756,4.665,4.6384,4.6046,4.5937,4.5892,4.5892,4.5892,4.5892,4.5892,4.5892,4.5892,4.5892,4.5892,4.5892,4.5892,4.5892,4.5892,4.5892,4.5892,4.5892,4.5892,4.5892,4.5722,4.5549,4.5549,4.5549,4.5549,4.5549,4.5629,4.6038,4.6964,4.7218,4.7591,4.8485,4.8609,4.8609,4.8609,4.8609,4.8609,4.8609,4.8738,4.8867,4.8985,4.9291,4.9507,4.9597,4.9787,4.9896,4.9896,5.0295,5.0668,5.1005,5.1364,5.2003,5.2886,5.3028,5.3444,5.4103,5.4103,5.4103,5.4103,5.4103,5.4141,5.4253,5.4639,5.4838,5.4964,5.5282,5.5399,5.5399,5.5399,5.5399,5.5399]}]]